<?xml version="1.0" encoding="UTF-8" standalone="no" ?>
<gpx xmlns="http://www.topografix.com/GPX/1/1" xmlns:xsi="http://www.w3.org/2001/XMLSchema-instance" xsi:schemaLocation="http://www.topografix.com/GPX/1/1 http://www.topografix.com/GPX/1/1/gpx.xsd" version="1.1" creator="VisuGPX - https://www.visugpx.com">
  <metadata>
    <name>Eustache Vaccia Aulene</name>
    <desc><![CDATA[Tres beau panrama sur Taravo]]></desc>
  </metadata>
  <trk>
    <name><![CDATA[ACTIVE LOG082643]]></name>
    <trkseg>
      <trkpt lat="41.66501" lon="9.0134">
        <ele>61.836</ele>
        <time>2011-06-10T06:26:43Z</time>
      </trkpt>
      <trkpt lat="41.66501" lon="9.0134">
        <ele>62.805</ele>
        <time>2011-06-10T06:26:52Z</time>
      </trkpt>
      <trkpt lat="41.66501" lon="9.0134">
        <ele>62.504</ele>
        <time>2011-06-10T06:27:29Z</time>
      </trkpt>
    </trkseg>
  </trk>
  <trk>
    <name><![CDATA[ACTIVE LOG083143]]></name>
    <trkseg>
      <trkpt lat="41.66501" lon="9.0134">
        <ele>61.738</ele>
        <time>2011-06-10T06:31:43Z</time>
      </trkpt>
      <trkpt lat="41.66501" lon="9.0134">
        <ele>60.866</ele>
        <time>2011-06-10T06:31:50Z</time>
      </trkpt>
      <trkpt lat="41.66501" lon="9.0134">
        <ele>62.383</ele>
        <time>2011-06-10T06:31:54Z</time>
      </trkpt>
    </trkseg>
  </trk>
  <trk>
    <name><![CDATA[ACTIVE LOG135656]]></name>
    <trkseg>
      <trkpt lat="41.66501" lon="9.0134">
        <ele>61.836</ele>
        <time>2011-06-10T11:56:56Z</time>
      </trkpt>
      <trkpt lat="41.66501" lon="9.0134">
        <ele>961.601</ele>
        <time>2011-06-10T11:56:57Z</time>
      </trkpt>
      <trkpt lat="41.66501" lon="9.0134">
        <ele>959.981</ele>
        <time>2011-06-10T11:56:59Z</time>
      </trkpt>
      <trkpt lat="41.66501" lon="9.0134">
        <ele>962.232</ele>
        <time>2011-06-10T11:57:00Z</time>
      </trkpt>
      <trkpt lat="41.66501" lon="9.0134">
        <ele>960.377</ele>
        <time>2011-06-10T11:57:01Z</time>
      </trkpt>
    </trkseg>
  </trk>
  <trk>
    <name><![CDATA[ACTIVE LOG135712]]></name>
    <trkseg>
      <trkpt lat="41.66501" lon="9.0134">
        <ele>962.407</ele>
        <time>2011-06-10T11:57:10Z</time>
      </trkpt>
      <trkpt lat="41.66501" lon="9.0134">
        <ele>961.162</ele>
        <time>2011-06-10T11:57:12Z</time>
      </trkpt>
    </trkseg>
  </trk>
  <trk>
    <name><![CDATA[ACTIVE LOG135737]]></name>
    <trkseg>
      <trkpt lat="41.77396" lon="9.02223">
        <ele>960.562</ele>
        <time>2011-06-10T11:57:37Z</time>
      </trkpt>
      <trkpt lat="41.7739" lon="9.02231">
        <ele>964.791</ele>
        <time>2011-06-10T11:57:56Z</time>
      </trkpt>
      <trkpt lat="41.77391" lon="9.02231">
        <ele>968.435</ele>
        <time>2011-06-10T11:58:00Z</time>
      </trkpt>
      <trkpt lat="41.77391" lon="9.02234">
        <ele>970.06</ele>
        <time>2011-06-10T11:58:02Z</time>
      </trkpt>
      <trkpt lat="41.77391" lon="9.0224">
        <ele>974.542</ele>
        <time>2011-06-10T11:58:07Z</time>
      </trkpt>
      <trkpt lat="41.77393" lon="9.02241">
        <ele>975.273</ele>
        <time>2011-06-10T11:58:08Z</time>
      </trkpt>
      <trkpt lat="41.77395" lon="9.02242">
        <ele>975.047</ele>
        <time>2011-06-10T11:58:10Z</time>
      </trkpt>
      <trkpt lat="41.77395" lon="9.0223">
        <ele>979.269</ele>
        <time>2011-06-10T11:58:19Z</time>
      </trkpt>
      <trkpt lat="41.77394" lon="9.02228">
        <ele>982.29</ele>
        <time>2011-06-10T11:58:28Z</time>
      </trkpt>
      <trkpt lat="41.77394" lon="9.02228">
        <ele>985.398</ele>
        <time>2011-06-10T11:58:40Z</time>
      </trkpt>
      <trkpt lat="41.77392" lon="9.02226">
        <ele>988.697</ele>
        <time>2011-06-10T11:59:08Z</time>
      </trkpt>
      <trkpt lat="41.77389" lon="9.02223">
        <ele>992.232</ele>
        <time>2011-06-10T11:59:37Z</time>
      </trkpt>
      <trkpt lat="41.77389" lon="9.02223">
        <ele>992.448</ele>
        <time>2011-06-10T11:59:38Z</time>
      </trkpt>
      <trkpt lat="41.77389" lon="9.02224">
        <ele>992.897</ele>
        <time>2011-06-10T11:59:40Z</time>
      </trkpt>
      <trkpt lat="41.77377" lon="9.02237">
        <ele>994.586</ele>
        <time>2011-06-10T11:59:49Z</time>
      </trkpt>
      <trkpt lat="41.77377" lon="9.02246">
        <ele>996.232</ele>
        <time>2011-06-10T11:59:52Z</time>
      </trkpt>
      <trkpt lat="41.77381" lon="9.02256">
        <ele>997.517</ele>
        <time>2011-06-10T11:59:57Z</time>
      </trkpt>
      <trkpt lat="41.77377" lon="9.02282">
        <ele>1001.026</ele>
        <time>2011-06-10T12:00:09Z</time>
      </trkpt>
      <trkpt lat="41.77374" lon="9.02298">
        <ele>1004.457</ele>
        <time>2011-06-10T12:00:20Z</time>
      </trkpt>
      <trkpt lat="41.77367" lon="9.02305">
        <ele>1005.066</ele>
        <time>2011-06-10T12:00:40Z</time>
      </trkpt>
      <trkpt lat="41.77361" lon="9.02314">
        <ele>1008.021</ele>
        <time>2011-06-10T12:00:54Z</time>
      </trkpt>
      <trkpt lat="41.77351" lon="9.02324">
        <ele>1010.942</ele>
        <time>2011-06-10T12:01:15Z</time>
      </trkpt>
      <trkpt lat="41.77345" lon="9.02335">
        <ele>1013.793</ele>
        <time>2011-06-10T12:01:25Z</time>
      </trkpt>
      <trkpt lat="41.7734" lon="9.0234">
        <ele>1014.931</ele>
        <time>2011-06-10T12:01:31Z</time>
      </trkpt>
      <trkpt lat="41.77333" lon="9.02353">
        <ele>1018.534</ele>
        <time>2011-06-10T12:01:44Z</time>
      </trkpt>
      <trkpt lat="41.77329" lon="9.02358">
        <ele>1019.747</ele>
        <time>2011-06-10T12:01:49Z</time>
      </trkpt>
      <trkpt lat="41.77318" lon="9.02372">
        <ele>1023.273</ele>
        <time>2011-06-10T12:02:03Z</time>
      </trkpt>
      <trkpt lat="41.77313" lon="9.02377">
        <ele>1024.654</ele>
        <time>2011-06-10T12:02:09Z</time>
      </trkpt>
      <trkpt lat="41.77308" lon="9.02379">
        <ele>1026.206</ele>
        <time>2011-06-10T12:02:15Z</time>
      </trkpt>
      <trkpt lat="41.77305" lon="9.02386">
        <ele>1027.544</ele>
        <time>2011-06-10T12:02:21Z</time>
      </trkpt>
      <trkpt lat="41.77304" lon="9.02389">
        <ele>1028.205</ele>
        <time>2011-06-10T12:02:23Z</time>
      </trkpt>
      <trkpt lat="41.77309" lon="9.0239">
        <ele>1029.889</ele>
        <time>2011-06-10T12:02:36Z</time>
      </trkpt>
      <trkpt lat="41.77319" lon="9.02395">
        <ele>1032.439</ele>
        <time>2011-06-10T12:03:04Z</time>
      </trkpt>
      <trkpt lat="41.77321" lon="9.02395">
        <ele>1032.877</ele>
        <time>2011-06-10T12:03:06Z</time>
      </trkpt>
      <trkpt lat="41.77332" lon="9.02402">
        <ele>1035.251</ele>
        <time>2011-06-10T12:03:19Z</time>
      </trkpt>
      <trkpt lat="41.7734" lon="9.02408">
        <ele>1038.259</ele>
        <time>2011-06-10T12:03:32Z</time>
      </trkpt>
      <trkpt lat="41.77347" lon="9.02413">
        <ele>1041.286</ele>
        <time>2011-06-10T12:03:43Z</time>
      </trkpt>
      <trkpt lat="41.77355" lon="9.02415">
        <ele>1043.64</ele>
        <time>2011-06-10T12:03:56Z</time>
      </trkpt>
      <trkpt lat="41.77363" lon="9.0242">
        <ele>1045.46</ele>
        <time>2011-06-10T12:04:10Z</time>
      </trkpt>
      <trkpt lat="41.77371" lon="9.02424">
        <ele>1047.822</ele>
        <time>2011-06-10T12:04:23Z</time>
      </trkpt>
      <trkpt lat="41.77369" lon="9.02433">
        <ele>1051.164</ele>
        <time>2011-06-10T12:04:37Z</time>
      </trkpt>
      <trkpt lat="41.7736" lon="9.02437">
        <ele>1054.133</ele>
        <time>2011-06-10T12:04:52Z</time>
      </trkpt>
      <trkpt lat="41.77355" lon="9.02444">
        <ele>1055.703</ele>
        <time>2011-06-10T12:05:03Z</time>
      </trkpt>
      <trkpt lat="41.77354" lon="9.02447">
        <ele>1056.066</ele>
        <time>2011-06-10T12:05:06Z</time>
      </trkpt>
      <trkpt lat="41.77345" lon="9.02456">
        <ele>1059.487</ele>
        <time>2011-06-10T12:05:20Z</time>
      </trkpt>
      <trkpt lat="41.77336" lon="9.02462">
        <ele>1059.931</ele>
        <time>2011-06-10T12:05:32Z</time>
      </trkpt>
      <trkpt lat="41.77334" lon="9.02462">
        <ele>1060.294</ele>
        <time>2011-06-10T12:05:34Z</time>
      </trkpt>
      <trkpt lat="41.77325" lon="9.02463">
        <ele>1060.716</ele>
        <time>2011-06-10T12:05:48Z</time>
      </trkpt>
      <trkpt lat="41.77325" lon="9.02465">
        <ele>1063.051</ele>
        <time>2011-06-10T12:06:03Z</time>
      </trkpt>
      <trkpt lat="41.77332" lon="9.02471">
        <ele>1066.135</ele>
        <time>2011-06-10T12:06:18Z</time>
      </trkpt>
      <trkpt lat="41.77334" lon="9.02475">
        <ele>1067.875</ele>
        <time>2011-06-10T12:06:33Z</time>
      </trkpt>
      <trkpt lat="41.7733" lon="9.02479">
        <ele>1068.988</ele>
        <time>2011-06-10T12:06:47Z</time>
      </trkpt>
      <trkpt lat="41.77329" lon="9.02481">
        <ele>1072.015</ele>
        <time>2011-06-10T12:06:59Z</time>
      </trkpt>
      <trkpt lat="41.77335" lon="9.02485">
        <ele>1074.299</ele>
        <time>2011-06-10T12:07:15Z</time>
      </trkpt>
      <trkpt lat="41.7733" lon="9.02489">
        <ele>1075.518</ele>
        <time>2011-06-10T12:07:30Z</time>
      </trkpt>
      <trkpt lat="41.77327" lon="9.02493">
        <ele>1078.601</ele>
        <time>2011-06-10T12:07:42Z</time>
      </trkpt>
      <trkpt lat="41.77326" lon="9.02491">
        <ele>1079.001</ele>
        <time>2011-06-10T12:08:01Z</time>
      </trkpt>
      <trkpt lat="41.77326" lon="9.02491">
        <ele>1079.465</ele>
        <time>2011-06-10T12:08:43Z</time>
      </trkpt>
      <trkpt lat="41.77326" lon="9.02491">
        <ele>1083.279</ele>
        <time>2011-06-10T12:08:45Z</time>
      </trkpt>
      <trkpt lat="41.77326" lon="9.02491">
        <ele>1079.329</ele>
        <time>2011-06-10T12:08:46Z</time>
      </trkpt>
      <trkpt lat="41.77327" lon="9.025">
        <ele>1082.427</ele>
        <time>2011-06-10T12:09:22Z</time>
      </trkpt>
      <trkpt lat="41.77326" lon="9.02505">
        <ele>1084.782</ele>
        <time>2011-06-10T12:09:35Z</time>
      </trkpt>
      <trkpt lat="41.77331" lon="9.02509">
        <ele>1086.498</ele>
        <time>2011-06-10T12:09:51Z</time>
      </trkpt>
      <trkpt lat="41.77335" lon="9.0251">
        <ele>1087.75</ele>
        <time>2011-06-10T12:10:04Z</time>
      </trkpt>
      <trkpt lat="41.77338" lon="9.02517">
        <ele>1091.043</ele>
        <time>2011-06-10T12:10:19Z</time>
      </trkpt>
      <trkpt lat="41.77339" lon="9.02517">
        <ele>1091.862</ele>
        <time>2011-06-10T12:10:21Z</time>
      </trkpt>
      <trkpt lat="41.77346" lon="9.02523">
        <ele>1092.654</ele>
        <time>2011-06-10T12:10:34Z</time>
      </trkpt>
      <trkpt lat="41.77351" lon="9.02528">
        <ele>1094.972</ele>
        <time>2011-06-10T12:10:48Z</time>
      </trkpt>
      <trkpt lat="41.77354" lon="9.02533">
        <ele>1097.474</ele>
        <time>2011-06-10T12:11:03Z</time>
      </trkpt>
      <trkpt lat="41.77356" lon="9.0254">
        <ele>1099.758</ele>
        <time>2011-06-10T12:11:17Z</time>
      </trkpt>
      <trkpt lat="41.77361" lon="9.02543">
        <ele>1101.687</ele>
        <time>2011-06-10T12:11:30Z</time>
      </trkpt>
      <trkpt lat="41.77362" lon="9.0255">
        <ele>1103.764</ele>
        <time>2011-06-10T12:11:43Z</time>
      </trkpt>
      <trkpt lat="41.7736" lon="9.02555">
        <ele>1105.329</ele>
        <time>2011-06-10T12:11:56Z</time>
      </trkpt>
      <trkpt lat="41.77362" lon="9.02559">
        <ele>1107.427</ele>
        <time>2011-06-10T12:12:08Z</time>
      </trkpt>
      <trkpt lat="41.77364" lon="9.02566">
        <ele>1110.047</ele>
        <time>2011-06-10T12:12:21Z</time>
      </trkpt>
      <trkpt lat="41.77368" lon="9.02566">
        <ele>1113.27</ele>
        <time>2011-06-10T12:12:32Z</time>
      </trkpt>
      <trkpt lat="41.7737" lon="9.0257">
        <ele>1116.307</ele>
        <time>2011-06-10T12:12:43Z</time>
      </trkpt>
      <trkpt lat="41.77364" lon="9.02579">
        <ele>1115.95</ele>
        <time>2011-06-10T12:12:55Z</time>
      </trkpt>
      <trkpt lat="41.77363" lon="9.02581">
        <ele>1117.435</ele>
        <time>2011-06-10T12:13:07Z</time>
      </trkpt>
      <trkpt lat="41.77363" lon="9.02589">
        <ele>1119.011</ele>
        <time>2011-06-10T12:13:28Z</time>
      </trkpt>
      <trkpt lat="41.77355" lon="9.02594">
        <ele>1120.931</ele>
        <time>2011-06-10T12:13:41Z</time>
      </trkpt>
      <trkpt lat="41.77356" lon="9.02594">
        <ele>1120.847</ele>
        <time>2011-06-10T12:14:16Z</time>
      </trkpt>
      <trkpt lat="41.77361" lon="9.02602">
        <ele>1123.557</ele>
        <time>2011-06-10T12:15:12Z</time>
      </trkpt>
      <trkpt lat="41.77357" lon="9.02608">
        <ele>1125.573</ele>
        <time>2011-06-10T12:15:25Z</time>
      </trkpt>
      <trkpt lat="41.77353" lon="9.02612">
        <ele>1126.301</ele>
        <time>2011-06-10T12:15:36Z</time>
      </trkpt>
      <trkpt lat="41.77352" lon="9.02615">
        <ele>1128.415</ele>
        <time>2011-06-10T12:15:47Z</time>
      </trkpt>
      <trkpt lat="41.77353" lon="9.02624">
        <ele>1130.199</ele>
        <time>2011-06-10T12:16:00Z</time>
      </trkpt>
      <trkpt lat="41.77354" lon="9.02625">
        <ele>1131.78</ele>
        <time>2011-06-10T12:16:03Z</time>
      </trkpt>
      <trkpt lat="41.77351" lon="9.0263">
        <ele>1133.167</ele>
        <time>2011-06-10T12:16:15Z</time>
      </trkpt>
      <trkpt lat="41.77345" lon="9.02631">
        <ele>1134.66</ele>
        <time>2011-06-10T12:16:26Z</time>
      </trkpt>
      <trkpt lat="41.7734" lon="9.02636">
        <ele>1137.344</ele>
        <time>2011-06-10T12:16:39Z</time>
      </trkpt>
      <trkpt lat="41.77339" lon="9.02637">
        <ele>1137.362</ele>
        <time>2011-06-10T12:16:44Z</time>
      </trkpt>
      <trkpt lat="41.77339" lon="9.02639">
        <ele>1139.093</ele>
        <time>2011-06-10T12:16:58Z</time>
      </trkpt>
      <trkpt lat="41.7734" lon="9.02645">
        <ele>1141.209</ele>
        <time>2011-06-10T12:17:38Z</time>
      </trkpt>
      <trkpt lat="41.77339" lon="9.02655">
        <ele>1143.377</ele>
        <time>2011-06-10T12:17:51Z</time>
      </trkpt>
      <trkpt lat="41.77337" lon="9.02661">
        <ele>1145.434</ele>
        <time>2011-06-10T12:18:04Z</time>
      </trkpt>
      <trkpt lat="41.77336" lon="9.02666">
        <ele>1147.327</ele>
        <time>2011-06-10T12:18:24Z</time>
      </trkpt>
      <trkpt lat="41.77333" lon="9.02672">
        <ele>1149.817</ele>
        <time>2011-06-10T12:18:36Z</time>
      </trkpt>
      <trkpt lat="41.77329" lon="9.02673">
        <ele>1150.463</ele>
        <time>2011-06-10T12:18:47Z</time>
      </trkpt>
      <trkpt lat="41.77319" lon="9.02675">
        <ele>1152.408</ele>
        <time>2011-06-10T12:19:01Z</time>
      </trkpt>
      <trkpt lat="41.77315" lon="9.02675">
        <ele>1153.81</ele>
        <time>2011-06-10T12:19:14Z</time>
      </trkpt>
      <trkpt lat="41.77314" lon="9.02674">
        <ele>1153.326</ele>
        <time>2011-06-10T12:19:46Z</time>
      </trkpt>
      <trkpt lat="41.77314" lon="9.02674">
        <ele>1153.154</ele>
        <time>2011-06-10T12:20:53Z</time>
      </trkpt>
      <trkpt lat="41.77311" lon="9.02682">
        <ele>1152.968</ele>
        <time>2011-06-10T12:22:01Z</time>
      </trkpt>
      <trkpt lat="41.77308" lon="9.02691">
        <ele>1155.248</ele>
        <time>2011-06-10T12:22:15Z</time>
      </trkpt>
      <trkpt lat="41.7731" lon="9.02698">
        <ele>1156.37</ele>
        <time>2011-06-10T12:22:37Z</time>
      </trkpt>
      <trkpt lat="41.77311" lon="9.02713">
        <ele>1157.498</ele>
        <time>2011-06-10T12:22:55Z</time>
      </trkpt>
      <trkpt lat="41.77312" lon="9.02715">
        <ele>1157.61</ele>
        <time>2011-06-10T12:22:58Z</time>
      </trkpt>
      <trkpt lat="41.77311" lon="9.02727">
        <ele>1159.586</ele>
        <time>2011-06-10T12:23:14Z</time>
      </trkpt>
      <trkpt lat="41.77306" lon="9.02733">
        <ele>1161.063</ele>
        <time>2011-06-10T12:23:28Z</time>
      </trkpt>
      <trkpt lat="41.77303" lon="9.02741">
        <ele>1161.769</ele>
        <time>2011-06-10T12:23:39Z</time>
      </trkpt>
      <trkpt lat="41.77307" lon="9.02748">
        <ele>1163.135</ele>
        <time>2011-06-10T12:23:51Z</time>
      </trkpt>
      <trkpt lat="41.77308" lon="9.02755">
        <ele>1165.743</ele>
        <time>2011-06-10T12:24:03Z</time>
      </trkpt>
      <trkpt lat="41.77306" lon="9.02763">
        <ele>1167.736</ele>
        <time>2011-06-10T12:24:15Z</time>
      </trkpt>
      <trkpt lat="41.77301" lon="9.0277">
        <ele>1169.36</ele>
        <time>2011-06-10T12:24:27Z</time>
      </trkpt>
      <trkpt lat="41.77299" lon="9.02775">
        <ele>1170.678</ele>
        <time>2011-06-10T12:24:39Z</time>
      </trkpt>
      <trkpt lat="41.77297" lon="9.02782">
        <ele>1172.56</ele>
        <time>2011-06-10T12:24:52Z</time>
      </trkpt>
      <trkpt lat="41.77293" lon="9.0279">
        <ele>1174.233</ele>
        <time>2011-06-10T12:25:04Z</time>
      </trkpt>
      <trkpt lat="41.77292" lon="9.02796">
        <ele>1175.942</ele>
        <time>2011-06-10T12:25:15Z</time>
      </trkpt>
      <trkpt lat="41.77288" lon="9.02806">
        <ele>1176.618</ele>
        <time>2011-06-10T12:25:31Z</time>
      </trkpt>
      <trkpt lat="41.77284" lon="9.02811">
        <ele>1176.707</ele>
        <time>2011-06-10T12:25:47Z</time>
      </trkpt>
      <trkpt lat="41.77284" lon="9.02811">
        <ele>1176.878</ele>
        <time>2011-06-10T12:26:09Z</time>
      </trkpt>
      <trkpt lat="41.77285" lon="9.02816">
        <ele>1177.017</ele>
        <time>2011-06-10T12:26:12Z</time>
      </trkpt>
      <trkpt lat="41.77285" lon="9.02822">
        <ele>1176.751</ele>
        <time>2011-06-10T12:26:16Z</time>
      </trkpt>
      <trkpt lat="41.77278" lon="9.02836">
        <ele>1177.638</ele>
        <time>2011-06-10T12:26:25Z</time>
      </trkpt>
      <trkpt lat="41.77277" lon="9.02845">
        <ele>1177.027</ele>
        <time>2011-06-10T12:26:30Z</time>
      </trkpt>
      <trkpt lat="41.77274" lon="9.02854">
        <ele>1176.962</ele>
        <time>2011-06-10T12:26:44Z</time>
      </trkpt>
      <trkpt lat="41.77264" lon="9.02874">
        <ele>1175.738</ele>
        <time>2011-06-10T12:26:59Z</time>
      </trkpt>
      <trkpt lat="41.77252" lon="9.02888">
        <ele>1174.812</ele>
        <time>2011-06-10T12:27:12Z</time>
      </trkpt>
      <trkpt lat="41.77244" lon="9.02898">
        <ele>1173.942</ele>
        <time>2011-06-10T12:27:22Z</time>
      </trkpt>
      <trkpt lat="41.77244" lon="9.02899">
        <ele>1169.449</ele>
        <time>2011-06-10T12:27:39Z</time>
      </trkpt>
      <trkpt lat="41.77244" lon="9.02899">
        <ele>1171.236</ele>
        <time>2011-06-10T12:27:40Z</time>
      </trkpt>
      <trkpt lat="41.77244" lon="9.02899">
        <ele>1174.536</ele>
        <time>2011-06-10T12:27:41Z</time>
      </trkpt>
      <trkpt lat="41.77244" lon="9.02899">
        <ele>1174.136</ele>
        <time>2011-06-10T12:27:42Z</time>
      </trkpt>
      <trkpt lat="41.77251" lon="9.02906">
        <ele>1174.396</ele>
        <time>2011-06-10T12:28:40Z</time>
      </trkpt>
      <trkpt lat="41.77254" lon="9.02906">
        <ele>1174.291</ele>
        <time>2011-06-10T12:28:44Z</time>
      </trkpt>
      <trkpt lat="41.77264" lon="9.029">
        <ele>1175.318</ele>
        <time>2011-06-10T12:28:56Z</time>
      </trkpt>
      <trkpt lat="41.77267" lon="9.02898">
        <ele>1174.674</ele>
        <time>2011-06-10T12:28:59Z</time>
      </trkpt>
      <trkpt lat="41.77282" lon="9.02896">
        <ele>1174.761</ele>
        <time>2011-06-10T12:29:13Z</time>
      </trkpt>
      <trkpt lat="41.7729" lon="9.02892">
        <ele>1174.498</ele>
        <time>2011-06-10T12:29:24Z</time>
      </trkpt>
      <trkpt lat="41.77292" lon="9.02892">
        <ele>1175.005</ele>
        <time>2011-06-10T12:29:28Z</time>
      </trkpt>
      <trkpt lat="41.773" lon="9.02902">
        <ele>1174.271</ele>
        <time>2011-06-10T12:29:35Z</time>
      </trkpt>
      <trkpt lat="41.77311" lon="9.02914">
        <ele>1174.849</ele>
        <time>2011-06-10T12:29:49Z</time>
      </trkpt>
      <trkpt lat="41.77311" lon="9.02914">
        <ele>1173.981</ele>
        <time>2011-06-10T12:29:52Z</time>
      </trkpt>
      <trkpt lat="41.7732" lon="9.02915">
        <ele>1171.772</ele>
        <time>2011-06-10T12:29:57Z</time>
      </trkpt>
      <trkpt lat="41.77327" lon="9.02912">
        <ele>1171.045</ele>
        <time>2011-06-10T12:30:00Z</time>
      </trkpt>
      <trkpt lat="41.77332" lon="9.02913">
        <ele>1171.749</ele>
        <time>2011-06-10T12:30:04Z</time>
      </trkpt>
      <trkpt lat="41.77335" lon="9.02912">
        <ele>1171.542</ele>
        <time>2011-06-10T12:30:15Z</time>
      </trkpt>
      <trkpt lat="41.77342" lon="9.02924">
        <ele>1169.88</ele>
        <time>2011-06-10T12:30:21Z</time>
      </trkpt>
      <trkpt lat="41.77366" lon="9.02942">
        <ele>1167.95</ele>
        <time>2011-06-10T12:30:32Z</time>
      </trkpt>
      <trkpt lat="41.77379" lon="9.0295">
        <ele>1166.564</ele>
        <time>2011-06-10T12:30:43Z</time>
      </trkpt>
      <trkpt lat="41.77387" lon="9.02951">
        <ele>1166.762</ele>
        <time>2011-06-10T12:30:54Z</time>
      </trkpt>
      <trkpt lat="41.77391" lon="9.02951">
        <ele>1167.417</ele>
        <time>2011-06-10T12:30:58Z</time>
      </trkpt>
      <trkpt lat="41.7741" lon="9.02944">
        <ele>1164.592</ele>
        <time>2011-06-10T12:31:10Z</time>
      </trkpt>
      <trkpt lat="41.77439" lon="9.02943">
        <ele>1165.011</ele>
        <time>2011-06-10T12:31:22Z</time>
      </trkpt>
      <trkpt lat="41.77441" lon="9.02943">
        <ele>1165.422</ele>
        <time>2011-06-10T12:31:23Z</time>
      </trkpt>
      <trkpt lat="41.77451" lon="9.02948">
        <ele>1165.223</ele>
        <time>2011-06-10T12:31:28Z</time>
      </trkpt>
      <trkpt lat="41.77454" lon="9.0295">
        <ele>1164.544</ele>
        <time>2011-06-10T12:31:43Z</time>
      </trkpt>
      <trkpt lat="41.77461" lon="9.02955">
        <ele>1165.805</ele>
        <time>2011-06-10T12:32:54Z</time>
      </trkpt>
      <trkpt lat="41.7746" lon="9.02956">
        <ele>1165.984</ele>
        <time>2011-06-10T12:32:58Z</time>
      </trkpt>
      <trkpt lat="41.77468" lon="9.02955">
        <ele>1165.751</ele>
        <time>2011-06-10T12:33:02Z</time>
      </trkpt>
      <trkpt lat="41.77476" lon="9.02955">
        <ele>1163.469</ele>
        <time>2011-06-10T12:33:06Z</time>
      </trkpt>
      <trkpt lat="41.77485" lon="9.02958">
        <ele>1164.504</ele>
        <time>2011-06-10T12:33:10Z</time>
      </trkpt>
      <trkpt lat="41.77488" lon="9.02961">
        <ele>1165.076</ele>
        <time>2011-06-10T12:33:14Z</time>
      </trkpt>
      <trkpt lat="41.77502" lon="9.02971">
        <ele>1164.494</ele>
        <time>2011-06-10T12:33:25Z</time>
      </trkpt>
      <trkpt lat="41.77503" lon="9.02972">
        <ele>1164.336</ele>
        <time>2011-06-10T12:33:26Z</time>
      </trkpt>
      <trkpt lat="41.77509" lon="9.02976">
        <ele>1165.864</ele>
        <time>2011-06-10T12:33:37Z</time>
      </trkpt>
      <trkpt lat="41.7751" lon="9.02976">
        <ele>1166.015</ele>
        <time>2011-06-10T12:33:39Z</time>
      </trkpt>
      <trkpt lat="41.77514" lon="9.0298">
        <ele>1165.832</ele>
        <time>2011-06-10T12:33:44Z</time>
      </trkpt>
      <trkpt lat="41.77519" lon="9.02982">
        <ele>1166.543</ele>
        <time>2011-06-10T12:33:59Z</time>
      </trkpt>
      <trkpt lat="41.77535" lon="9.0299">
        <ele>1166.621</ele>
        <time>2011-06-10T12:34:13Z</time>
      </trkpt>
      <trkpt lat="41.77557" lon="9.03001">
        <ele>1168.451</ele>
        <time>2011-06-10T12:34:24Z</time>
      </trkpt>
      <trkpt lat="41.77562" lon="9.03002">
        <ele>1168.718</ele>
        <time>2011-06-10T12:34:36Z</time>
      </trkpt>
      <trkpt lat="41.77573" lon="9.03004">
        <ele>1167.52</ele>
        <time>2011-06-10T12:34:44Z</time>
      </trkpt>
      <trkpt lat="41.77579" lon="9.03005">
        <ele>1168.081</ele>
        <time>2011-06-10T12:34:57Z</time>
      </trkpt>
      <trkpt lat="41.77595" lon="9.03005">
        <ele>1166.262</ele>
        <time>2011-06-10T12:35:08Z</time>
      </trkpt>
      <trkpt lat="41.77616" lon="9.03003">
        <ele>1165.615</ele>
        <time>2011-06-10T12:35:18Z</time>
      </trkpt>
      <trkpt lat="41.77643" lon="9.02993">
        <ele>1167.67</ele>
        <time>2011-06-10T12:35:29Z</time>
      </trkpt>
      <trkpt lat="41.77649" lon="9.02994">
        <ele>1170.028</ele>
        <time>2011-06-10T12:35:36Z</time>
      </trkpt>
      <trkpt lat="41.77659" lon="9.02996">
        <ele>1171.783</ele>
        <time>2011-06-10T12:35:50Z</time>
      </trkpt>
      <trkpt lat="41.77663" lon="9.02998">
        <ele>1172.322</ele>
        <time>2011-06-10T12:35:55Z</time>
      </trkpt>
      <trkpt lat="41.77669" lon="9.03003">
        <ele>1172.322</ele>
        <time>2011-06-10T12:35:59Z</time>
      </trkpt>
      <trkpt lat="41.77681" lon="9.03007">
        <ele>1174.281</ele>
        <time>2011-06-10T12:36:05Z</time>
      </trkpt>
      <trkpt lat="41.77683" lon="9.03008">
        <ele>1173.529</ele>
        <time>2011-06-10T12:36:25Z</time>
      </trkpt>
      <trkpt lat="41.77683" lon="9.03008">
        <ele>1177.481</ele>
        <time>2011-06-10T12:36:56Z</time>
      </trkpt>
      <trkpt lat="41.77683" lon="9.03008">
        <ele>1175.334</ele>
        <time>2011-06-10T12:36:57Z</time>
      </trkpt>
      <trkpt lat="41.77683" lon="9.03008">
        <ele>1174.495</ele>
        <time>2011-06-10T12:37:05Z</time>
      </trkpt>
      <trkpt lat="41.77675" lon="9.03012">
        <ele>1176.098</ele>
        <time>2011-06-10T12:37:18Z</time>
      </trkpt>
      <trkpt lat="41.77672" lon="9.03013">
        <ele>1176.551</ele>
        <time>2011-06-10T12:37:20Z</time>
      </trkpt>
      <trkpt lat="41.77665" lon="9.03017">
        <ele>1177.528</ele>
        <time>2011-06-10T12:37:32Z</time>
      </trkpt>
      <trkpt lat="41.77667" lon="9.03017">
        <ele>1175.575</ele>
        <time>2011-06-10T12:37:46Z</time>
      </trkpt>
      <trkpt lat="41.77668" lon="9.03016">
        <ele>1176.042</ele>
        <time>2011-06-10T12:37:47Z</time>
      </trkpt>
      <trkpt lat="41.77676" lon="9.03015">
        <ele>1175.298</ele>
        <time>2011-06-10T12:37:51Z</time>
      </trkpt>
      <trkpt lat="41.77683" lon="9.03018">
        <ele>1173.663</ele>
        <time>2011-06-10T12:37:54Z</time>
      </trkpt>
      <trkpt lat="41.77704" lon="9.03039">
        <ele>1173.246</ele>
        <time>2011-06-10T12:38:05Z</time>
      </trkpt>
      <trkpt lat="41.77709" lon="9.03047">
        <ele>1172.679</ele>
        <time>2011-06-10T12:38:07Z</time>
      </trkpt>
      <trkpt lat="41.77718" lon="9.03059">
        <ele>1170.823</ele>
        <time>2011-06-10T12:38:10Z</time>
      </trkpt>
      <trkpt lat="41.77732" lon="9.03079">
        <ele>1172.764</ele>
        <time>2011-06-10T12:38:17Z</time>
      </trkpt>
      <trkpt lat="41.77745" lon="9.03096">
        <ele>1171.206</ele>
        <time>2011-06-10T12:38:24Z</time>
      </trkpt>
      <trkpt lat="41.7776" lon="9.03114">
        <ele>1172.194</ele>
        <time>2011-06-10T12:38:32Z</time>
      </trkpt>
      <trkpt lat="41.7776" lon="9.03114">
        <ele>1172.51</ele>
        <time>2011-06-10T12:38:41Z</time>
      </trkpt>
      <trkpt lat="41.7777" lon="9.0313">
        <ele>1172.975</ele>
        <time>2011-06-10T12:38:54Z</time>
      </trkpt>
      <trkpt lat="41.7777" lon="9.03133">
        <ele>1173.757</ele>
        <time>2011-06-10T12:39:01Z</time>
      </trkpt>
      <trkpt lat="41.7777" lon="9.03133">
        <ele>1172.713</ele>
        <time>2011-06-10T12:39:13Z</time>
      </trkpt>
      <trkpt lat="41.77791" lon="9.03151">
        <ele>1173.409</ele>
        <time>2011-06-10T12:39:31Z</time>
      </trkpt>
      <trkpt lat="41.77799" lon="9.0316">
        <ele>1174.777</ele>
        <time>2011-06-10T12:39:39Z</time>
      </trkpt>
      <trkpt lat="41.77805" lon="9.03166">
        <ele>1175.548</ele>
        <time>2011-06-10T12:39:50Z</time>
      </trkpt>
      <trkpt lat="41.77828" lon="9.03183">
        <ele>1175.347</ele>
        <time>2011-06-10T12:40:01Z</time>
      </trkpt>
      <trkpt lat="41.77849" lon="9.032">
        <ele>1176.426</ele>
        <time>2011-06-10T12:40:12Z</time>
      </trkpt>
      <trkpt lat="41.77863" lon="9.03212">
        <ele>1179.16</ele>
        <time>2011-06-10T12:41:36Z</time>
      </trkpt>
      <trkpt lat="41.77883" lon="9.03239">
        <ele>1179.438</ele>
        <time>2011-06-10T12:41:48Z</time>
      </trkpt>
      <trkpt lat="41.77897" lon="9.03266">
        <ele>1182.064</ele>
        <time>2011-06-10T12:41:58Z</time>
      </trkpt>
      <trkpt lat="41.77897" lon="9.03266">
        <ele>1183.629</ele>
        <time>2011-06-10T12:42:10Z</time>
      </trkpt>
      <trkpt lat="41.77897" lon="9.03266">
        <ele>1184.36</ele>
        <time>2011-06-10T12:42:16Z</time>
      </trkpt>
      <trkpt lat="41.77907" lon="9.03279">
        <ele>1186.985</ele>
        <time>2011-06-10T12:42:31Z</time>
      </trkpt>
      <trkpt lat="41.77907" lon="9.03279">
        <ele>1187.883</ele>
        <time>2011-06-10T12:42:43Z</time>
      </trkpt>
      <trkpt lat="41.7792" lon="9.03297">
        <ele>1188.2</ele>
        <time>2011-06-10T12:42:45Z</time>
      </trkpt>
      <trkpt lat="41.77925" lon="9.03306">
        <ele>1190.868</ele>
        <time>2011-06-10T12:42:59Z</time>
      </trkpt>
      <trkpt lat="41.77925" lon="9.03306">
        <ele>1191.655</ele>
        <time>2011-06-10T12:43:14Z</time>
      </trkpt>
      <trkpt lat="41.77925" lon="9.03306">
        <ele>1191.266</ele>
        <time>2011-06-10T12:43:31Z</time>
      </trkpt>
      <trkpt lat="41.77925" lon="9.03306">
        <ele>1191.813</ele>
        <time>2011-06-10T12:44:49Z</time>
      </trkpt>
      <trkpt lat="41.77925" lon="9.03306">
        <ele>1193.401</ele>
        <time>2011-06-10T12:46:16Z</time>
      </trkpt>
      <trkpt lat="41.77925" lon="9.03306">
        <ele>1194.596</ele>
        <time>2011-06-10T12:46:30Z</time>
      </trkpt>
      <trkpt lat="41.77953" lon="9.03346">
        <ele>1196.355</ele>
        <time>2011-06-10T12:46:39Z</time>
      </trkpt>
      <trkpt lat="41.77953" lon="9.03346">
        <ele>1196.496</ele>
        <time>2011-06-10T12:46:41Z</time>
      </trkpt>
      <trkpt lat="41.77965" lon="9.03355">
        <ele>1197.896</ele>
        <time>2011-06-10T12:46:49Z</time>
      </trkpt>
      <trkpt lat="41.77965" lon="9.03355">
        <ele>1199.318</ele>
        <time>2011-06-10T12:46:59Z</time>
      </trkpt>
      <trkpt lat="41.77965" lon="9.03355">
        <ele>1200.603</ele>
        <time>2011-06-10T12:47:10Z</time>
      </trkpt>
      <trkpt lat="41.77983" lon="9.03359">
        <ele>1199.679</ele>
        <time>2011-06-10T12:47:21Z</time>
      </trkpt>
      <trkpt lat="41.78007" lon="9.03364">
        <ele>1199.382</ele>
        <time>2011-06-10T12:47:33Z</time>
      </trkpt>
      <trkpt lat="41.78007" lon="9.03364">
        <ele>1201.235</ele>
        <time>2011-06-10T12:47:45Z</time>
      </trkpt>
      <trkpt lat="41.78007" lon="9.03364">
        <ele>1202.051</ele>
        <time>2011-06-10T12:47:57Z</time>
      </trkpt>
      <trkpt lat="41.78028" lon="9.03357">
        <ele>1201.924</ele>
        <time>2011-06-10T12:48:22Z</time>
      </trkpt>
      <trkpt lat="41.78028" lon="9.03357">
        <ele>1203.179</ele>
        <time>2011-06-10T12:48:38Z</time>
      </trkpt>
      <trkpt lat="41.78041" lon="9.03354">
        <ele>1202.914</ele>
        <time>2011-06-10T12:48:50Z</time>
      </trkpt>
      <trkpt lat="41.78053" lon="9.0335">
        <ele>1203.545</ele>
        <time>2011-06-10T12:48:59Z</time>
      </trkpt>
      <trkpt lat="41.78073" lon="9.03343">
        <ele>1203.439</ele>
        <time>2011-06-10T12:49:11Z</time>
      </trkpt>
      <trkpt lat="41.78082" lon="9.0334">
        <ele>1204.707</ele>
        <time>2011-06-10T12:49:22Z</time>
      </trkpt>
      <trkpt lat="41.78082" lon="9.0334">
        <ele>1205.757</ele>
        <time>2011-06-10T12:49:34Z</time>
      </trkpt>
      <trkpt lat="41.78082" lon="9.0334">
        <ele>1205.742</ele>
        <time>2011-06-10T12:49:36Z</time>
      </trkpt>
      <trkpt lat="41.78112" lon="9.03326">
        <ele>1206.867</ele>
        <time>2011-06-10T12:49:46Z</time>
      </trkpt>
      <trkpt lat="41.78121" lon="9.03323">
        <ele>1208.383</ele>
        <time>2011-06-10T12:49:50Z</time>
      </trkpt>
      <trkpt lat="41.78134" lon="9.03323">
        <ele>1211.013</ele>
        <time>2011-06-10T12:50:04Z</time>
      </trkpt>
      <trkpt lat="41.78134" lon="9.03323">
        <ele>1212.263</ele>
        <time>2011-06-10T12:50:16Z</time>
      </trkpt>
      <trkpt lat="41.78161" lon="9.03319">
        <ele>1213.76</ele>
        <time>2011-06-10T12:50:25Z</time>
      </trkpt>
      <trkpt lat="41.78163" lon="9.03318">
        <ele>1214.216</ele>
        <time>2011-06-10T12:50:28Z</time>
      </trkpt>
      <trkpt lat="41.78163" lon="9.03318">
        <ele>1215.094</ele>
        <time>2011-06-10T12:50:44Z</time>
      </trkpt>
      <trkpt lat="41.78169" lon="9.03317">
        <ele>1216.167</ele>
        <time>2011-06-10T12:51:47Z</time>
      </trkpt>
      <trkpt lat="41.78198" lon="9.03321">
        <ele>1218.205</ele>
        <time>2011-06-10T12:51:59Z</time>
      </trkpt>
      <trkpt lat="41.7821" lon="9.03326">
        <ele>1218.877</ele>
        <time>2011-06-10T12:52:08Z</time>
      </trkpt>
      <trkpt lat="41.78229" lon="9.03329">
        <ele>1218.947</ele>
        <time>2011-06-10T12:52:16Z</time>
      </trkpt>
      <trkpt lat="41.78232" lon="9.03329">
        <ele>1219.907</ele>
        <time>2011-06-10T12:52:30Z</time>
      </trkpt>
      <trkpt lat="41.78232" lon="9.03329">
        <ele>1219.916</ele>
        <time>2011-06-10T12:55:15Z</time>
      </trkpt>
      <trkpt lat="41.78231" lon="9.03329">
        <ele>1221.091</ele>
        <time>2011-06-10T12:55:21Z</time>
      </trkpt>
      <trkpt lat="41.78234" lon="9.03326">
        <ele>1222.069</ele>
        <time>2011-06-10T12:55:33Z</time>
      </trkpt>
      <trkpt lat="41.78257" lon="9.03355">
        <ele>1222.56</ele>
        <time>2011-06-10T12:55:45Z</time>
      </trkpt>
      <trkpt lat="41.78282" lon="9.03385">
        <ele>1222.44</ele>
        <time>2011-06-10T12:55:57Z</time>
      </trkpt>
      <trkpt lat="41.78297" lon="9.03397">
        <ele>1224.236</ele>
        <time>2011-06-10T12:56:06Z</time>
      </trkpt>
      <trkpt lat="41.78307" lon="9.03405">
        <ele>1223.27</ele>
        <time>2011-06-10T12:56:16Z</time>
      </trkpt>
      <trkpt lat="41.78331" lon="9.03432">
        <ele>1224.735</ele>
        <time>2011-06-10T12:56:28Z</time>
      </trkpt>
      <trkpt lat="41.78353" lon="9.03455">
        <ele>1224.57</ele>
        <time>2011-06-10T12:56:39Z</time>
      </trkpt>
      <trkpt lat="41.78356" lon="9.03459">
        <ele>1224.408</ele>
        <time>2011-06-10T12:56:41Z</time>
      </trkpt>
      <trkpt lat="41.78381" lon="9.03475">
        <ele>1226.825</ele>
        <time>2011-06-10T12:56:52Z</time>
      </trkpt>
      <trkpt lat="41.78386" lon="9.03481">
        <ele>1231.188</ele>
        <time>2011-06-10T12:57:11Z</time>
      </trkpt>
      <trkpt lat="41.78386" lon="9.03481">
        <ele>1228.818</ele>
        <time>2011-06-10T12:57:12Z</time>
      </trkpt>
      <trkpt lat="41.78396" lon="9.03489">
        <ele>1228.228</ele>
        <time>2011-06-10T12:57:18Z</time>
      </trkpt>
      <trkpt lat="41.78406" lon="9.03496">
        <ele>1229.935</ele>
        <time>2011-06-10T12:57:28Z</time>
      </trkpt>
      <trkpt lat="41.78411" lon="9.03498">
        <ele>1230.818</ele>
        <time>2011-06-10T12:57:44Z</time>
      </trkpt>
      <trkpt lat="41.78411" lon="9.03498">
        <ele>1230.823</ele>
        <time>2011-06-10T12:58:06Z</time>
      </trkpt>
      <trkpt lat="41.78418" lon="9.03502">
        <ele>1232.594</ele>
        <time>2011-06-10T12:58:18Z</time>
      </trkpt>
      <trkpt lat="41.78425" lon="9.03505">
        <ele>1234.467</ele>
        <time>2011-06-10T12:58:29Z</time>
      </trkpt>
      <trkpt lat="41.78434" lon="9.03511">
        <ele>1236.04</ele>
        <time>2011-06-10T12:58:44Z</time>
      </trkpt>
      <trkpt lat="41.78438" lon="9.03511">
        <ele>1236.633</ele>
        <time>2011-06-10T12:58:49Z</time>
      </trkpt>
      <trkpt lat="41.7845" lon="9.03515">
        <ele>1238.071</ele>
        <time>2011-06-10T12:59:03Z</time>
      </trkpt>
      <trkpt lat="41.78455" lon="9.03519">
        <ele>1239.045</ele>
        <time>2011-06-10T12:59:10Z</time>
      </trkpt>
      <trkpt lat="41.78467" lon="9.03515">
        <ele>1240.807</ele>
        <time>2011-06-10T12:59:24Z</time>
      </trkpt>
      <trkpt lat="41.78476" lon="9.03522">
        <ele>1242.72</ele>
        <time>2011-06-10T12:59:39Z</time>
      </trkpt>
      <trkpt lat="41.78478" lon="9.03522">
        <ele>1243.65</ele>
        <time>2011-06-10T12:59:42Z</time>
      </trkpt>
      <trkpt lat="41.78488" lon="9.03534">
        <ele>1246.228</ele>
        <time>2011-06-10T12:59:58Z</time>
      </trkpt>
      <trkpt lat="41.7849" lon="9.03536">
        <ele>1246.351</ele>
        <time>2011-06-10T13:00:09Z</time>
      </trkpt>
      <trkpt lat="41.78499" lon="9.03543">
        <ele>1246.988</ele>
        <time>2011-06-10T13:00:15Z</time>
      </trkpt>
      <trkpt lat="41.78517" lon="9.03569">
        <ele>1250.581</ele>
        <time>2011-06-10T13:00:25Z</time>
      </trkpt>
      <trkpt lat="41.78527" lon="9.03584">
        <ele>1253.956</ele>
        <time>2011-06-10T13:00:33Z</time>
      </trkpt>
      <trkpt lat="41.78528" lon="9.03585">
        <ele>1253.679</ele>
        <time>2011-06-10T13:00:36Z</time>
      </trkpt>
      <trkpt lat="41.78533" lon="9.03588">
        <ele>1255.804</ele>
        <time>2011-06-10T13:00:45Z</time>
      </trkpt>
      <trkpt lat="41.78537" lon="9.03594">
        <ele>1257.208</ele>
        <time>2011-06-10T13:00:59Z</time>
      </trkpt>
      <trkpt lat="41.78539" lon="9.03598">
        <ele>1258.123</ele>
        <time>2011-06-10T13:01:13Z</time>
      </trkpt>
      <trkpt lat="41.78539" lon="9.03598">
        <ele>1257.962</ele>
        <time>2011-06-10T13:01:55Z</time>
      </trkpt>
      <trkpt lat="41.78541" lon="9.03602">
        <ele>1257.876</ele>
        <time>2011-06-10T13:02:28Z</time>
      </trkpt>
      <trkpt lat="41.78537" lon="9.0363">
        <ele>1259.877</ele>
        <time>2011-06-10T13:02:41Z</time>
      </trkpt>
      <trkpt lat="41.78534" lon="9.03639">
        <ele>1259.77</ele>
        <time>2011-06-10T13:02:45Z</time>
      </trkpt>
      <trkpt lat="41.78523" lon="9.03684">
        <ele>1259.764</ele>
        <time>2011-06-10T13:02:58Z</time>
      </trkpt>
      <trkpt lat="41.78515" lon="9.03722">
        <ele>1260.779</ele>
        <time>2011-06-10T13:03:08Z</time>
      </trkpt>
      <trkpt lat="41.78503" lon="9.03745">
        <ele>1264.174</ele>
        <time>2011-06-10T13:03:17Z</time>
      </trkpt>
      <trkpt lat="41.785" lon="9.03753">
        <ele>1264.786</ele>
        <time>2011-06-10T13:03:27Z</time>
      </trkpt>
      <trkpt lat="41.78496" lon="9.03766">
        <ele>1266.145</ele>
        <time>2011-06-10T13:03:50Z</time>
      </trkpt>
      <trkpt lat="41.78488" lon="9.03782">
        <ele>1267.05</ele>
        <time>2011-06-10T13:04:02Z</time>
      </trkpt>
      <trkpt lat="41.78481" lon="9.03789">
        <ele>1267.345</ele>
        <time>2011-06-10T13:04:07Z</time>
      </trkpt>
      <trkpt lat="41.78453" lon="9.03811">
        <ele>1267.775</ele>
        <time>2011-06-10T13:04:22Z</time>
      </trkpt>
      <trkpt lat="41.78441" lon="9.03824">
        <ele>1266.064</ele>
        <time>2011-06-10T13:04:26Z</time>
      </trkpt>
      <trkpt lat="41.78419" lon="9.03842">
        <ele>1265.16</ele>
        <time>2011-06-10T13:04:32Z</time>
      </trkpt>
      <trkpt lat="41.78383" lon="9.03859">
        <ele>1267.717</ele>
        <time>2011-06-10T13:04:43Z</time>
      </trkpt>
      <trkpt lat="41.78371" lon="9.03879">
        <ele>1268.771</ele>
        <time>2011-06-10T13:04:49Z</time>
      </trkpt>
      <trkpt lat="41.78369" lon="9.03883">
        <ele>1268.766</ele>
        <time>2011-06-10T13:04:51Z</time>
      </trkpt>
      <trkpt lat="41.78377" lon="9.03899">
        <ele>1266.512</ele>
        <time>2011-06-10T13:04:56Z</time>
      </trkpt>
      <trkpt lat="41.78396" lon="9.03924">
        <ele>1266.504</ele>
        <time>2011-06-10T13:05:07Z</time>
      </trkpt>
      <trkpt lat="41.78398" lon="9.03927">
        <ele>1266.66</ele>
        <time>2011-06-10T13:05:18Z</time>
      </trkpt>
      <trkpt lat="41.78397" lon="9.03926">
        <ele>1267.704</ele>
        <time>2011-06-10T13:05:35Z</time>
      </trkpt>
      <trkpt lat="41.78385" lon="9.03904">
        <ele>1268.852</ele>
        <time>2011-06-10T13:05:46Z</time>
      </trkpt>
      <trkpt lat="41.7838" lon="9.039">
        <ele>1267.748</ele>
        <time>2011-06-10T13:05:48Z</time>
      </trkpt>
      <trkpt lat="41.78373" lon="9.03889">
        <ele>1267.911</ele>
        <time>2011-06-10T13:05:58Z</time>
      </trkpt>
      <trkpt lat="41.78368" lon="9.03887">
        <ele>1268.7</ele>
        <time>2011-06-10T13:06:11Z</time>
      </trkpt>
      <trkpt lat="41.78366" lon="9.03896">
        <ele>1269.373</ele>
        <time>2011-06-10T13:06:24Z</time>
      </trkpt>
      <trkpt lat="41.78361" lon="9.03903">
        <ele>1271.171</ele>
        <time>2011-06-10T13:06:38Z</time>
      </trkpt>
      <trkpt lat="41.78361" lon="9.03902">
        <ele>1271.53</ele>
        <time>2011-06-10T13:06:43Z</time>
      </trkpt>
      <trkpt lat="41.78365" lon="9.03909">
        <ele>1271.967</ele>
        <time>2011-06-10T13:06:49Z</time>
      </trkpt>
      <trkpt lat="41.78364" lon="9.03913">
        <ele>1272.852</ele>
        <time>2011-06-10T13:06:53Z</time>
      </trkpt>
      <trkpt lat="41.78359" lon="9.0392">
        <ele>1275.129</ele>
        <time>2011-06-10T13:07:02Z</time>
      </trkpt>
      <trkpt lat="41.78355" lon="9.03936">
        <ele>1276.411</ele>
        <time>2011-06-10T13:07:15Z</time>
      </trkpt>
      <trkpt lat="41.78342" lon="9.03954">
        <ele>1279.127</ele>
        <time>2011-06-10T13:07:22Z</time>
      </trkpt>
      <trkpt lat="41.78335" lon="9.03968">
        <ele>1282.778</ele>
        <time>2011-06-10T13:07:27Z</time>
      </trkpt>
      <trkpt lat="41.78325" lon="9.03985">
        <ele>1285.236</ele>
        <time>2011-06-10T13:07:37Z</time>
      </trkpt>
      <trkpt lat="41.7832" lon="9.03996">
        <ele>1286.599</ele>
        <time>2011-06-10T13:08:19Z</time>
      </trkpt>
      <trkpt lat="41.7832" lon="9.04015">
        <ele>1286.056</ele>
        <time>2011-06-10T13:08:22Z</time>
      </trkpt>
      <trkpt lat="41.78324" lon="9.04048">
        <ele>1283.011</ele>
        <time>2011-06-10T13:08:26Z</time>
      </trkpt>
      <trkpt lat="41.78337" lon="9.0407">
        <ele>1280.731</ele>
        <time>2011-06-10T13:08:31Z</time>
      </trkpt>
      <trkpt lat="41.78354" lon="9.04088">
        <ele>1284.166</ele>
        <time>2011-06-10T13:08:37Z</time>
      </trkpt>
      <trkpt lat="41.78359" lon="9.04092">
        <ele>1284.97</ele>
        <time>2011-06-10T13:08:39Z</time>
      </trkpt>
      <trkpt lat="41.78387" lon="9.04115">
        <ele>1286.43</ele>
        <time>2011-06-10T13:08:52Z</time>
      </trkpt>
      <trkpt lat="41.78409" lon="9.04129">
        <ele>1288.696</ele>
        <time>2011-06-10T13:09:04Z</time>
      </trkpt>
      <trkpt lat="41.78409" lon="9.04129">
        <ele>1290.765</ele>
        <time>2011-06-10T13:09:23Z</time>
      </trkpt>
      <trkpt lat="41.78424" lon="9.04146">
        <ele>1291.615</ele>
        <time>2011-06-10T13:10:22Z</time>
      </trkpt>
      <trkpt lat="41.78427" lon="9.04177">
        <ele>1290.134</ele>
        <time>2011-06-10T13:10:30Z</time>
      </trkpt>
      <trkpt lat="41.78429" lon="9.04196">
        <ele>1290.604</ele>
        <time>2011-06-10T13:10:33Z</time>
      </trkpt>
      <trkpt lat="41.78431" lon="9.04213">
        <ele>1289.759</ele>
        <time>2011-06-10T13:10:36Z</time>
      </trkpt>
      <trkpt lat="41.78443" lon="9.04229">
        <ele>1288.781</ele>
        <time>2011-06-10T13:10:42Z</time>
      </trkpt>
      <trkpt lat="41.78455" lon="9.04261">
        <ele>1287.819</ele>
        <time>2011-06-10T13:10:52Z</time>
      </trkpt>
      <trkpt lat="41.78451" lon="9.04275">
        <ele>1286.96</ele>
        <time>2011-06-10T13:10:55Z</time>
      </trkpt>
      <trkpt lat="41.78449" lon="9.04296">
        <ele>1286.909</ele>
        <time>2011-06-10T13:10:59Z</time>
      </trkpt>
      <trkpt lat="41.78446" lon="9.04337">
        <ele>1288.005</ele>
        <time>2011-06-10T13:11:11Z</time>
      </trkpt>
      <trkpt lat="41.78446" lon="9.04337">
        <ele>1288.76</ele>
        <time>2011-06-10T13:11:19Z</time>
      </trkpt>
      <trkpt lat="41.78445" lon="9.04346">
        <ele>1289.379</ele>
        <time>2011-06-10T13:11:30Z</time>
      </trkpt>
      <trkpt lat="41.78445" lon="9.04346">
        <ele>1290.319</ele>
        <time>2011-06-10T13:11:43Z</time>
      </trkpt>
      <trkpt lat="41.78445" lon="9.04346">
        <ele>1292.751</ele>
        <time>2011-06-10T13:11:56Z</time>
      </trkpt>
      <trkpt lat="41.78445" lon="9.04346">
        <ele>1293.019</ele>
        <time>2011-06-10T13:12:01Z</time>
      </trkpt>
      <trkpt lat="41.78445" lon="9.04346">
        <ele>1294.057</ele>
        <time>2011-06-10T13:12:12Z</time>
      </trkpt>
      <trkpt lat="41.78445" lon="9.04346">
        <ele>1294.935</ele>
        <time>2011-06-10T13:12:27Z</time>
      </trkpt>
      <trkpt lat="41.78445" lon="9.04346">
        <ele>1294.801</ele>
        <time>2011-06-10T13:13:15Z</time>
      </trkpt>
      <trkpt lat="41.78445" lon="9.04412">
        <ele>1295.942</ele>
        <time>2011-06-10T13:13:28Z</time>
      </trkpt>
      <trkpt lat="41.78445" lon="9.04412">
        <ele>1296.35</ele>
        <time>2011-06-10T13:13:30Z</time>
      </trkpt>
      <trkpt lat="41.78448" lon="9.04432">
        <ele>1298.374</ele>
        <time>2011-06-10T13:13:45Z</time>
      </trkpt>
      <trkpt lat="41.78448" lon="9.04432">
        <ele>1299.475</ele>
        <time>2011-06-10T13:13:58Z</time>
      </trkpt>
      <trkpt lat="41.78448" lon="9.04432">
        <ele>1299.366</ele>
        <time>2011-06-10T13:14:16Z</time>
      </trkpt>
      <trkpt lat="41.78448" lon="9.04432">
        <ele>1299.307</ele>
        <time>2011-06-10T13:14:56Z</time>
      </trkpt>
      <trkpt lat="41.78448" lon="9.04432">
        <ele>1300.137</ele>
        <time>2011-06-10T13:15:08Z</time>
      </trkpt>
      <trkpt lat="41.78448" lon="9.04432">
        <ele>1301.638</ele>
        <time>2011-06-10T13:15:24Z</time>
      </trkpt>
      <trkpt lat="41.78482" lon="9.04464">
        <ele>1302.118</ele>
        <time>2011-06-10T13:15:28Z</time>
      </trkpt>
      <trkpt lat="41.78482" lon="9.04464">
        <ele>1301.629</ele>
        <time>2011-06-10T13:15:33Z</time>
      </trkpt>
      <trkpt lat="41.78507" lon="9.04491">
        <ele>1299.551</ele>
        <time>2011-06-10T13:15:44Z</time>
      </trkpt>
      <trkpt lat="41.78514" lon="9.045">
        <ele>1298.619</ele>
        <time>2011-06-10T13:15:47Z</time>
      </trkpt>
      <trkpt lat="41.78533" lon="9.04529">
        <ele>1300.288</ele>
        <time>2011-06-10T13:15:59Z</time>
      </trkpt>
      <trkpt lat="41.7854" lon="9.04544">
        <ele>1298.505</ele>
        <time>2011-06-10T13:16:05Z</time>
      </trkpt>
      <trkpt lat="41.78551" lon="9.04546">
        <ele>1295.745</ele>
        <time>2011-06-10T13:16:08Z</time>
      </trkpt>
      <trkpt lat="41.7856" lon="9.04556">
        <ele>1296.487</ele>
        <time>2011-06-10T13:16:12Z</time>
      </trkpt>
      <trkpt lat="41.78569" lon="9.04574">
        <ele>1296.846</ele>
        <time>2011-06-10T13:16:22Z</time>
      </trkpt>
      <trkpt lat="41.78574" lon="9.04586">
        <ele>1296.006</ele>
        <time>2011-06-10T13:16:32Z</time>
      </trkpt>
      <trkpt lat="41.78585" lon="9.04601">
        <ele>1296.593</ele>
        <time>2011-06-10T13:16:45Z</time>
      </trkpt>
      <trkpt lat="41.78585" lon="9.04602">
        <ele>1296.71</ele>
        <time>2011-06-10T13:16:46Z</time>
      </trkpt>
      <trkpt lat="41.78587" lon="9.04609">
        <ele>1296.193</ele>
        <time>2011-06-10T13:16:50Z</time>
      </trkpt>
      <trkpt lat="41.7859" lon="9.04615">
        <ele>1296.052</ele>
        <time>2011-06-10T13:17:03Z</time>
      </trkpt>
      <trkpt lat="41.78593" lon="9.04624">
        <ele>1295.151</ele>
        <time>2011-06-10T13:17:18Z</time>
      </trkpt>
      <trkpt lat="41.78595" lon="9.04629">
        <ele>1296.269</ele>
        <time>2011-06-10T13:17:36Z</time>
      </trkpt>
      <trkpt lat="41.78599" lon="9.04634">
        <ele>1296.871</ele>
        <time>2011-06-10T13:17:58Z</time>
      </trkpt>
      <trkpt lat="41.78606" lon="9.0463">
        <ele>1300.175</ele>
        <time>2011-06-10T13:18:11Z</time>
      </trkpt>
      <trkpt lat="41.78611" lon="9.04631">
        <ele>1300.107</ele>
        <time>2011-06-10T13:18:22Z</time>
      </trkpt>
      <trkpt lat="41.78621" lon="9.04631">
        <ele>1302.865</ele>
        <time>2011-06-10T13:18:37Z</time>
      </trkpt>
      <trkpt lat="41.78624" lon="9.04632">
        <ele>1303.397</ele>
        <time>2011-06-10T13:18:41Z</time>
      </trkpt>
      <trkpt lat="41.78633" lon="9.04633">
        <ele>1303.509</ele>
        <time>2011-06-10T13:18:54Z</time>
      </trkpt>
      <trkpt lat="41.78635" lon="9.0463">
        <ele>1306.307</ele>
        <time>2011-06-10T13:18:58Z</time>
      </trkpt>
      <trkpt lat="41.78636" lon="9.04629">
        <ele>1306.304</ele>
        <time>2011-06-10T13:18:59Z</time>
      </trkpt>
      <trkpt lat="41.78637" lon="9.04626">
        <ele>1307.321</ele>
        <time>2011-06-10T13:19:02Z</time>
      </trkpt>
      <trkpt lat="41.78644" lon="9.04621">
        <ele>1310.11</ele>
        <time>2011-06-10T13:19:13Z</time>
      </trkpt>
      <trkpt lat="41.78646" lon="9.0462">
        <ele>1308.084</ele>
        <time>2011-06-10T13:19:18Z</time>
      </trkpt>
      <trkpt lat="41.78646" lon="9.0462">
        <ele>1310.81</ele>
        <time>2011-06-10T13:19:22Z</time>
      </trkpt>
      <trkpt lat="41.78647" lon="9.0462">
        <ele>1310.585</ele>
        <time>2011-06-10T13:19:27Z</time>
      </trkpt>
      <trkpt lat="41.78649" lon="9.04622">
        <ele>1309.858</ele>
        <time>2011-06-10T13:19:29Z</time>
      </trkpt>
      <trkpt lat="41.78655" lon="9.0464">
        <ele>1312.001</ele>
        <time>2011-06-10T13:19:36Z</time>
      </trkpt>
      <trkpt lat="41.7866" lon="9.04658">
        <ele>1311.061</ele>
        <time>2011-06-10T13:19:44Z</time>
      </trkpt>
      <trkpt lat="41.78662" lon="9.0466">
        <ele>1313.196</ele>
        <time>2011-06-10T13:19:49Z</time>
      </trkpt>
      <trkpt lat="41.78662" lon="9.04666">
        <ele>1314.989</ele>
        <time>2011-06-10T13:19:57Z</time>
      </trkpt>
      <trkpt lat="41.78663" lon="9.04679">
        <ele>1316.303</ele>
        <time>2011-06-10T13:20:11Z</time>
      </trkpt>
      <trkpt lat="41.78662" lon="9.04682">
        <ele>1316.484</ele>
        <time>2011-06-10T13:20:14Z</time>
      </trkpt>
      <trkpt lat="41.78664" lon="9.04693">
        <ele>1318.255</ele>
        <time>2011-06-10T13:20:25Z</time>
      </trkpt>
      <trkpt lat="41.78667" lon="9.04708">
        <ele>1321.401</ele>
        <time>2011-06-10T13:20:41Z</time>
      </trkpt>
      <trkpt lat="41.78667" lon="9.04709">
        <ele>1321.665</ele>
        <time>2011-06-10T13:20:42Z</time>
      </trkpt>
      <trkpt lat="41.78667" lon="9.04713">
        <ele>1322.677</ele>
        <time>2011-06-10T13:20:46Z</time>
      </trkpt>
      <trkpt lat="41.78671" lon="9.04728">
        <ele>1322.135</ele>
        <time>2011-06-10T13:20:58Z</time>
      </trkpt>
      <trkpt lat="41.78674" lon="9.04735">
        <ele>1321.745</ele>
        <time>2011-06-10T13:21:06Z</time>
      </trkpt>
      <trkpt lat="41.78683" lon="9.04742">
        <ele>1323.51</ele>
        <time>2011-06-10T13:21:19Z</time>
      </trkpt>
      <trkpt lat="41.78689" lon="9.04747">
        <ele>1325.658</ele>
        <time>2011-06-10T13:21:32Z</time>
      </trkpt>
      <trkpt lat="41.78692" lon="9.0475">
        <ele>1326.459</ele>
        <time>2011-06-10T13:21:52Z</time>
      </trkpt>
      <trkpt lat="41.78701" lon="9.04755">
        <ele>1327.72</ele>
        <time>2011-06-10T13:22:36Z</time>
      </trkpt>
      <trkpt lat="41.78705" lon="9.0476">
        <ele>1329.68</ele>
        <time>2011-06-10T13:22:47Z</time>
      </trkpt>
      <trkpt lat="41.78715" lon="9.0477">
        <ele>1330.924</ele>
        <time>2011-06-10T13:23:01Z</time>
      </trkpt>
      <trkpt lat="41.78723" lon="9.04781">
        <ele>1331.849</ele>
        <time>2011-06-10T13:23:16Z</time>
      </trkpt>
      <trkpt lat="41.78722" lon="9.04781">
        <ele>1330.539</ele>
        <time>2011-06-10T13:23:30Z</time>
      </trkpt>
      <trkpt lat="41.78722" lon="9.04781">
        <ele>1332.153</ele>
        <time>2011-06-10T13:23:33Z</time>
      </trkpt>
      <trkpt lat="41.78722" lon="9.04781">
        <ele>1331.301</ele>
        <time>2011-06-10T13:25:23Z</time>
      </trkpt>
      <trkpt lat="41.78735" lon="9.048">
        <ele>1330.753</ele>
        <time>2011-06-10T13:25:31Z</time>
      </trkpt>
      <trkpt lat="41.78761" lon="9.0483">
        <ele>1330.903</ele>
        <time>2011-06-10T13:25:43Z</time>
      </trkpt>
      <trkpt lat="41.78784" lon="9.04854">
        <ele>1333.542</ele>
        <time>2011-06-10T13:25:52Z</time>
      </trkpt>
      <trkpt lat="41.78818" lon="9.0486">
        <ele>1334.03</ele>
        <time>2011-06-10T13:26:03Z</time>
      </trkpt>
      <trkpt lat="41.78824" lon="9.04868">
        <ele>1336.774</ele>
        <time>2011-06-10T13:26:12Z</time>
      </trkpt>
      <trkpt lat="41.78826" lon="9.04871">
        <ele>1334.428</ele>
        <time>2011-06-10T13:26:38Z</time>
      </trkpt>
      <trkpt lat="41.78846" lon="9.0488">
        <ele>1335.726</ele>
        <time>2011-06-10T13:28:13Z</time>
      </trkpt>
      <trkpt lat="41.78853" lon="9.04884">
        <ele>1334.943</ele>
        <time>2011-06-10T13:28:16Z</time>
      </trkpt>
      <trkpt lat="41.78855" lon="9.0489">
        <ele>1334.263</ele>
        <time>2011-06-10T13:28:33Z</time>
      </trkpt>
      <trkpt lat="41.78855" lon="9.04889">
        <ele>1334.248</ele>
        <time>2011-06-10T13:28:36Z</time>
      </trkpt>
      <trkpt lat="41.78877" lon="9.04895">
        <ele>1335.497</ele>
        <time>2011-06-10T13:28:48Z</time>
      </trkpt>
      <trkpt lat="41.78881" lon="9.04899">
        <ele>1335.354</ele>
        <time>2011-06-10T13:28:50Z</time>
      </trkpt>
      <trkpt lat="41.78914" lon="9.0492">
        <ele>1337.437</ele>
        <time>2011-06-10T13:29:05Z</time>
      </trkpt>
      <trkpt lat="41.78928" lon="9.04926">
        <ele>1338.954</ele>
        <time>2011-06-10T13:29:13Z</time>
      </trkpt>
      <trkpt lat="41.78948" lon="9.04938">
        <ele>1341.751</ele>
        <time>2011-06-10T13:29:25Z</time>
      </trkpt>
      <trkpt lat="41.78953" lon="9.04944">
        <ele>1342.235</ele>
        <time>2011-06-10T13:29:37Z</time>
      </trkpt>
      <trkpt lat="41.78957" lon="9.04947">
        <ele>1343.994</ele>
        <time>2011-06-10T13:29:42Z</time>
      </trkpt>
      <trkpt lat="41.78965" lon="9.04953">
        <ele>1345.675</ele>
        <time>2011-06-10T13:29:56Z</time>
      </trkpt>
      <trkpt lat="41.78969" lon="9.04957">
        <ele>1345.601</ele>
        <time>2011-06-10T13:30:22Z</time>
      </trkpt>
      <trkpt lat="41.78968" lon="9.04957">
        <ele>1346.281</ele>
        <time>2011-06-10T13:30:49Z</time>
      </trkpt>
      <trkpt lat="41.78974" lon="9.04963">
        <ele>1347.322</ele>
        <time>2011-06-10T13:31:31Z</time>
      </trkpt>
      <trkpt lat="41.78978" lon="9.04966">
        <ele>1347.432</ele>
        <time>2011-06-10T13:31:46Z</time>
      </trkpt>
      <trkpt lat="41.78987" lon="9.04968">
        <ele>1347.628</ele>
        <time>2011-06-10T13:34:02Z</time>
      </trkpt>
      <trkpt lat="41.7899" lon="9.04969">
        <ele>1348.062</ele>
        <time>2011-06-10T13:34:06Z</time>
      </trkpt>
      <trkpt lat="41.79002" lon="9.04973">
        <ele>1349.211</ele>
        <time>2011-06-10T13:34:18Z</time>
      </trkpt>
      <trkpt lat="41.79003" lon="9.04975">
        <ele>1349.496</ele>
        <time>2011-06-10T13:34:19Z</time>
      </trkpt>
      <trkpt lat="41.79006" lon="9.04977">
        <ele>1350.091</ele>
        <time>2011-06-10T13:34:36Z</time>
      </trkpt>
      <trkpt lat="41.79005" lon="9.04977">
        <ele>1351.843</ele>
        <time>2011-06-10T13:37:13Z</time>
      </trkpt>
      <trkpt lat="41.79005" lon="9.04977">
        <ele>1352.946</ele>
        <time>2011-06-10T13:38:00Z</time>
      </trkpt>
      <trkpt lat="41.79005" lon="9.04977">
        <ele>1349.839</ele>
        <time>2011-06-10T13:38:32Z</time>
      </trkpt>
      <trkpt lat="41.79005" lon="9.04977">
        <ele>1351.021</ele>
        <time>2011-06-10T13:39:27Z</time>
      </trkpt>
      <trkpt lat="41.79019" lon="9.04995">
        <ele>1350.362</ele>
        <time>2011-06-10T13:39:40Z</time>
      </trkpt>
      <trkpt lat="41.79027" lon="9.05">
        <ele>1351.031</ele>
        <time>2011-06-10T13:39:49Z</time>
      </trkpt>
      <trkpt lat="41.79032" lon="9.05002">
        <ele>1351.348</ele>
        <time>2011-06-10T13:40:14Z</time>
      </trkpt>
      <trkpt lat="41.79034" lon="9.05001">
        <ele>1350.227</ele>
        <time>2011-06-10T13:40:20Z</time>
      </trkpt>
      <trkpt lat="41.79042" lon="9.05">
        <ele>1348.958</ele>
        <time>2011-06-10T13:40:33Z</time>
      </trkpt>
      <trkpt lat="41.79051" lon="9.04999">
        <ele>1347.947</ele>
        <time>2011-06-10T13:40:40Z</time>
      </trkpt>
      <trkpt lat="41.79052" lon="9.04999">
        <ele>1348.846</ele>
        <time>2011-06-10T13:40:42Z</time>
      </trkpt>
      <trkpt lat="41.79061" lon="9.04998">
        <ele>1346.829</ele>
        <time>2011-06-10T13:40:52Z</time>
      </trkpt>
      <trkpt lat="41.79062" lon="9.04999">
        <ele>1346.139</ele>
        <time>2011-06-10T13:41:02Z</time>
      </trkpt>
      <trkpt lat="41.79074" lon="9.05001">
        <ele>1341.737</ele>
        <time>2011-06-10T13:41:07Z</time>
      </trkpt>
      <trkpt lat="41.79077" lon="9.05001">
        <ele>1341.501</ele>
        <time>2011-06-10T13:41:08Z</time>
      </trkpt>
      <trkpt lat="41.79091" lon="9.05006">
        <ele>1340.299</ele>
        <time>2011-06-10T13:41:12Z</time>
      </trkpt>
      <trkpt lat="41.79108" lon="9.05011">
        <ele>1336.913</ele>
        <time>2011-06-10T13:41:17Z</time>
      </trkpt>
      <trkpt lat="41.79122" lon="9.05021">
        <ele>1336.137</ele>
        <time>2011-06-10T13:41:20Z</time>
      </trkpt>
      <trkpt lat="41.79138" lon="9.05039">
        <ele>1330.685</ele>
        <time>2011-06-10T13:41:23Z</time>
      </trkpt>
      <trkpt lat="41.79144" lon="9.05042">
        <ele>1330.317</ele>
        <time>2011-06-10T13:41:24Z</time>
      </trkpt>
      <trkpt lat="41.79174" lon="9.05056">
        <ele>1328.699</ele>
        <time>2011-06-10T13:41:29Z</time>
      </trkpt>
      <trkpt lat="41.79207" lon="9.05069">
        <ele>1329.289</ele>
        <time>2011-06-10T13:41:39Z</time>
      </trkpt>
      <trkpt lat="41.79219" lon="9.05076">
        <ele>1332.067</ele>
        <time>2011-06-10T13:41:49Z</time>
      </trkpt>
      <trkpt lat="41.79219" lon="9.05076">
        <ele>1328.323</ele>
        <time>2011-06-10T13:41:53Z</time>
      </trkpt>
      <trkpt lat="41.79219" lon="9.05076">
        <ele>1331.355</ele>
        <time>2011-06-10T13:42:01Z</time>
      </trkpt>
      <trkpt lat="41.79219" lon="9.05076">
        <ele>1330.531</ele>
        <time>2011-06-10T13:42:13Z</time>
      </trkpt>
      <trkpt lat="41.79219" lon="9.05076">
        <ele>1325.894</ele>
        <time>2011-06-10T13:42:17Z</time>
      </trkpt>
      <trkpt lat="41.79219" lon="9.05076">
        <ele>1326.569</ele>
        <time>2011-06-10T13:42:20Z</time>
      </trkpt>
      <trkpt lat="41.79258" lon="9.05118">
        <ele>1323.415</ele>
        <time>2011-06-10T13:42:24Z</time>
      </trkpt>
      <trkpt lat="41.7926" lon="9.05124">
        <ele>1326.659</ele>
        <time>2011-06-10T13:42:26Z</time>
      </trkpt>
      <trkpt lat="41.79259" lon="9.05138">
        <ele>1324.347</ele>
        <time>2011-06-10T13:42:35Z</time>
      </trkpt>
      <trkpt lat="41.79259" lon="9.05139">
        <ele>1324.28</ele>
        <time>2011-06-10T13:42:36Z</time>
      </trkpt>
      <trkpt lat="41.79259" lon="9.05144">
        <ele>1325.378</ele>
        <time>2011-06-10T13:42:40Z</time>
      </trkpt>
      <trkpt lat="41.79262" lon="9.05157">
        <ele>1325.399</ele>
        <time>2011-06-10T13:42:51Z</time>
      </trkpt>
      <trkpt lat="41.79265" lon="9.05172">
        <ele>1324.514</ele>
        <time>2011-06-10T13:42:56Z</time>
      </trkpt>
      <trkpt lat="41.79257" lon="9.05195">
        <ele>1326.054</ele>
        <time>2011-06-10T13:43:04Z</time>
      </trkpt>
      <trkpt lat="41.79251" lon="9.05231">
        <ele>1326.43</ele>
        <time>2011-06-10T13:43:12Z</time>
      </trkpt>
      <trkpt lat="41.79261" lon="9.05245">
        <ele>1323.884</ele>
        <time>2011-06-10T13:43:16Z</time>
      </trkpt>
      <trkpt lat="41.79263" lon="9.05248">
        <ele>1323.628</ele>
        <time>2011-06-10T13:43:17Z</time>
      </trkpt>
      <trkpt lat="41.7929" lon="9.05263">
        <ele>1324.648</ele>
        <time>2011-06-10T13:43:30Z</time>
      </trkpt>
      <trkpt lat="41.79302" lon="9.05272">
        <ele>1325.762</ele>
        <time>2011-06-10T13:43:36Z</time>
      </trkpt>
      <trkpt lat="41.79306" lon="9.05287">
        <ele>1327.993</ele>
        <time>2011-06-10T13:43:41Z</time>
      </trkpt>
      <trkpt lat="41.79307" lon="9.05294">
        <ele>1327.964</ele>
        <time>2011-06-10T13:43:43Z</time>
      </trkpt>
      <trkpt lat="41.79324" lon="9.05334">
        <ele>1328.496</ele>
        <time>2011-06-10T13:43:57Z</time>
      </trkpt>
      <trkpt lat="41.79336" lon="9.05355">
        <ele>1332.082</ele>
        <time>2011-06-10T13:44:06Z</time>
      </trkpt>
      <trkpt lat="41.79338" lon="9.05357">
        <ele>1332.096</ele>
        <time>2011-06-10T13:44:07Z</time>
      </trkpt>
      <trkpt lat="41.79341" lon="9.05366">
        <ele>1331.785</ele>
        <time>2011-06-10T13:44:10Z</time>
      </trkpt>
      <trkpt lat="41.79354" lon="9.05388">
        <ele>1332.873</ele>
        <time>2011-06-10T13:44:20Z</time>
      </trkpt>
      <trkpt lat="41.7936" lon="9.05396">
        <ele>1331.99</ele>
        <time>2011-06-10T13:44:23Z</time>
      </trkpt>
      <trkpt lat="41.79364" lon="9.0541">
        <ele>1333.937</ele>
        <time>2011-06-10T13:44:29Z</time>
      </trkpt>
      <trkpt lat="41.79369" lon="9.05415">
        <ele>1333.633</ele>
        <time>2011-06-10T13:44:42Z</time>
      </trkpt>
      <trkpt lat="41.79369" lon="9.05416">
        <ele>1335.394</ele>
        <time>2011-06-10T13:44:53Z</time>
      </trkpt>
      <trkpt lat="41.79367" lon="9.05425">
        <ele>1334.167</ele>
        <time>2011-06-10T13:45:01Z</time>
      </trkpt>
      <trkpt lat="41.79369" lon="9.05434">
        <ele>1333.849</ele>
        <time>2011-06-10T13:45:06Z</time>
      </trkpt>
      <trkpt lat="41.79369" lon="9.05438">
        <ele>1334.059</ele>
        <time>2011-06-10T13:45:08Z</time>
      </trkpt>
      <trkpt lat="41.79369" lon="9.05446">
        <ele>1334.933</ele>
        <time>2011-06-10T13:45:21Z</time>
      </trkpt>
      <trkpt lat="41.7937" lon="9.05445">
        <ele>1333.557</ele>
        <time>2011-06-10T13:46:52Z</time>
      </trkpt>
      <trkpt lat="41.79379" lon="9.05444">
        <ele>1335.317</ele>
        <time>2011-06-10T13:47:03Z</time>
      </trkpt>
      <trkpt lat="41.79379" lon="9.05445">
        <ele>1335.38</ele>
        <time>2011-06-10T13:47:16Z</time>
      </trkpt>
      <trkpt lat="41.79383" lon="9.05444">
        <ele>1338.381</ele>
        <time>2011-06-10T13:48:19Z</time>
      </trkpt>
      <trkpt lat="41.79398" lon="9.05444">
        <ele>1340.088</ele>
        <time>2011-06-10T13:48:32Z</time>
      </trkpt>
      <trkpt lat="41.79408" lon="9.05446">
        <ele>1342.671</ele>
        <time>2011-06-10T13:48:44Z</time>
      </trkpt>
      <trkpt lat="41.79415" lon="9.05451">
        <ele>1343.557</ele>
        <time>2011-06-10T13:48:52Z</time>
      </trkpt>
      <trkpt lat="41.79423" lon="9.05449">
        <ele>1346.265</ele>
        <time>2011-06-10T13:49:06Z</time>
      </trkpt>
      <trkpt lat="41.79431" lon="9.05455">
        <ele>1346.234</ele>
        <time>2011-06-10T13:49:21Z</time>
      </trkpt>
      <trkpt lat="41.79434" lon="9.05456">
        <ele>1346.917</ele>
        <time>2011-06-10T13:49:25Z</time>
      </trkpt>
      <trkpt lat="41.79443" lon="9.05468">
        <ele>1348.733</ele>
        <time>2011-06-10T13:49:41Z</time>
      </trkpt>
      <trkpt lat="41.79453" lon="9.05474">
        <ele>1350.8</ele>
        <time>2011-06-10T13:49:57Z</time>
      </trkpt>
      <trkpt lat="41.79455" lon="9.05475">
        <ele>1351.597</ele>
        <time>2011-06-10T13:50:01Z</time>
      </trkpt>
      <trkpt lat="41.79465" lon="9.05479">
        <ele>1353.694</ele>
        <time>2011-06-10T13:50:15Z</time>
      </trkpt>
      <trkpt lat="41.79473" lon="9.05486">
        <ele>1355.945</ele>
        <time>2011-06-10T13:50:29Z</time>
      </trkpt>
      <trkpt lat="41.79474" lon="9.05487">
        <ele>1355.71</ele>
        <time>2011-06-10T13:50:31Z</time>
      </trkpt>
      <trkpt lat="41.79485" lon="9.05497">
        <ele>1359.411</ele>
        <time>2011-06-10T13:50:46Z</time>
      </trkpt>
      <trkpt lat="41.79488" lon="9.05498">
        <ele>1357.682</ele>
        <time>2011-06-10T13:50:49Z</time>
      </trkpt>
      <trkpt lat="41.79495" lon="9.05505">
        <ele>1359.994</ele>
        <time>2011-06-10T13:50:59Z</time>
      </trkpt>
      <trkpt lat="41.79502" lon="9.0551">
        <ele>1363.095</ele>
        <time>2011-06-10T13:51:09Z</time>
      </trkpt>
      <trkpt lat="41.79504" lon="9.05512">
        <ele>1363.428</ele>
        <time>2011-06-10T13:51:13Z</time>
      </trkpt>
      <trkpt lat="41.79507" lon="9.05513">
        <ele>1360.673</ele>
        <time>2011-06-10T13:51:16Z</time>
      </trkpt>
      <trkpt lat="41.79509" lon="9.05515">
        <ele>1364.05</ele>
        <time>2011-06-10T13:51:19Z</time>
      </trkpt>
      <trkpt lat="41.7951" lon="9.05514">
        <ele>1364.992</ele>
        <time>2011-06-10T13:51:21Z</time>
      </trkpt>
      <trkpt lat="41.79514" lon="9.05515">
        <ele>1364.254</ele>
        <time>2011-06-10T13:51:27Z</time>
      </trkpt>
      <trkpt lat="41.79516" lon="9.05516">
        <ele>1365.638</ele>
        <time>2011-06-10T13:51:30Z</time>
      </trkpt>
      <trkpt lat="41.79521" lon="9.05522">
        <ele>1366.009</ele>
        <time>2011-06-10T13:51:41Z</time>
      </trkpt>
      <trkpt lat="41.79523" lon="9.05524">
        <ele>1368.053</ele>
        <time>2011-06-10T13:51:44Z</time>
      </trkpt>
      <trkpt lat="41.79524" lon="9.05527">
        <ele>1366.432</ele>
        <time>2011-06-10T13:51:47Z</time>
      </trkpt>
      <trkpt lat="41.79527" lon="9.05532">
        <ele>1367.353</ele>
        <time>2011-06-10T13:52:02Z</time>
      </trkpt>
      <trkpt lat="41.79533" lon="9.05537">
        <ele>1369.856</ele>
        <time>2011-06-10T13:52:14Z</time>
      </trkpt>
      <trkpt lat="41.79534" lon="9.05537">
        <ele>1369.77</ele>
        <time>2011-06-10T13:52:15Z</time>
      </trkpt>
      <trkpt lat="41.79538" lon="9.05541">
        <ele>1371.276</ele>
        <time>2011-06-10T13:52:23Z</time>
      </trkpt>
      <trkpt lat="41.7954" lon="9.0555">
        <ele>1375.337</ele>
        <time>2011-06-10T13:52:34Z</time>
      </trkpt>
      <trkpt lat="41.79541" lon="9.05552">
        <ele>1371.892</ele>
        <time>2011-06-10T13:52:36Z</time>
      </trkpt>
      <trkpt lat="41.79542" lon="9.05552">
        <ele>1373.894</ele>
        <time>2011-06-10T13:52:37Z</time>
      </trkpt>
      <trkpt lat="41.79546" lon="9.05561">
        <ele>1373.205</ele>
        <time>2011-06-10T13:52:52Z</time>
      </trkpt>
      <trkpt lat="41.79548" lon="9.05568">
        <ele>1374.556</ele>
        <time>2011-06-10T13:53:03Z</time>
      </trkpt>
      <trkpt lat="41.79552" lon="9.05576">
        <ele>1375.31</ele>
        <time>2011-06-10T13:53:17Z</time>
      </trkpt>
      <trkpt lat="41.79556" lon="9.05582">
        <ele>1378.507</ele>
        <time>2011-06-10T13:53:26Z</time>
      </trkpt>
      <trkpt lat="41.79557" lon="9.05587">
        <ele>1378.955</ele>
        <time>2011-06-10T13:53:39Z</time>
      </trkpt>
      <trkpt lat="41.79558" lon="9.05596">
        <ele>1379.923</ele>
        <time>2011-06-10T13:53:52Z</time>
      </trkpt>
      <trkpt lat="41.79559" lon="9.05603">
        <ele>1381.917</ele>
        <time>2011-06-10T13:54:03Z</time>
      </trkpt>
      <trkpt lat="41.79559" lon="9.05603">
        <ele>1381.204</ele>
        <time>2011-06-10T13:54:30Z</time>
      </trkpt>
      <trkpt lat="41.7956" lon="9.05603">
        <ele>1380.908</ele>
        <time>2011-06-10T13:55:16Z</time>
      </trkpt>
      <trkpt lat="41.79561" lon="9.05603">
        <ele>1382.509</ele>
        <time>2011-06-10T13:58:58Z</time>
      </trkpt>
      <trkpt lat="41.79561" lon="9.05601">
        <ele>1385.567</ele>
        <time>2011-06-10T14:00:35Z</time>
      </trkpt>
      <trkpt lat="41.79569" lon="9.05589">
        <ele>1386.266</ele>
        <time>2011-06-10T14:00:49Z</time>
      </trkpt>
      <trkpt lat="41.79577" lon="9.05575">
        <ele>1387.884</ele>
        <time>2011-06-10T14:01:04Z</time>
      </trkpt>
      <trkpt lat="41.79581" lon="9.05569">
        <ele>1391.758</ele>
        <time>2011-06-10T14:01:14Z</time>
      </trkpt>
      <trkpt lat="41.79581" lon="9.05569">
        <ele>1391.985</ele>
        <time>2011-06-10T14:01:15Z</time>
      </trkpt>
      <trkpt lat="41.79585" lon="9.05565">
        <ele>1390.603</ele>
        <time>2011-06-10T14:01:26Z</time>
      </trkpt>
      <trkpt lat="41.79586" lon="9.05565">
        <ele>1388.999</ele>
        <time>2011-06-10T14:01:37Z</time>
      </trkpt>
      <trkpt lat="41.79604" lon="9.05564">
        <ele>1388.895</ele>
        <time>2011-06-10T14:01:47Z</time>
      </trkpt>
      <trkpt lat="41.79611" lon="9.05568">
        <ele>1389.403</ele>
        <time>2011-06-10T14:01:57Z</time>
      </trkpt>
      <trkpt lat="41.79613" lon="9.05569">
        <ele>1389.9</ele>
        <time>2011-06-10T14:02:14Z</time>
      </trkpt>
      <trkpt lat="41.79617" lon="9.05572">
        <ele>1389.472</ele>
        <time>2011-06-10T14:02:21Z</time>
      </trkpt>
      <trkpt lat="41.79629" lon="9.05579">
        <ele>1391.799</ele>
        <time>2011-06-10T14:02:35Z</time>
      </trkpt>
      <trkpt lat="41.79638" lon="9.05584">
        <ele>1392.958</ele>
        <time>2011-06-10T14:02:46Z</time>
      </trkpt>
      <trkpt lat="41.79644" lon="9.05588">
        <ele>1394.37</ele>
        <time>2011-06-10T14:03:08Z</time>
      </trkpt>
      <trkpt lat="41.79645" lon="9.05589">
        <ele>1394.473</ele>
        <time>2011-06-10T14:03:09Z</time>
      </trkpt>
      <trkpt lat="41.79654" lon="9.05596">
        <ele>1396.623</ele>
        <time>2011-06-10T14:03:22Z</time>
      </trkpt>
      <trkpt lat="41.79666" lon="9.05597">
        <ele>1398.833</ele>
        <time>2011-06-10T14:03:38Z</time>
      </trkpt>
      <trkpt lat="41.79676" lon="9.05602">
        <ele>1399.024</ele>
        <time>2011-06-10T14:03:50Z</time>
      </trkpt>
      <trkpt lat="41.79681" lon="9.05602">
        <ele>1400.114</ele>
        <time>2011-06-10T14:03:57Z</time>
      </trkpt>
      <trkpt lat="41.79684" lon="9.05603">
        <ele>1400.49</ele>
        <time>2011-06-10T14:04:00Z</time>
      </trkpt>
      <trkpt lat="41.79691" lon="9.05605">
        <ele>1402.028</ele>
        <time>2011-06-10T14:04:15Z</time>
      </trkpt>
      <trkpt lat="41.79702" lon="9.05608">
        <ele>1402.76</ele>
        <time>2011-06-10T14:04:27Z</time>
      </trkpt>
      <trkpt lat="41.79703" lon="9.05609">
        <ele>1403.203</ele>
        <time>2011-06-10T14:04:29Z</time>
      </trkpt>
      <trkpt lat="41.79707" lon="9.05609">
        <ele>1403.113</ele>
        <time>2011-06-10T14:04:33Z</time>
      </trkpt>
      <trkpt lat="41.79717" lon="9.05613">
        <ele>1402.862</ele>
        <time>2011-06-10T14:04:46Z</time>
      </trkpt>
      <trkpt lat="41.79717" lon="9.05612">
        <ele>1405.881</ele>
        <time>2011-06-10T14:09:29Z</time>
      </trkpt>
      <trkpt lat="41.79734" lon="9.05611">
        <ele>1403.024</ele>
        <time>2011-06-10T14:09:51Z</time>
      </trkpt>
      <trkpt lat="41.79743" lon="9.05615">
        <ele>1401.949</ele>
        <time>2011-06-10T14:09:56Z</time>
      </trkpt>
      <trkpt lat="41.79777" lon="9.05616">
        <ele>1396.625</ele>
        <time>2011-06-10T14:10:07Z</time>
      </trkpt>
      <trkpt lat="41.79781" lon="9.05617">
        <ele>1394.072</ele>
        <time>2011-06-10T14:10:08Z</time>
      </trkpt>
      <trkpt lat="41.79804" lon="9.05625">
        <ele>1394.689</ele>
        <time>2011-06-10T14:10:12Z</time>
      </trkpt>
      <trkpt lat="41.79808" lon="9.05626">
        <ele>1396.51</ele>
        <time>2011-06-10T14:10:14Z</time>
      </trkpt>
      <trkpt lat="41.79808" lon="9.05626">
        <ele>1395.261</ele>
        <time>2011-06-10T14:10:18Z</time>
      </trkpt>
      <trkpt lat="41.79808" lon="9.05626">
        <ele>1395.328</ele>
        <time>2011-06-10T14:10:22Z</time>
      </trkpt>
      <trkpt lat="41.79837" lon="9.05647">
        <ele>1391.438</ele>
        <time>2011-06-10T14:10:32Z</time>
      </trkpt>
      <trkpt lat="41.79843" lon="9.05654">
        <ele>1390.56</ele>
        <time>2011-06-10T14:10:34Z</time>
      </trkpt>
      <trkpt lat="41.79852" lon="9.05662">
        <ele>1387.595</ele>
        <time>2011-06-10T14:10:37Z</time>
      </trkpt>
      <trkpt lat="41.79866" lon="9.05668">
        <ele>1385.445</ele>
        <time>2011-06-10T14:10:40Z</time>
      </trkpt>
      <trkpt lat="41.79882" lon="9.05679">
        <ele>1385.663</ele>
        <time>2011-06-10T14:10:44Z</time>
      </trkpt>
      <trkpt lat="41.79893" lon="9.05684">
        <ele>1387.354</ele>
        <time>2011-06-10T14:10:48Z</time>
      </trkpt>
      <trkpt lat="41.79925" lon="9.05712">
        <ele>1384.621</ele>
        <time>2011-06-10T14:11:00Z</time>
      </trkpt>
      <trkpt lat="41.79943" lon="9.0573">
        <ele>1382.606</ele>
        <time>2011-06-10T14:11:04Z</time>
      </trkpt>
      <trkpt lat="41.7996" lon="9.05747">
        <ele>1385.376</ele>
        <time>2011-06-10T14:11:10Z</time>
      </trkpt>
      <trkpt lat="41.79971" lon="9.05769">
        <ele>1384.473</ele>
        <time>2011-06-10T14:11:16Z</time>
      </trkpt>
      <trkpt lat="41.79984" lon="9.05796">
        <ele>1380.303</ele>
        <time>2011-06-10T14:11:21Z</time>
      </trkpt>
      <trkpt lat="41.79989" lon="9.05818">
        <ele>1378.499</ele>
        <time>2011-06-10T14:11:24Z</time>
      </trkpt>
      <trkpt lat="41.8" lon="9.0584">
        <ele>1375.78</ele>
        <time>2011-06-10T14:11:27Z</time>
      </trkpt>
      <trkpt lat="41.80025" lon="9.05866">
        <ele>1378.258</ele>
        <time>2011-06-10T14:11:33Z</time>
      </trkpt>
      <trkpt lat="41.8003" lon="9.05868">
        <ele>1378.851</ele>
        <time>2011-06-10T14:11:42Z</time>
      </trkpt>
      <trkpt lat="41.8003" lon="9.05868">
        <ele>1378.87</ele>
        <time>2011-06-10T14:11:43Z</time>
      </trkpt>
      <trkpt lat="41.80043" lon="9.05876">
        <ele>1378.226</ele>
        <time>2011-06-10T14:11:48Z</time>
      </trkpt>
      <trkpt lat="41.80051" lon="9.05878">
        <ele>1379.635</ele>
        <time>2011-06-10T14:11:54Z</time>
      </trkpt>
      <trkpt lat="41.80051" lon="9.05878">
        <ele>1377.724</ele>
        <time>2011-06-10T14:11:57Z</time>
      </trkpt>
      <trkpt lat="41.80063" lon="9.05873">
        <ele>1377.338</ele>
        <time>2011-06-10T14:12:03Z</time>
      </trkpt>
      <trkpt lat="41.80088" lon="9.05872">
        <ele>1377.755</ele>
        <time>2011-06-10T14:12:14Z</time>
      </trkpt>
      <trkpt lat="41.80104" lon="9.05873">
        <ele>1374.672</ele>
        <time>2011-06-10T14:12:21Z</time>
      </trkpt>
      <trkpt lat="41.80134" lon="9.05885">
        <ele>1375.797</ele>
        <time>2011-06-10T14:12:32Z</time>
      </trkpt>
      <trkpt lat="41.80158" lon="9.05896">
        <ele>1375.691</ele>
        <time>2011-06-10T14:12:44Z</time>
      </trkpt>
      <trkpt lat="41.80182" lon="9.05898">
        <ele>1372.888</ele>
        <time>2011-06-10T14:12:56Z</time>
      </trkpt>
      <trkpt lat="41.80193" lon="9.05901">
        <ele>1369.5</ele>
        <time>2011-06-10T14:13:01Z</time>
      </trkpt>
      <trkpt lat="41.80219" lon="9.05914">
        <ele>1368.381</ele>
        <time>2011-06-10T14:13:10Z</time>
      </trkpt>
      <trkpt lat="41.80253" lon="9.05939">
        <ele>1365.815</ele>
        <time>2011-06-10T14:13:18Z</time>
      </trkpt>
      <trkpt lat="41.80273" lon="9.05957">
        <ele>1362.276</ele>
        <time>2011-06-10T14:13:22Z</time>
      </trkpt>
      <trkpt lat="41.80296" lon="9.0598">
        <ele>1360.736</ele>
        <time>2011-06-10T14:13:28Z</time>
      </trkpt>
      <trkpt lat="41.80312" lon="9.05992">
        <ele>1358.84</ele>
        <time>2011-06-10T14:14:35Z</time>
      </trkpt>
      <trkpt lat="41.80314" lon="9.05994">
        <ele>1358.671</ele>
        <time>2011-06-10T14:14:46Z</time>
      </trkpt>
      <trkpt lat="41.80323" lon="9.06009">
        <ele>1356.192</ele>
        <time>2011-06-10T14:15:08Z</time>
      </trkpt>
      <trkpt lat="41.80335" lon="9.0602">
        <ele>1352.144</ele>
        <time>2011-06-10T14:15:11Z</time>
      </trkpt>
      <trkpt lat="41.80346" lon="9.06028">
        <ele>1348.752</ele>
        <time>2011-06-10T14:15:13Z</time>
      </trkpt>
      <trkpt lat="41.80353" lon="9.06033">
        <ele>1349.049</ele>
        <time>2011-06-10T14:15:14Z</time>
      </trkpt>
      <trkpt lat="41.80359" lon="9.06037">
        <ele>1344.999</ele>
        <time>2011-06-10T14:15:15Z</time>
      </trkpt>
      <trkpt lat="41.80381" lon="9.06054">
        <ele>1344.376</ele>
        <time>2011-06-10T14:15:23Z</time>
      </trkpt>
      <trkpt lat="41.8039" lon="9.06063">
        <ele>1346.577</ele>
        <time>2011-06-10T14:16:18Z</time>
      </trkpt>
      <trkpt lat="41.80427" lon="9.06119">
        <ele>1347.011</ele>
        <time>2011-06-10T14:16:31Z</time>
      </trkpt>
      <trkpt lat="41.80434" lon="9.0613">
        <ele>1347.562</ele>
        <time>2011-06-10T14:16:41Z</time>
      </trkpt>
      <trkpt lat="41.80434" lon="9.0613">
        <ele>1346.708</ele>
        <time>2011-06-10T14:17:06Z</time>
      </trkpt>
      <trkpt lat="41.80436" lon="9.06146">
        <ele>1344.412</ele>
        <time>2011-06-10T14:17:13Z</time>
      </trkpt>
      <trkpt lat="41.80437" lon="9.06149">
        <ele>1343.175</ele>
        <time>2011-06-10T14:17:15Z</time>
      </trkpt>
      <trkpt lat="41.80437" lon="9.06156">
        <ele>1341.566</ele>
        <time>2011-06-10T14:17:18Z</time>
      </trkpt>
      <trkpt lat="41.80442" lon="9.06171">
        <ele>1337.867</ele>
        <time>2011-06-10T14:17:25Z</time>
      </trkpt>
      <trkpt lat="41.80451" lon="9.06182">
        <ele>1334.646</ele>
        <time>2011-06-10T14:17:30Z</time>
      </trkpt>
      <trkpt lat="41.80454" lon="9.06187">
        <ele>1333.656</ele>
        <time>2011-06-10T14:17:32Z</time>
      </trkpt>
      <trkpt lat="41.80463" lon="9.06195">
        <ele>1329.493</ele>
        <time>2011-06-10T14:17:36Z</time>
      </trkpt>
      <trkpt lat="41.80466" lon="9.06197">
        <ele>1324.854</ele>
        <time>2011-06-10T14:17:37Z</time>
      </trkpt>
      <trkpt lat="41.8047" lon="9.06199">
        <ele>1326.066</ele>
        <time>2011-06-10T14:17:38Z</time>
      </trkpt>
      <trkpt lat="41.80483" lon="9.06206">
        <ele>1321.629</ele>
        <time>2011-06-10T14:17:41Z</time>
      </trkpt>
      <trkpt lat="41.80488" lon="9.06208">
        <ele>1320.789</ele>
        <time>2011-06-10T14:17:42Z</time>
      </trkpt>
      <trkpt lat="41.80503" lon="9.06214">
        <ele>1315.992</ele>
        <time>2011-06-10T14:17:45Z</time>
      </trkpt>
      <trkpt lat="41.80519" lon="9.06219">
        <ele>1315.514</ele>
        <time>2011-06-10T14:17:49Z</time>
      </trkpt>
      <trkpt lat="41.80526" lon="9.06221">
        <ele>1314.436</ele>
        <time>2011-06-10T14:17:51Z</time>
      </trkpt>
      <trkpt lat="41.8053" lon="9.06222">
        <ele>1313.452</ele>
        <time>2011-06-10T14:17:52Z</time>
      </trkpt>
      <trkpt lat="41.80548" lon="9.0623">
        <ele>1315.153</ele>
        <time>2011-06-10T14:17:56Z</time>
      </trkpt>
      <trkpt lat="41.80566" lon="9.06237">
        <ele>1312.468</ele>
        <time>2011-06-10T14:18:00Z</time>
      </trkpt>
      <trkpt lat="41.80573" lon="9.06239">
        <ele>1313.317</ele>
        <time>2011-06-10T14:18:02Z</time>
      </trkpt>
      <trkpt lat="41.80584" lon="9.06241">
        <ele>1313.903</ele>
        <time>2011-06-10T14:18:11Z</time>
      </trkpt>
      <trkpt lat="41.80586" lon="9.06243">
        <ele>1313.141</ele>
        <time>2011-06-10T14:18:13Z</time>
      </trkpt>
      <trkpt lat="41.80601" lon="9.06259">
        <ele>1311.371</ele>
        <time>2011-06-10T14:18:18Z</time>
      </trkpt>
      <trkpt lat="41.80611" lon="9.06271">
        <ele>1308.057</ele>
        <time>2011-06-10T14:18:24Z</time>
      </trkpt>
      <trkpt lat="41.80614" lon="9.06277">
        <ele>1307.161</ele>
        <time>2011-06-10T14:18:26Z</time>
      </trkpt>
      <trkpt lat="41.80632" lon="9.06298">
        <ele>1305.532</ele>
        <time>2011-06-10T14:18:36Z</time>
      </trkpt>
      <trkpt lat="41.80651" lon="9.06322">
        <ele>1302.507</ele>
        <time>2011-06-10T14:18:44Z</time>
      </trkpt>
      <trkpt lat="41.80658" lon="9.0633">
        <ele>1300.879</ele>
        <time>2011-06-10T14:18:47Z</time>
      </trkpt>
      <trkpt lat="41.80674" lon="9.06339">
        <ele>1297.684</ele>
        <time>2011-06-10T14:18:51Z</time>
      </trkpt>
      <trkpt lat="41.80684" lon="9.06342">
        <ele>1296.561</ele>
        <time>2011-06-10T14:18:53Z</time>
      </trkpt>
      <trkpt lat="41.80694" lon="9.06349">
        <ele>1294.997</ele>
        <time>2011-06-10T14:18:56Z</time>
      </trkpt>
      <trkpt lat="41.80708" lon="9.06359">
        <ele>1291.734</ele>
        <time>2011-06-10T14:19:01Z</time>
      </trkpt>
      <trkpt lat="41.80714" lon="9.06365">
        <ele>1288.941</ele>
        <time>2011-06-10T14:19:03Z</time>
      </trkpt>
      <trkpt lat="41.80724" lon="9.06371">
        <ele>1288.235</ele>
        <time>2011-06-10T14:19:07Z</time>
      </trkpt>
      <trkpt lat="41.80724" lon="9.06371">
        <ele>1287.902</ele>
        <time>2011-06-10T14:19:30Z</time>
      </trkpt>
      <trkpt lat="41.8073" lon="9.06374">
        <ele>1286.101</ele>
        <time>2011-06-10T14:21:32Z</time>
      </trkpt>
      <trkpt lat="41.80744" lon="9.06367">
        <ele>1283.113</ele>
        <time>2011-06-10T14:21:38Z</time>
      </trkpt>
      <trkpt lat="41.80746" lon="9.06378">
        <ele>1280.524</ele>
        <time>2011-06-10T14:21:44Z</time>
      </trkpt>
      <trkpt lat="41.80747" lon="9.06381">
        <ele>1279.979</ele>
        <time>2011-06-10T14:21:45Z</time>
      </trkpt>
      <trkpt lat="41.80755" lon="9.06385">
        <ele>1276.532</ele>
        <time>2011-06-10T14:21:52Z</time>
      </trkpt>
      <trkpt lat="41.80759" lon="9.06383">
        <ele>1273.355</ele>
        <time>2011-06-10T14:21:54Z</time>
      </trkpt>
      <trkpt lat="41.80762" lon="9.06382">
        <ele>1273.123</ele>
        <time>2011-06-10T14:21:55Z</time>
      </trkpt>
      <trkpt lat="41.80769" lon="9.06373">
        <ele>1272.282</ele>
        <time>2011-06-10T14:22:01Z</time>
      </trkpt>
      <trkpt lat="41.80774" lon="9.06359">
        <ele>1268.755</ele>
        <time>2011-06-10T14:22:05Z</time>
      </trkpt>
      <trkpt lat="41.80777" lon="9.06347">
        <ele>1268.435</ele>
        <time>2011-06-10T14:22:08Z</time>
      </trkpt>
      <trkpt lat="41.80782" lon="9.06344">
        <ele>1268.531</ele>
        <time>2011-06-10T14:22:12Z</time>
      </trkpt>
      <trkpt lat="41.80787" lon="9.06344">
        <ele>1267.109</ele>
        <time>2011-06-10T14:22:15Z</time>
      </trkpt>
      <trkpt lat="41.80796" lon="9.06348">
        <ele>1266.492</ele>
        <time>2011-06-10T14:22:18Z</time>
      </trkpt>
      <trkpt lat="41.80802" lon="9.06369">
        <ele>1261.654</ele>
        <time>2011-06-10T14:22:23Z</time>
      </trkpt>
      <trkpt lat="41.80805" lon="9.06378">
        <ele>1260.148</ele>
        <time>2011-06-10T14:22:26Z</time>
      </trkpt>
      <trkpt lat="41.80805" lon="9.06387">
        <ele>1258.474</ele>
        <time>2011-06-10T14:22:37Z</time>
      </trkpt>
      <trkpt lat="41.80805" lon="9.06389">
        <ele>1256.925</ele>
        <time>2011-06-10T14:24:46Z</time>
      </trkpt>
      <trkpt lat="41.80807" lon="9.06408">
        <ele>1254.695</ele>
        <time>2011-06-10T14:24:52Z</time>
      </trkpt>
      <trkpt lat="41.80814" lon="9.06432">
        <ele>1250.298</ele>
        <time>2011-06-10T14:24:58Z</time>
      </trkpt>
      <trkpt lat="41.80826" lon="9.06428">
        <ele>1247.022</ele>
        <time>2011-06-10T14:25:01Z</time>
      </trkpt>
      <trkpt lat="41.80831" lon="9.06428">
        <ele>1244.276</ele>
        <time>2011-06-10T14:25:06Z</time>
      </trkpt>
      <trkpt lat="41.80844" lon="9.06428">
        <ele>1238.581</ele>
        <time>2011-06-10T14:25:11Z</time>
      </trkpt>
      <trkpt lat="41.80848" lon="9.06428">
        <ele>1238.139</ele>
        <time>2011-06-10T14:25:13Z</time>
      </trkpt>
      <trkpt lat="41.80857" lon="9.06432">
        <ele>1237.482</ele>
        <time>2011-06-10T14:25:18Z</time>
      </trkpt>
      <trkpt lat="41.80863" lon="9.06435">
        <ele>1236.147</ele>
        <time>2011-06-10T14:25:20Z</time>
      </trkpt>
      <trkpt lat="41.8089" lon="9.06468">
        <ele>1232.423</ele>
        <time>2011-06-10T14:25:27Z</time>
      </trkpt>
      <trkpt lat="41.80895" lon="9.06472">
        <ele>1232.263</ele>
        <time>2011-06-10T14:25:28Z</time>
      </trkpt>
      <trkpt lat="41.80903" lon="9.0648">
        <ele>1232.535</ele>
        <time>2011-06-10T14:25:30Z</time>
      </trkpt>
      <trkpt lat="41.80916" lon="9.0649">
        <ele>1234.216</ele>
        <time>2011-06-10T14:25:34Z</time>
      </trkpt>
      <trkpt lat="41.80933" lon="9.06507">
        <ele>1234.826</ele>
        <time>2011-06-10T14:25:44Z</time>
      </trkpt>
      <trkpt lat="41.80954" lon="9.06524">
        <ele>1234.732</ele>
        <time>2011-06-10T14:29:25Z</time>
      </trkpt>
      <trkpt lat="41.80984" lon="9.0654">
        <ele>1237.934</ele>
        <time>2011-06-10T14:29:33Z</time>
      </trkpt>
      <trkpt lat="41.81015" lon="9.06564">
        <ele>1239.259</ele>
        <time>2011-06-10T14:29:46Z</time>
      </trkpt>
      <trkpt lat="41.81015" lon="9.06564">
        <ele>1239.639</ele>
        <time>2011-06-10T14:29:48Z</time>
      </trkpt>
      <trkpt lat="41.81025" lon="9.06577">
        <ele>1240.178</ele>
        <time>2011-06-10T14:30:00Z</time>
      </trkpt>
      <trkpt lat="41.8105" lon="9.06594">
        <ele>1243.277</ele>
        <time>2011-06-10T14:30:11Z</time>
      </trkpt>
      <trkpt lat="41.81062" lon="9.06598">
        <ele>1243.758</ele>
        <time>2011-06-10T14:30:25Z</time>
      </trkpt>
      <trkpt lat="41.81081" lon="9.06613">
        <ele>1243.892</ele>
        <time>2011-06-10T14:30:49Z</time>
      </trkpt>
      <trkpt lat="41.81119" lon="9.06634">
        <ele>1244.387</ele>
        <time>2011-06-10T14:31:02Z</time>
      </trkpt>
      <trkpt lat="41.81121" lon="9.06635">
        <ele>1245.764</ele>
        <time>2011-06-10T14:31:10Z</time>
      </trkpt>
      <trkpt lat="41.8113" lon="9.06638">
        <ele>1244.939</ele>
        <time>2011-06-10T14:31:17Z</time>
      </trkpt>
      <trkpt lat="41.81137" lon="9.06638">
        <ele>1246.203</ele>
        <time>2011-06-10T14:31:21Z</time>
      </trkpt>
      <trkpt lat="41.81144" lon="9.06638">
        <ele>1244.405</ele>
        <time>2011-06-10T14:31:27Z</time>
      </trkpt>
      <trkpt lat="41.81176" lon="9.06642">
        <ele>1241.908</ele>
        <time>2011-06-10T14:31:38Z</time>
      </trkpt>
      <trkpt lat="41.8118" lon="9.0664">
        <ele>1242.035</ele>
        <time>2011-06-10T14:31:39Z</time>
      </trkpt>
      <trkpt lat="41.81184" lon="9.06638">
        <ele>1240.699</ele>
        <time>2011-06-10T14:31:41Z</time>
      </trkpt>
      <trkpt lat="41.81184" lon="9.06638">
        <ele>1240.469</ele>
        <time>2011-06-10T14:31:43Z</time>
      </trkpt>
      <trkpt lat="41.81208" lon="9.06673">
        <ele>1239.498</ele>
        <time>2011-06-10T14:31:45Z</time>
      </trkpt>
      <trkpt lat="41.81226" lon="9.06656">
        <ele>1239.33</ele>
        <time>2011-06-10T14:31:50Z</time>
      </trkpt>
      <trkpt lat="41.8124" lon="9.06687">
        <ele>1240.002</ele>
        <time>2011-06-10T14:32:00Z</time>
      </trkpt>
      <trkpt lat="41.81265" lon="9.06709">
        <ele>1240.721</ele>
        <time>2011-06-10T14:32:12Z</time>
      </trkpt>
      <trkpt lat="41.81289" lon="9.0673">
        <ele>1244.086</ele>
        <time>2011-06-10T14:32:22Z</time>
      </trkpt>
      <trkpt lat="41.81292" lon="9.06733">
        <ele>1245.273</ele>
        <time>2011-06-10T14:32:24Z</time>
      </trkpt>
      <trkpt lat="41.81303" lon="9.06756">
        <ele>1248.525</ele>
        <time>2011-06-10T14:32:35Z</time>
      </trkpt>
      <trkpt lat="41.81313" lon="9.06783">
        <ele>1249.58</ele>
        <time>2011-06-10T14:32:46Z</time>
      </trkpt>
      <trkpt lat="41.81326" lon="9.06816">
        <ele>1250.376</ele>
        <time>2011-06-10T14:33:00Z</time>
      </trkpt>
      <trkpt lat="41.81327" lon="9.06817">
        <ele>1250.696</ele>
        <time>2011-06-10T14:33:14Z</time>
      </trkpt>
      <trkpt lat="41.81332" lon="9.06823">
        <ele>1253.358</ele>
        <time>2011-06-10T14:33:25Z</time>
      </trkpt>
      <trkpt lat="41.81337" lon="9.06832">
        <ele>1253.04</ele>
        <time>2011-06-10T14:33:38Z</time>
      </trkpt>
      <trkpt lat="41.81343" lon="9.06839">
        <ele>1254.076</ele>
        <time>2011-06-10T14:33:54Z</time>
      </trkpt>
      <trkpt lat="41.81349" lon="9.06846">
        <ele>1254.369</ele>
        <time>2011-06-10T14:34:02Z</time>
      </trkpt>
      <trkpt lat="41.81355" lon="9.06857">
        <ele>1256.825</ele>
        <time>2011-06-10T14:34:13Z</time>
      </trkpt>
      <trkpt lat="41.8136" lon="9.06867">
        <ele>1257.171</ele>
        <time>2011-06-10T14:34:30Z</time>
      </trkpt>
      <trkpt lat="41.8136" lon="9.06867">
        <ele>1257.087</ele>
        <time>2011-06-10T14:34:44Z</time>
      </trkpt>
      <trkpt lat="41.81378" lon="9.06887">
        <ele>1257.425</ele>
        <time>2011-06-10T14:34:58Z</time>
      </trkpt>
      <trkpt lat="41.81392" lon="9.06909">
        <ele>1260.193</ele>
        <time>2011-06-10T14:35:10Z</time>
      </trkpt>
      <trkpt lat="41.81402" lon="9.06921">
        <ele>1261.53</ele>
        <time>2011-06-10T14:35:18Z</time>
      </trkpt>
      <trkpt lat="41.81407" lon="9.06926">
        <ele>1262.459</ele>
        <time>2011-06-10T14:35:23Z</time>
      </trkpt>
      <trkpt lat="41.81429" lon="9.06939">
        <ele>1264.201</ele>
        <time>2011-06-10T14:35:37Z</time>
      </trkpt>
      <trkpt lat="41.81448" lon="9.06952">
        <ele>1266.629</ele>
        <time>2011-06-10T14:35:49Z</time>
      </trkpt>
      <trkpt lat="41.81468" lon="9.06953">
        <ele>1269.126</ele>
        <time>2011-06-10T14:36:03Z</time>
      </trkpt>
      <trkpt lat="41.8148" lon="9.06956">
        <ele>1270.661</ele>
        <time>2011-06-10T14:36:11Z</time>
      </trkpt>
      <trkpt lat="41.81484" lon="9.06954">
        <ele>1271.825</ele>
        <time>2011-06-10T14:36:15Z</time>
      </trkpt>
      <trkpt lat="41.81489" lon="9.06952">
        <ele>1272.666</ele>
        <time>2011-06-10T14:36:19Z</time>
      </trkpt>
      <trkpt lat="41.81493" lon="9.06955">
        <ele>1272.857</ele>
        <time>2011-06-10T14:36:24Z</time>
      </trkpt>
      <trkpt lat="41.81509" lon="9.06941">
        <ele>1275.293</ele>
        <time>2011-06-10T14:36:40Z</time>
      </trkpt>
      <trkpt lat="41.81518" lon="9.0694">
        <ele>1275.544</ele>
        <time>2011-06-10T14:36:49Z</time>
      </trkpt>
      <trkpt lat="41.81531" lon="9.06934">
        <ele>1275.457</ele>
        <time>2011-06-10T14:36:59Z</time>
      </trkpt>
      <trkpt lat="41.81552" lon="9.06925">
        <ele>1276.31</ele>
        <time>2011-06-10T14:37:12Z</time>
      </trkpt>
      <trkpt lat="41.81572" lon="9.06925">
        <ele>1274.496</ele>
        <time>2011-06-10T14:37:21Z</time>
      </trkpt>
      <trkpt lat="41.81594" lon="9.06934">
        <ele>1271.593</ele>
        <time>2011-06-10T14:37:32Z</time>
      </trkpt>
      <trkpt lat="41.81612" lon="9.06937">
        <ele>1267.768</ele>
        <time>2011-06-10T14:37:38Z</time>
      </trkpt>
      <trkpt lat="41.81615" lon="9.06937">
        <ele>1267.648</ele>
        <time>2011-06-10T14:37:39Z</time>
      </trkpt>
      <trkpt lat="41.8164" lon="9.06941">
        <ele>1267.026</ele>
        <time>2011-06-10T14:37:48Z</time>
      </trkpt>
      <trkpt lat="41.8165" lon="9.06945">
        <ele>1266.545</ele>
        <time>2011-06-10T14:37:59Z</time>
      </trkpt>
      <trkpt lat="41.81657" lon="9.06947">
        <ele>1265.549</ele>
        <time>2011-06-10T14:39:21Z</time>
      </trkpt>
      <trkpt lat="41.81664" lon="9.06943">
        <ele>1264.596</ele>
        <time>2011-06-10T14:39:23Z</time>
      </trkpt>
      <trkpt lat="41.81668" lon="9.06941">
        <ele>1264.185</ele>
        <time>2011-06-10T14:39:24Z</time>
      </trkpt>
      <trkpt lat="41.81678" lon="9.06938">
        <ele>1263.004</ele>
        <time>2011-06-10T14:39:26Z</time>
      </trkpt>
      <trkpt lat="41.81706" lon="9.06939">
        <ele>1259.307</ele>
        <time>2011-06-10T14:39:32Z</time>
      </trkpt>
      <trkpt lat="41.81745" lon="9.06934">
        <ele>1252.667</ele>
        <time>2011-06-10T14:39:39Z</time>
      </trkpt>
      <trkpt lat="41.81758" lon="9.06934">
        <ele>1251.184</ele>
        <time>2011-06-10T14:39:41Z</time>
      </trkpt>
      <trkpt lat="41.81778" lon="9.06936">
        <ele>1253.27</ele>
        <time>2011-06-10T14:39:46Z</time>
      </trkpt>
      <trkpt lat="41.81803" lon="9.06948">
        <ele>1255.759</ele>
        <time>2011-06-10T14:39:58Z</time>
      </trkpt>
      <trkpt lat="41.81813" lon="9.06962">
        <ele>1258.018</ele>
        <time>2011-06-10T14:40:05Z</time>
      </trkpt>
      <trkpt lat="41.8183" lon="9.06985">
        <ele>1256.716</ele>
        <time>2011-06-10T14:40:15Z</time>
      </trkpt>
      <trkpt lat="41.81855" lon="9.07007">
        <ele>1259.058</ele>
        <time>2011-06-10T14:40:27Z</time>
      </trkpt>
      <trkpt lat="41.81864" lon="9.07013">
        <ele>1260.088</ele>
        <time>2011-06-10T14:40:32Z</time>
      </trkpt>
      <trkpt lat="41.81892" lon="9.07026">
        <ele>1261.56</ele>
        <time>2011-06-10T14:40:46Z</time>
      </trkpt>
      <trkpt lat="41.81903" lon="9.07031">
        <ele>1262.45</ele>
        <time>2011-06-10T14:40:51Z</time>
      </trkpt>
      <trkpt lat="41.81929" lon="9.07041">
        <ele>1262.694</ele>
        <time>2011-06-10T14:41:05Z</time>
      </trkpt>
      <trkpt lat="41.81944" lon="9.07051">
        <ele>1263.716</ele>
        <time>2011-06-10T14:41:15Z</time>
      </trkpt>
      <trkpt lat="41.81967" lon="9.07067">
        <ele>1264.498</ele>
        <time>2011-06-10T14:41:28Z</time>
      </trkpt>
      <trkpt lat="41.81972" lon="9.07076">
        <ele>1265.729</ele>
        <time>2011-06-10T14:41:40Z</time>
      </trkpt>
      <trkpt lat="41.81972" lon="9.07076">
        <ele>1265.095</ele>
        <time>2011-06-10T14:42:11Z</time>
      </trkpt>
      <trkpt lat="41.81976" lon="9.07102">
        <ele>1260.882</ele>
        <time>2011-06-10T14:42:19Z</time>
      </trkpt>
      <trkpt lat="41.81978" lon="9.07107">
        <ele>1260.912</ele>
        <time>2011-06-10T14:42:20Z</time>
      </trkpt>
      <trkpt lat="41.81991" lon="9.07123">
        <ele>1259.509</ele>
        <time>2011-06-10T14:42:27Z</time>
      </trkpt>
      <trkpt lat="41.81997" lon="9.07128">
        <ele>1258.718</ele>
        <time>2011-06-10T14:42:29Z</time>
      </trkpt>
      <trkpt lat="41.8201" lon="9.07137">
        <ele>1257.714</ele>
        <time>2011-06-10T14:42:37Z</time>
      </trkpt>
      <trkpt lat="41.82035" lon="9.07149">
        <ele>1257.012</ele>
        <time>2011-06-10T14:42:49Z</time>
      </trkpt>
      <trkpt lat="41.82052" lon="9.07172">
        <ele>1256.703</ele>
        <time>2011-06-10T14:43:02Z</time>
      </trkpt>
      <trkpt lat="41.82055" lon="9.07193">
        <ele>1257.829</ele>
        <time>2011-06-10T14:43:10Z</time>
      </trkpt>
      <trkpt lat="41.82058" lon="9.072">
        <ele>1259.158</ele>
        <time>2011-06-10T14:43:17Z</time>
      </trkpt>
      <trkpt lat="41.82063" lon="9.0722">
        <ele>1260.529</ele>
        <time>2011-06-10T14:43:30Z</time>
      </trkpt>
      <trkpt lat="41.82063" lon="9.0722">
        <ele>1260.37</ele>
        <time>2011-06-10T14:43:46Z</time>
      </trkpt>
      <trkpt lat="41.82063" lon="9.0722">
        <ele>1260.268</ele>
        <time>2011-06-10T14:44:00Z</time>
      </trkpt>
      <trkpt lat="41.82063" lon="9.0722">
        <ele>1259.73</ele>
        <time>2011-06-10T14:44:31Z</time>
      </trkpt>
      <trkpt lat="41.82075" lon="9.07242">
        <ele>1260.075</ele>
        <time>2011-06-10T14:44:37Z</time>
      </trkpt>
      <trkpt lat="41.82095" lon="9.07267">
        <ele>1258.714</ele>
        <time>2011-06-10T14:44:50Z</time>
      </trkpt>
      <trkpt lat="41.82113" lon="9.073">
        <ele>1257.813</ele>
        <time>2011-06-10T14:45:00Z</time>
      </trkpt>
      <trkpt lat="41.82126" lon="9.07331">
        <ele>1259.528</ele>
        <time>2011-06-10T14:45:12Z</time>
      </trkpt>
      <trkpt lat="41.8213" lon="9.07344">
        <ele>1257.975</ele>
        <time>2011-06-10T14:45:15Z</time>
      </trkpt>
      <trkpt lat="41.82143" lon="9.07357">
        <ele>1257.938</ele>
        <time>2011-06-10T14:45:20Z</time>
      </trkpt>
      <trkpt lat="41.82154" lon="9.0737">
        <ele>1254.921</ele>
        <time>2011-06-10T14:45:23Z</time>
      </trkpt>
      <trkpt lat="41.82164" lon="9.07375">
        <ele>1254.309</ele>
        <time>2011-06-10T14:45:25Z</time>
      </trkpt>
      <trkpt lat="41.82174" lon="9.07383">
        <ele>1254.166</ele>
        <time>2011-06-10T14:45:27Z</time>
      </trkpt>
      <trkpt lat="41.82183" lon="9.07409">
        <ele>1253.167</ele>
        <time>2011-06-10T14:45:32Z</time>
      </trkpt>
      <trkpt lat="41.82193" lon="9.07448">
        <ele>1253.294</ele>
        <time>2011-06-10T14:45:42Z</time>
      </trkpt>
      <trkpt lat="41.82193" lon="9.07451">
        <ele>1253.179</ele>
        <time>2011-06-10T14:45:52Z</time>
      </trkpt>
      <trkpt lat="41.82202" lon="9.07487">
        <ele>1251.76</ele>
        <time>2011-06-10T14:46:14Z</time>
      </trkpt>
      <trkpt lat="41.82219" lon="9.07511">
        <ele>1249.684</ele>
        <time>2011-06-10T14:46:22Z</time>
      </trkpt>
      <trkpt lat="41.82222" lon="9.07517">
        <ele>1248.655</ele>
        <time>2011-06-10T14:46:24Z</time>
      </trkpt>
      <trkpt lat="41.82228" lon="9.07532">
        <ele>1244.941</ele>
        <time>2011-06-10T14:46:28Z</time>
      </trkpt>
      <trkpt lat="41.82231" lon="9.07542">
        <ele>1244.027</ele>
        <time>2011-06-10T14:46:30Z</time>
      </trkpt>
      <trkpt lat="41.82231" lon="9.07565">
        <ele>1240.931</ele>
        <time>2011-06-10T14:46:33Z</time>
      </trkpt>
      <trkpt lat="41.82221" lon="9.07575">
        <ele>1238.86</ele>
        <time>2011-06-10T14:46:36Z</time>
      </trkpt>
      <trkpt lat="41.82209" lon="9.07594">
        <ele>1236.645</ele>
        <time>2011-06-10T14:46:42Z</time>
      </trkpt>
      <trkpt lat="41.82208" lon="9.076">
        <ele>1235.959</ele>
        <time>2011-06-10T14:46:44Z</time>
      </trkpt>
      <trkpt lat="41.8221" lon="9.07612">
        <ele>1234.606</ele>
        <time>2011-06-10T14:46:48Z</time>
      </trkpt>
      <trkpt lat="41.82213" lon="9.07618">
        <ele>1233.458</ele>
        <time>2011-06-10T14:46:50Z</time>
      </trkpt>
      <trkpt lat="41.82214" lon="9.07621">
        <ele>1233.619</ele>
        <time>2011-06-10T14:47:05Z</time>
      </trkpt>
      <trkpt lat="41.82214" lon="9.07621">
        <ele>1233.65</ele>
        <time>2011-06-10T14:47:28Z</time>
      </trkpt>
      <trkpt lat="41.82214" lon="9.07621">
        <ele>1233.247</ele>
        <time>2011-06-10T14:48:17Z</time>
      </trkpt>
      <trkpt lat="41.82218" lon="9.07635">
        <ele>1230.98</ele>
        <time>2011-06-10T14:48:21Z</time>
      </trkpt>
      <trkpt lat="41.8222" lon="9.07642">
        <ele>1231.001</ele>
        <time>2011-06-10T14:48:25Z</time>
      </trkpt>
      <trkpt lat="41.82225" lon="9.07656">
        <ele>1229.595</ele>
        <time>2011-06-10T14:48:30Z</time>
      </trkpt>
      <trkpt lat="41.82225" lon="9.07659">
        <ele>1227.787</ele>
        <time>2011-06-10T14:48:35Z</time>
      </trkpt>
      <trkpt lat="41.82225" lon="9.07659">
        <ele>1224.64</ele>
        <time>2011-06-10T14:48:42Z</time>
      </trkpt>
      <trkpt lat="41.82225" lon="9.07659">
        <ele>1229.317</ele>
        <time>2011-06-10T14:48:43Z</time>
      </trkpt>
      <trkpt lat="41.82225" lon="9.07659">
        <ele>1228.242</ele>
        <time>2011-06-10T14:48:53Z</time>
      </trkpt>
      <trkpt lat="41.82225" lon="9.07678">
        <ele>1226.051</ele>
        <time>2011-06-10T14:49:00Z</time>
      </trkpt>
      <trkpt lat="41.82226" lon="9.07684">
        <ele>1224.774</ele>
        <time>2011-06-10T14:49:04Z</time>
      </trkpt>
      <trkpt lat="41.82229" lon="9.07702">
        <ele>1221.81</ele>
        <time>2011-06-10T14:49:14Z</time>
      </trkpt>
      <trkpt lat="41.82229" lon="9.07709">
        <ele>1220.442</ele>
        <time>2011-06-10T14:49:17Z</time>
      </trkpt>
      <trkpt lat="41.82233" lon="9.07733">
        <ele>1218.133</ele>
        <time>2011-06-10T14:49:27Z</time>
      </trkpt>
      <trkpt lat="41.82233" lon="9.07733">
        <ele>1217.334</ele>
        <time>2011-06-10T14:49:43Z</time>
      </trkpt>
      <trkpt lat="41.82233" lon="9.07733">
        <ele>1217.993</ele>
        <time>2011-06-10T14:50:00Z</time>
      </trkpt>
      <trkpt lat="41.82229" lon="9.07747">
        <ele>1217.714</ele>
        <time>2011-06-10T14:50:11Z</time>
      </trkpt>
      <trkpt lat="41.82224" lon="9.07764">
        <ele>1218.684</ele>
        <time>2011-06-10T14:50:18Z</time>
      </trkpt>
      <trkpt lat="41.82214" lon="9.07784">
        <ele>1218.695</ele>
        <time>2011-06-10T14:50:27Z</time>
      </trkpt>
      <trkpt lat="41.82205" lon="9.07804">
        <ele>1217.636</ele>
        <time>2011-06-10T14:50:36Z</time>
      </trkpt>
      <trkpt lat="41.82205" lon="9.07804">
        <ele>1219.034</ele>
        <time>2011-06-10T14:50:49Z</time>
      </trkpt>
      <trkpt lat="41.82202" lon="9.07815">
        <ele>1216.932</ele>
        <time>2011-06-10T14:50:54Z</time>
      </trkpt>
      <trkpt lat="41.82205" lon="9.07842">
        <ele>1214.76</ele>
        <time>2011-06-10T14:51:00Z</time>
      </trkpt>
      <trkpt lat="41.82208" lon="9.07865">
        <ele>1211.768</ele>
        <time>2011-06-10T14:51:05Z</time>
      </trkpt>
      <trkpt lat="41.82208" lon="9.07877">
        <ele>1210.898</ele>
        <time>2011-06-10T14:51:07Z</time>
      </trkpt>
      <trkpt lat="41.82195" lon="9.07915">
        <ele>1207.983</ele>
        <time>2011-06-10T14:51:13Z</time>
      </trkpt>
      <trkpt lat="41.82189" lon="9.07942">
        <ele>1206.568</ele>
        <time>2011-06-10T14:51:17Z</time>
      </trkpt>
      <trkpt lat="41.82186" lon="9.07957">
        <ele>1205.458</ele>
        <time>2011-06-10T14:51:19Z</time>
      </trkpt>
      <trkpt lat="41.82187" lon="9.07985">
        <ele>1206.98</ele>
        <time>2011-06-10T14:51:26Z</time>
      </trkpt>
      <trkpt lat="41.82187" lon="9.07985">
        <ele>1208.627</ele>
        <time>2011-06-10T14:51:40Z</time>
      </trkpt>
      <trkpt lat="41.82187" lon="9.07985">
        <ele>1209.094</ele>
        <time>2011-06-10T14:51:43Z</time>
      </trkpt>
      <trkpt lat="41.8221" lon="9.0802">
        <ele>1212.602</ele>
        <time>2011-06-10T14:51:53Z</time>
      </trkpt>
      <trkpt lat="41.82212" lon="9.08021">
        <ele>1212.814</ele>
        <time>2011-06-10T14:51:54Z</time>
      </trkpt>
      <trkpt lat="41.82216" lon="9.08024">
        <ele>1214.391</ele>
        <time>2011-06-10T14:51:56Z</time>
      </trkpt>
      <trkpt lat="41.82219" lon="9.08027">
        <ele>1215.378</ele>
        <time>2011-06-10T14:51:58Z</time>
      </trkpt>
      <trkpt lat="41.82219" lon="9.08027">
        <ele>1216.576</ele>
        <time>2011-06-10T14:52:11Z</time>
      </trkpt>
      <trkpt lat="41.82219" lon="9.08027">
        <ele>1219.485</ele>
        <time>2011-06-10T14:52:24Z</time>
      </trkpt>
      <trkpt lat="41.82219" lon="9.08027">
        <ele>1220.279</ele>
        <time>2011-06-10T14:52:40Z</time>
      </trkpt>
      <trkpt lat="41.82219" lon="9.08027">
        <ele>1221.306</ele>
        <time>2011-06-10T14:53:16Z</time>
      </trkpt>
      <trkpt lat="41.82219" lon="9.08027">
        <ele>1223.163</ele>
        <time>2011-06-10T14:53:30Z</time>
      </trkpt>
      <trkpt lat="41.82219" lon="9.08027">
        <ele>1225.352</ele>
        <time>2011-06-10T14:53:48Z</time>
      </trkpt>
      <trkpt lat="41.82219" lon="9.08027">
        <ele>1226.546</ele>
        <time>2011-06-10T14:54:00Z</time>
      </trkpt>
      <trkpt lat="41.82219" lon="9.08027">
        <ele>1228.87</ele>
        <time>2011-06-10T14:54:18Z</time>
      </trkpt>
      <trkpt lat="41.82219" lon="9.08027">
        <ele>1230.659</ele>
        <time>2011-06-10T14:56:36Z</time>
      </trkpt>
      <trkpt lat="41.82219" lon="9.08027">
        <ele>1228.558</ele>
        <time>2011-06-10T14:56:39Z</time>
      </trkpt>
      <trkpt lat="41.82257" lon="9.08086">
        <ele>1227.048</ele>
        <time>2011-06-10T14:56:43Z</time>
      </trkpt>
      <trkpt lat="41.82255" lon="9.08102">
        <ele>1224.333</ele>
        <time>2011-06-10T14:56:47Z</time>
      </trkpt>
      <trkpt lat="41.82237" lon="9.08114">
        <ele>1222.682</ele>
        <time>2011-06-10T14:56:50Z</time>
      </trkpt>
      <trkpt lat="41.82236" lon="9.08119">
        <ele>1219.377</ele>
        <time>2011-06-10T14:56:55Z</time>
      </trkpt>
      <trkpt lat="41.82236" lon="9.08119">
        <ele>1218.439</ele>
        <time>2011-06-10T14:56:57Z</time>
      </trkpt>
      <trkpt lat="41.82236" lon="9.08119">
        <ele>1216.148</ele>
        <time>2011-06-10T14:57:00Z</time>
      </trkpt>
      <trkpt lat="41.82236" lon="9.08119">
        <ele>1217.135</ele>
        <time>2011-06-10T14:57:04Z</time>
      </trkpt>
      <trkpt lat="41.82263" lon="9.08175">
        <ele>1213.704</ele>
        <time>2011-06-10T14:57:08Z</time>
      </trkpt>
      <trkpt lat="41.82263" lon="9.08175">
        <ele>1213.949</ele>
        <time>2011-06-10T14:57:09Z</time>
      </trkpt>
      <trkpt lat="41.82253" lon="9.08202">
        <ele>1215.802</ele>
        <time>2011-06-10T14:57:17Z</time>
      </trkpt>
      <trkpt lat="41.82255" lon="9.08209">
        <ele>1216.969</ele>
        <time>2011-06-10T14:57:28Z</time>
      </trkpt>
      <trkpt lat="41.82255" lon="9.08209">
        <ele>1218.298</ele>
        <time>2011-06-10T14:57:35Z</time>
      </trkpt>
      <trkpt lat="41.82255" lon="9.08209">
        <ele>1217.892</ele>
        <time>2011-06-10T14:57:39Z</time>
      </trkpt>
      <trkpt lat="41.82222" lon="9.08241">
        <ele>1217.216</ele>
        <time>2011-06-10T14:57:51Z</time>
      </trkpt>
      <trkpt lat="41.82217" lon="9.08246">
        <ele>1216.25</ele>
        <time>2011-06-10T14:57:53Z</time>
      </trkpt>
      <trkpt lat="41.82217" lon="9.08251">
        <ele>1215.442</ele>
        <time>2011-06-10T14:57:55Z</time>
      </trkpt>
      <trkpt lat="41.82217" lon="9.08265">
        <ele>1212.662</ele>
        <time>2011-06-10T14:58:00Z</time>
      </trkpt>
      <trkpt lat="41.82218" lon="9.0828">
        <ele>1208.59</ele>
        <time>2011-06-10T14:58:05Z</time>
      </trkpt>
      <trkpt lat="41.82218" lon="9.08291">
        <ele>1205.346</ele>
        <time>2011-06-10T14:58:11Z</time>
      </trkpt>
      <trkpt lat="41.82219" lon="9.08296">
        <ele>1204.077</ele>
        <time>2011-06-10T14:58:14Z</time>
      </trkpt>
      <trkpt lat="41.82221" lon="9.08298">
        <ele>1202.015</ele>
        <time>2011-06-10T14:58:17Z</time>
      </trkpt>
      <trkpt lat="41.82222" lon="9.08301">
        <ele>1202.006</ele>
        <time>2011-06-10T14:58:35Z</time>
      </trkpt>
      <trkpt lat="41.82228" lon="9.08305">
        <ele>1201.063</ele>
        <time>2011-06-10T14:58:41Z</time>
      </trkpt>
      <trkpt lat="41.82229" lon="9.08329">
        <ele>1195.945</ele>
        <time>2011-06-10T14:58:46Z</time>
      </trkpt>
      <trkpt lat="41.82226" lon="9.08332">
        <ele>1194.36</ele>
        <time>2011-06-10T14:58:47Z</time>
      </trkpt>
      <trkpt lat="41.82219" lon="9.08346">
        <ele>1192.279</ele>
        <time>2011-06-10T14:58:49Z</time>
      </trkpt>
      <trkpt lat="41.82208" lon="9.08399">
        <ele>1192.088</ele>
        <time>2011-06-10T14:58:55Z</time>
      </trkpt>
      <trkpt lat="41.82201" lon="9.08447">
        <ele>1192.702</ele>
        <time>2011-06-10T14:59:04Z</time>
      </trkpt>
      <trkpt lat="41.82201" lon="9.08447">
        <ele>1192.503</ele>
        <time>2011-06-10T14:59:27Z</time>
      </trkpt>
      <trkpt lat="41.82193" lon="9.08411">
        <ele>1192.728</ele>
        <time>2011-06-10T14:59:32Z</time>
      </trkpt>
      <trkpt lat="41.82191" lon="9.08402">
        <ele>1193.433</ele>
        <time>2011-06-10T14:59:45Z</time>
      </trkpt>
      <trkpt lat="41.82191" lon="9.08402">
        <ele>1189.243</ele>
        <time>2011-06-10T14:59:54Z</time>
      </trkpt>
      <trkpt lat="41.82191" lon="9.08402">
        <ele>1194.922</ele>
        <time>2011-06-10T14:59:55Z</time>
      </trkpt>
      <trkpt lat="41.82166" lon="9.08388">
        <ele>1193.367</ele>
        <time>2011-06-10T15:00:17Z</time>
      </trkpt>
      <trkpt lat="41.82133" lon="9.08376">
        <ele>1191.84</ele>
        <time>2011-06-10T15:00:28Z</time>
      </trkpt>
      <trkpt lat="41.82099" lon="9.08367">
        <ele>1190.966</ele>
        <time>2011-06-10T15:00:40Z</time>
      </trkpt>
      <trkpt lat="41.82095" lon="9.08364">
        <ele>1190.734</ele>
        <time>2011-06-10T15:00:41Z</time>
      </trkpt>
      <trkpt lat="41.82088" lon="9.08359">
        <ele>1188.642</ele>
        <time>2011-06-10T15:00:43Z</time>
      </trkpt>
      <trkpt lat="41.82072" lon="9.08345">
        <ele>1186.135</ele>
        <time>2011-06-10T15:00:49Z</time>
      </trkpt>
      <trkpt lat="41.82059" lon="9.08329">
        <ele>1183.416</ele>
        <time>2011-06-10T15:00:56Z</time>
      </trkpt>
      <trkpt lat="41.82059" lon="9.08329">
        <ele>1184.467</ele>
        <time>2011-06-10T15:01:05Z</time>
      </trkpt>
      <trkpt lat="41.82054" lon="9.08321">
        <ele>1181.88</ele>
        <time>2011-06-10T15:01:39Z</time>
      </trkpt>
      <trkpt lat="41.82044" lon="9.083">
        <ele>1179.729</ele>
        <time>2011-06-10T15:01:51Z</time>
      </trkpt>
      <trkpt lat="41.82043" lon="9.08298">
        <ele>1179.739</ele>
        <time>2011-06-10T15:01:52Z</time>
      </trkpt>
      <trkpt lat="41.82035" lon="9.08293">
        <ele>1179.127</ele>
        <time>2011-06-10T15:02:02Z</time>
      </trkpt>
      <trkpt lat="41.82027" lon="9.08288">
        <ele>1178.231</ele>
        <time>2011-06-10T15:02:06Z</time>
      </trkpt>
      <trkpt lat="41.82022" lon="9.08283">
        <ele>1177.834</ele>
        <time>2011-06-10T15:02:10Z</time>
      </trkpt>
      <trkpt lat="41.82007" lon="9.0827">
        <ele>1176.559</ele>
        <time>2011-06-10T15:02:18Z</time>
      </trkpt>
      <trkpt lat="41.82005" lon="9.08268">
        <ele>1176.548</ele>
        <time>2011-06-10T15:02:32Z</time>
      </trkpt>
      <trkpt lat="41.81994" lon="9.08261">
        <ele>1174.261</ele>
        <time>2011-06-10T15:02:37Z</time>
      </trkpt>
      <trkpt lat="41.81977" lon="9.08254">
        <ele>1171.198</ele>
        <time>2011-06-10T15:02:49Z</time>
      </trkpt>
      <trkpt lat="41.81955" lon="9.08246">
        <ele>1168.145</ele>
        <time>2011-06-10T15:02:57Z</time>
      </trkpt>
      <trkpt lat="41.81932" lon="9.08234">
        <ele>1165.602</ele>
        <time>2011-06-10T15:03:08Z</time>
      </trkpt>
      <trkpt lat="41.81932" lon="9.08234">
        <ele>1163.378</ele>
        <time>2011-06-10T15:03:23Z</time>
      </trkpt>
      <trkpt lat="41.81932" lon="9.08234">
        <ele>1163.299</ele>
        <time>2011-06-10T15:03:24Z</time>
      </trkpt>
      <trkpt lat="41.81911" lon="9.08235">
        <ele>1159.461</ele>
        <time>2011-06-10T15:03:33Z</time>
      </trkpt>
      <trkpt lat="41.81904" lon="9.08235">
        <ele>1157.959</ele>
        <time>2011-06-10T15:03:38Z</time>
      </trkpt>
      <trkpt lat="41.81881" lon="9.08227">
        <ele>1154.883</ele>
        <time>2011-06-10T15:03:49Z</time>
      </trkpt>
      <trkpt lat="41.81866" lon="9.08224">
        <ele>1151.928</ele>
        <time>2011-06-10T15:04:01Z</time>
      </trkpt>
      <trkpt lat="41.81843" lon="9.08218">
        <ele>1149.329</ele>
        <time>2011-06-10T15:04:11Z</time>
      </trkpt>
      <trkpt lat="41.81843" lon="9.08218">
        <ele>1149.872</ele>
        <time>2011-06-10T15:04:21Z</time>
      </trkpt>
      <trkpt lat="41.81829" lon="9.08216">
        <ele>1146.748</ele>
        <time>2011-06-10T15:05:30Z</time>
      </trkpt>
      <trkpt lat="41.81816" lon="9.08214">
        <ele>1143.515</ele>
        <time>2011-06-10T15:05:36Z</time>
      </trkpt>
      <trkpt lat="41.81812" lon="9.08213">
        <ele>1141.742</ele>
        <time>2011-06-10T15:05:39Z</time>
      </trkpt>
      <trkpt lat="41.81802" lon="9.08213">
        <ele>1138.148</ele>
        <time>2011-06-10T15:05:45Z</time>
      </trkpt>
      <trkpt lat="41.81794" lon="9.08211">
        <ele>1136.749</ele>
        <time>2011-06-10T15:05:55Z</time>
      </trkpt>
      <trkpt lat="41.81791" lon="9.08209">
        <ele>1135.686</ele>
        <time>2011-06-10T15:06:08Z</time>
      </trkpt>
      <trkpt lat="41.8178" lon="9.08209">
        <ele>1133.512</ele>
        <time>2011-06-10T15:06:14Z</time>
      </trkpt>
      <trkpt lat="41.8177" lon="9.08206">
        <ele>1132.683</ele>
        <time>2011-06-10T15:06:18Z</time>
      </trkpt>
      <trkpt lat="41.81757" lon="9.08202">
        <ele>1128.809</ele>
        <time>2011-06-10T15:06:24Z</time>
      </trkpt>
      <trkpt lat="41.81747" lon="9.08202">
        <ele>1126.818</ele>
        <time>2011-06-10T15:06:27Z</time>
      </trkpt>
      <trkpt lat="41.8173" lon="9.08202">
        <ele>1124.26</ele>
        <time>2011-06-10T15:06:37Z</time>
      </trkpt>
      <trkpt lat="41.81729" lon="9.08202">
        <ele>1123.226</ele>
        <time>2011-06-10T15:06:55Z</time>
      </trkpt>
      <trkpt lat="41.81729" lon="9.08202">
        <ele>1122.704</ele>
        <time>2011-06-10T15:07:14Z</time>
      </trkpt>
      <trkpt lat="41.81717" lon="9.08202">
        <ele>1122.294</ele>
        <time>2011-06-10T15:07:26Z</time>
      </trkpt>
      <trkpt lat="41.81717" lon="9.08202">
        <ele>1120.212</ele>
        <time>2011-06-10T15:09:54Z</time>
      </trkpt>
      <trkpt lat="41.81717" lon="9.08202">
        <ele>1119.088</ele>
        <time>2011-06-10T15:10:09Z</time>
      </trkpt>
      <trkpt lat="41.81717" lon="9.08202">
        <ele>1117.883</ele>
        <time>2011-06-10T15:10:16Z</time>
      </trkpt>
      <trkpt lat="41.81682" lon="9.08202">
        <ele>1115.601</ele>
        <time>2011-06-10T15:10:27Z</time>
      </trkpt>
      <trkpt lat="41.81673" lon="9.08202">
        <ele>1113.678</ele>
        <time>2011-06-10T15:10:33Z</time>
      </trkpt>
      <trkpt lat="41.81658" lon="9.08202">
        <ele>1111.268</ele>
        <time>2011-06-10T15:10:39Z</time>
      </trkpt>
      <trkpt lat="41.8165" lon="9.08205">
        <ele>1109.296</ele>
        <time>2011-06-10T15:10:43Z</time>
      </trkpt>
      <trkpt lat="41.81634" lon="9.08213">
        <ele>1107.349</ele>
        <time>2011-06-10T15:10:47Z</time>
      </trkpt>
      <trkpt lat="41.8161" lon="9.08209">
        <ele>1106.23</ele>
        <time>2011-06-10T15:10:52Z</time>
      </trkpt>
      <trkpt lat="41.81596" lon="9.08202">
        <ele>1105.95</ele>
        <time>2011-06-10T15:11:01Z</time>
      </trkpt>
      <trkpt lat="41.81586" lon="9.08201">
        <ele>1102.469</ele>
        <time>2011-06-10T15:11:33Z</time>
      </trkpt>
      <trkpt lat="41.81583" lon="9.08201">
        <ele>1101.845</ele>
        <time>2011-06-10T15:11:35Z</time>
      </trkpt>
      <trkpt lat="41.81577" lon="9.08199">
        <ele>1099.328</ele>
        <time>2011-06-10T15:11:39Z</time>
      </trkpt>
      <trkpt lat="41.81577" lon="9.08199">
        <ele>1098.8</ele>
        <time>2011-06-10T15:11:42Z</time>
      </trkpt>
      <trkpt lat="41.81573" lon="9.08196">
        <ele>1097.23</ele>
        <time>2011-06-10T15:11:55Z</time>
      </trkpt>
      <trkpt lat="41.81573" lon="9.08196">
        <ele>1096.552</ele>
        <time>2011-06-10T15:12:00Z</time>
      </trkpt>
      <trkpt lat="41.8156" lon="9.08192">
        <ele>1095.128</ele>
        <time>2011-06-10T15:12:03Z</time>
      </trkpt>
      <trkpt lat="41.81556" lon="9.08194">
        <ele>1092.076</ele>
        <time>2011-06-10T15:12:13Z</time>
      </trkpt>
      <trkpt lat="41.81545" lon="9.08192">
        <ele>1090.911</ele>
        <time>2011-06-10T15:12:18Z</time>
      </trkpt>
      <trkpt lat="41.8154" lon="9.08193">
        <ele>1089.275</ele>
        <time>2011-06-10T15:12:30Z</time>
      </trkpt>
      <trkpt lat="41.81527" lon="9.08192">
        <ele>1087.334</ele>
        <time>2011-06-10T15:12:38Z</time>
      </trkpt>
      <trkpt lat="41.8152" lon="9.08192">
        <ele>1086.493</ele>
        <time>2011-06-10T15:12:43Z</time>
      </trkpt>
      <trkpt lat="41.81513" lon="9.08189">
        <ele>1085.643</ele>
        <time>2011-06-10T15:12:50Z</time>
      </trkpt>
      <trkpt lat="41.81513" lon="9.08189">
        <ele>1085.177</ele>
        <time>2011-06-10T15:12:53Z</time>
      </trkpt>
      <trkpt lat="41.81507" lon="9.08182">
        <ele>1083.106</ele>
        <time>2011-06-10T15:13:04Z</time>
      </trkpt>
      <trkpt lat="41.81507" lon="9.08182">
        <ele>1083.014</ele>
        <time>2011-06-10T15:13:05Z</time>
      </trkpt>
      <trkpt lat="41.81497" lon="9.08179">
        <ele>1081.731</ele>
        <time>2011-06-10T15:13:08Z</time>
      </trkpt>
      <trkpt lat="41.81497" lon="9.08179">
        <ele>1081.671</ele>
        <time>2011-06-10T15:13:09Z</time>
      </trkpt>
      <trkpt lat="41.81489" lon="9.08175">
        <ele>1078.568</ele>
        <time>2011-06-10T15:13:21Z</time>
      </trkpt>
      <trkpt lat="41.81489" lon="9.08175">
        <ele>1079.028</ele>
        <time>2011-06-10T15:14:16Z</time>
      </trkpt>
      <trkpt lat="41.81489" lon="9.08175">
        <ele>1076.099</ele>
        <time>2011-06-10T15:18:14Z</time>
      </trkpt>
      <trkpt lat="41.81477" lon="9.08175">
        <ele>1074.237</ele>
        <time>2011-06-10T15:18:18Z</time>
      </trkpt>
      <trkpt lat="41.81475" lon="9.08176">
        <ele>1070.948</ele>
        <time>2011-06-10T15:18:28Z</time>
      </trkpt>
      <trkpt lat="41.81458" lon="9.08176">
        <ele>1068.53</ele>
        <time>2011-06-10T15:18:39Z</time>
      </trkpt>
      <trkpt lat="41.81449" lon="9.08175">
        <ele>1065.14</ele>
        <time>2011-06-10T15:18:47Z</time>
      </trkpt>
      <trkpt lat="41.81433" lon="9.08172">
        <ele>1061.648</ele>
        <time>2011-06-10T15:18:53Z</time>
      </trkpt>
      <trkpt lat="41.81431" lon="9.08171">
        <ele>1061.343</ele>
        <time>2011-06-10T15:18:54Z</time>
      </trkpt>
      <trkpt lat="41.81424" lon="9.0817">
        <ele>1059.805</ele>
        <time>2011-06-10T15:18:57Z</time>
      </trkpt>
      <trkpt lat="41.81424" lon="9.0817">
        <ele>1058.796</ele>
        <time>2011-06-10T15:18:59Z</time>
      </trkpt>
      <trkpt lat="41.81403" lon="9.0817">
        <ele>1055.568</ele>
        <time>2011-06-10T15:19:08Z</time>
      </trkpt>
      <trkpt lat="41.81392" lon="9.08168">
        <ele>1053.247</ele>
        <time>2011-06-10T15:19:12Z</time>
      </trkpt>
      <trkpt lat="41.81375" lon="9.08164">
        <ele>1049.509</ele>
        <time>2011-06-10T15:19:19Z</time>
      </trkpt>
      <trkpt lat="41.81352" lon="9.08162">
        <ele>1046.203</ele>
        <time>2011-06-10T15:19:25Z</time>
      </trkpt>
      <trkpt lat="41.81334" lon="9.08163">
        <ele>1043.1</ele>
        <time>2011-06-10T15:19:30Z</time>
      </trkpt>
      <trkpt lat="41.81322" lon="9.08164">
        <ele>1039.909</ele>
        <time>2011-06-10T15:19:35Z</time>
      </trkpt>
      <trkpt lat="41.81317" lon="9.08164">
        <ele>1037.276</ele>
        <time>2011-06-10T15:19:39Z</time>
      </trkpt>
      <trkpt lat="41.81298" lon="9.08177">
        <ele>1033.339</ele>
        <time>2011-06-10T15:19:47Z</time>
      </trkpt>
      <trkpt lat="41.81296" lon="9.08179">
        <ele>1033.164</ele>
        <time>2011-06-10T15:19:48Z</time>
      </trkpt>
      <trkpt lat="41.81293" lon="9.08181">
        <ele>1031.632</ele>
        <time>2011-06-10T15:19:54Z</time>
      </trkpt>
      <trkpt lat="41.81288" lon="9.08184">
        <ele>1030.796</ele>
        <time>2011-06-10T15:20:14Z</time>
      </trkpt>
      <trkpt lat="41.81282" lon="9.08184">
        <ele>1029.371</ele>
        <time>2011-06-10T15:20:57Z</time>
      </trkpt>
      <trkpt lat="41.81282" lon="9.08184">
        <ele>1027.986</ele>
        <time>2011-06-10T15:21:11Z</time>
      </trkpt>
      <trkpt lat="41.81269" lon="9.08185">
        <ele>1027.02</ele>
        <time>2011-06-10T15:21:14Z</time>
      </trkpt>
      <trkpt lat="41.81257" lon="9.08181">
        <ele>1024.387</ele>
        <time>2011-06-10T15:21:20Z</time>
      </trkpt>
      <trkpt lat="41.81246" lon="9.08175">
        <ele>1022.545</ele>
        <time>2011-06-10T15:21:26Z</time>
      </trkpt>
      <trkpt lat="41.81223" lon="9.08179">
        <ele>1020.204</ele>
        <time>2011-06-10T15:21:37Z</time>
      </trkpt>
      <trkpt lat="41.81204" lon="9.08182">
        <ele>1018.186</ele>
        <time>2011-06-10T15:21:47Z</time>
      </trkpt>
      <trkpt lat="41.81184" lon="9.08185">
        <ele>1016.518</ele>
        <time>2011-06-10T15:21:57Z</time>
      </trkpt>
      <trkpt lat="41.81175" lon="9.08187">
        <ele>1015.488</ele>
        <time>2011-06-10T15:22:02Z</time>
      </trkpt>
      <trkpt lat="41.81165" lon="9.08184">
        <ele>1014.912</ele>
        <time>2011-06-10T15:22:09Z</time>
      </trkpt>
      <trkpt lat="41.81163" lon="9.08181">
        <ele>1014.977</ele>
        <time>2011-06-10T15:22:16Z</time>
      </trkpt>
      <trkpt lat="41.81166" lon="9.08187">
        <ele>1014.722</ele>
        <time>2011-06-10T15:22:20Z</time>
      </trkpt>
      <trkpt lat="41.81168" lon="9.08194">
        <ele>1014.475</ele>
        <time>2011-06-10T15:22:32Z</time>
      </trkpt>
      <trkpt lat="41.81172" lon="9.0821">
        <ele>1012.896</ele>
        <time>2011-06-10T15:23:05Z</time>
      </trkpt>
      <trkpt lat="41.81183" lon="9.08232">
        <ele>1007.972</ele>
        <time>2011-06-10T15:23:08Z</time>
      </trkpt>
      <trkpt lat="41.81191" lon="9.08247">
        <ele>1007.561</ele>
        <time>2011-06-10T15:23:10Z</time>
      </trkpt>
      <trkpt lat="41.81195" lon="9.08298">
        <ele>1006.725</ele>
        <time>2011-06-10T15:23:16Z</time>
      </trkpt>
      <trkpt lat="41.81192" lon="9.08325">
        <ele>1005.513</ele>
        <time>2011-06-10T15:23:19Z</time>
      </trkpt>
      <trkpt lat="41.81159" lon="9.08362">
        <ele>1000.97</ele>
        <time>2011-06-10T15:23:26Z</time>
      </trkpt>
      <trkpt lat="41.81151" lon="9.08363">
        <ele>998.505</ele>
        <time>2011-06-10T15:23:27Z</time>
      </trkpt>
      <trkpt lat="41.8108" lon="9.08351">
        <ele>995.108</ele>
        <time>2011-06-10T15:23:37Z</time>
      </trkpt>
      <trkpt lat="41.81061" lon="9.08352">
        <ele>993.171</ele>
        <time>2011-06-10T15:23:40Z</time>
      </trkpt>
      <trkpt lat="41.81034" lon="9.08362">
        <ele>991.318</ele>
        <time>2011-06-10T15:23:44Z</time>
      </trkpt>
      <trkpt lat="41.81021" lon="9.08363">
        <ele>992.569</ele>
        <time>2011-06-10T15:23:46Z</time>
      </trkpt>
      <trkpt lat="41.81015" lon="9.08361">
        <ele>992.126</ele>
        <time>2011-06-10T15:23:47Z</time>
      </trkpt>
      <trkpt lat="41.80996" lon="9.08399">
        <ele>989.727</ele>
        <time>2011-06-10T15:23:54Z</time>
      </trkpt>
      <trkpt lat="41.80995" lon="9.08406">
        <ele>989.241</ele>
        <time>2011-06-10T15:23:55Z</time>
      </trkpt>
      <trkpt lat="41.80991" lon="9.08439">
        <ele>985.255</ele>
        <time>2011-06-10T15:23:59Z</time>
      </trkpt>
      <trkpt lat="41.80997" lon="9.08466">
        <ele>983.64</ele>
        <time>2011-06-10T15:24:02Z</time>
      </trkpt>
      <trkpt lat="41.81023" lon="9.08491">
        <ele>980.238</ele>
        <time>2011-06-10T15:24:07Z</time>
      </trkpt>
      <trkpt lat="41.81032" lon="9.08504">
        <ele>978.111</ele>
        <time>2011-06-10T15:24:09Z</time>
      </trkpt>
      <trkpt lat="41.81054" lon="9.08537">
        <ele>974.758</ele>
        <time>2011-06-10T15:24:16Z</time>
      </trkpt>
      <trkpt lat="41.81058" lon="9.08552">
        <ele>971.738</ele>
        <time>2011-06-10T15:24:20Z</time>
      </trkpt>
      <trkpt lat="41.81081" lon="9.08573">
        <ele>969.223</ele>
        <time>2011-06-10T15:24:26Z</time>
      </trkpt>
      <trkpt lat="41.81099" lon="9.0858">
        <ele>967.901</ele>
        <time>2011-06-10T15:24:30Z</time>
      </trkpt>
      <trkpt lat="41.81121" lon="9.08599">
        <ele>964.713</ele>
        <time>2011-06-10T15:24:35Z</time>
      </trkpt>
      <trkpt lat="41.81125" lon="9.08596">
        <ele>963.298</ele>
        <time>2011-06-10T15:24:39Z</time>
      </trkpt>
      <trkpt lat="41.81125" lon="9.08596">
        <ele>962.93</ele>
        <time>2011-06-10T15:25:01Z</time>
      </trkpt>
      <trkpt lat="41.81141" lon="9.08585">
        <ele>958.955</ele>
        <time>2011-06-10T15:25:07Z</time>
      </trkpt>
      <trkpt lat="41.81148" lon="9.08582">
        <ele>958.126</ele>
        <time>2011-06-10T15:25:09Z</time>
      </trkpt>
      <trkpt lat="41.81158" lon="9.08587">
        <ele>955.633</ele>
        <time>2011-06-10T15:25:18Z</time>
      </trkpt>
      <trkpt lat="41.81158" lon="9.08587">
        <ele>955.694</ele>
        <time>2011-06-10T15:27:08Z</time>
      </trkpt>
      <trkpt lat="41.81145" lon="9.08599">
        <ele>957.005</ele>
        <time>2011-06-10T15:27:19Z</time>
      </trkpt>
      <trkpt lat="41.81121" lon="9.0862">
        <ele>957.793</ele>
        <time>2011-06-10T15:27:31Z</time>
      </trkpt>
      <trkpt lat="41.8107" lon="9.0864">
        <ele>957.102</ele>
        <time>2011-06-10T15:27:44Z</time>
      </trkpt>
      <trkpt lat="41.81057" lon="9.08635">
        <ele>956.559</ele>
        <time>2011-06-10T15:27:47Z</time>
      </trkpt>
      <trkpt lat="41.81013" lon="9.08625">
        <ele>958.446</ele>
        <time>2011-06-10T15:27:58Z</time>
      </trkpt>
      <trkpt lat="41.81005" lon="9.08625">
        <ele>957.568</ele>
        <time>2011-06-10T15:28:00Z</time>
      </trkpt>
      <trkpt lat="41.80991" lon="9.08623">
        <ele>955.724</ele>
        <time>2011-06-10T15:28:03Z</time>
      </trkpt>
      <trkpt lat="41.80985" lon="9.0862">
        <ele>955.469</ele>
        <time>2011-06-10T15:28:04Z</time>
      </trkpt>
      <trkpt lat="41.8096" lon="9.08614">
        <ele>958.436</ele>
        <time>2011-06-10T15:28:10Z</time>
      </trkpt>
      <trkpt lat="41.80936" lon="9.08587">
        <ele>955.944</ele>
        <time>2011-06-10T15:28:19Z</time>
      </trkpt>
      <trkpt lat="41.80921" lon="9.08574">
        <ele>955.429</ele>
        <time>2011-06-10T15:28:23Z</time>
      </trkpt>
      <trkpt lat="41.80889" lon="9.08569">
        <ele>952.775</ele>
        <time>2011-06-10T15:28:28Z</time>
      </trkpt>
      <trkpt lat="41.80878" lon="9.08563">
        <ele>951.763</ele>
        <time>2011-06-10T15:28:30Z</time>
      </trkpt>
      <trkpt lat="41.80855" lon="9.08546">
        <ele>946.857</ele>
        <time>2011-06-10T15:28:35Z</time>
      </trkpt>
      <trkpt lat="41.80851" lon="9.08543">
        <ele>946.883</ele>
        <time>2011-06-10T15:28:36Z</time>
      </trkpt>
      <trkpt lat="41.80836" lon="9.08538">
        <ele>943.222</ele>
        <time>2011-06-10T15:28:40Z</time>
      </trkpt>
      <trkpt lat="41.80831" lon="9.08535">
        <ele>942.368</ele>
        <time>2011-06-10T15:28:41Z</time>
      </trkpt>
      <trkpt lat="41.80821" lon="9.08529">
        <ele>939.583</ele>
        <time>2011-06-10T15:28:43Z</time>
      </trkpt>
      <trkpt lat="41.80795" lon="9.0851">
        <ele>936.636</ele>
        <time>2011-06-10T15:28:47Z</time>
      </trkpt>
      <trkpt lat="41.80769" lon="9.08501">
        <ele>933.287</ele>
        <time>2011-06-10T15:28:51Z</time>
      </trkpt>
      <trkpt lat="41.80764" lon="9.085">
        <ele>932.604</ele>
        <time>2011-06-10T15:28:52Z</time>
      </trkpt>
      <trkpt lat="41.80755" lon="9.08497">
        <ele>931.177</ele>
        <time>2011-06-10T15:28:54Z</time>
      </trkpt>
      <trkpt lat="41.80739" lon="9.08484">
        <ele>926.563</ele>
        <time>2011-06-10T15:28:58Z</time>
      </trkpt>
      <trkpt lat="41.80728" lon="9.08472">
        <ele>923.951</ele>
        <time>2011-06-10T15:29:00Z</time>
      </trkpt>
      <trkpt lat="41.80713" lon="9.08428">
        <ele>920.58</ele>
        <time>2011-06-10T15:29:07Z</time>
      </trkpt>
      <trkpt lat="41.80714" lon="9.08423">
        <ele>919.844</ele>
        <time>2011-06-10T15:29:09Z</time>
      </trkpt>
      <trkpt lat="41.80709" lon="9.08427">
        <ele>917.322</ele>
        <time>2011-06-10T15:29:13Z</time>
      </trkpt>
      <trkpt lat="41.80671" lon="9.08441">
        <ele>909.801</ele>
        <time>2011-06-10T15:29:19Z</time>
      </trkpt>
      <trkpt lat="41.80647" lon="9.08454">
        <ele>905.669</ele>
        <time>2011-06-10T15:29:22Z</time>
      </trkpt>
      <trkpt lat="41.80621" lon="9.08471">
        <ele>901.391</ele>
        <time>2011-06-10T15:29:25Z</time>
      </trkpt>
      <trkpt lat="41.80597" lon="9.08487">
        <ele>898.917</ele>
        <time>2011-06-10T15:29:28Z</time>
      </trkpt>
      <trkpt lat="41.80577" lon="9.08488">
        <ele>897.627</ele>
        <time>2011-06-10T15:29:31Z</time>
      </trkpt>
      <trkpt lat="41.80552" lon="9.08493">
        <ele>894.963</ele>
        <time>2011-06-10T15:29:36Z</time>
      </trkpt>
      <trkpt lat="41.80516" lon="9.08522">
        <ele>892.371</ele>
        <time>2011-06-10T15:29:42Z</time>
      </trkpt>
      <trkpt lat="41.80499" lon="9.08531">
        <ele>889.019</ele>
        <time>2011-06-10T15:29:45Z</time>
      </trkpt>
      <trkpt lat="41.80492" lon="9.08529">
        <ele>886.793</ele>
        <time>2011-06-10T15:29:46Z</time>
      </trkpt>
      <trkpt lat="41.80458" lon="9.08535">
        <ele>882.714</ele>
        <time>2011-06-10T15:29:50Z</time>
      </trkpt>
      <trkpt lat="41.80433" lon="9.08533">
        <ele>882.286</ele>
        <time>2011-06-10T15:29:53Z</time>
      </trkpt>
      <trkpt lat="41.80402" lon="9.08549">
        <ele>884.509</ele>
        <time>2011-06-10T15:29:57Z</time>
      </trkpt>
      <trkpt lat="41.80384" lon="9.08594">
        <ele>889.349</ele>
        <time>2011-06-10T15:30:04Z</time>
      </trkpt>
      <trkpt lat="41.80369" lon="9.08608">
        <ele>888.74</ele>
        <time>2011-06-10T15:30:09Z</time>
      </trkpt>
      <trkpt lat="41.80359" lon="9.08605">
        <ele>887.358</ele>
        <time>2011-06-10T15:30:12Z</time>
      </trkpt>
      <trkpt lat="41.80355" lon="9.08602">
        <ele>887.32</ele>
        <time>2011-06-10T15:30:13Z</time>
      </trkpt>
      <trkpt lat="41.80336" lon="9.08577">
        <ele>887.03</ele>
        <time>2011-06-10T15:30:19Z</time>
      </trkpt>
      <trkpt lat="41.80322" lon="9.08556">
        <ele>890.664</ele>
        <time>2011-06-10T15:30:26Z</time>
      </trkpt>
      <trkpt lat="41.80312" lon="9.08541">
        <ele>891.569</ele>
        <time>2011-06-10T15:30:30Z</time>
      </trkpt>
      <trkpt lat="41.80307" lon="9.08536">
        <ele>891.511</ele>
        <time>2011-06-10T15:30:53Z</time>
      </trkpt>
      <trkpt lat="41.80307" lon="9.08536">
        <ele>891.25</ele>
        <time>2011-06-10T15:31:13Z</time>
      </trkpt>
      <trkpt lat="41.80294" lon="9.08506">
        <ele>888.351</ele>
        <time>2011-06-10T15:31:17Z</time>
      </trkpt>
      <trkpt lat="41.80275" lon="9.08475">
        <ele>884.243</ele>
        <time>2011-06-10T15:31:21Z</time>
      </trkpt>
      <trkpt lat="41.80261" lon="9.08426">
        <ele>880.762</ele>
        <time>2011-06-10T15:31:26Z</time>
      </trkpt>
      <trkpt lat="41.80233" lon="9.08395">
        <ele>882.398</ele>
        <time>2011-06-10T15:31:33Z</time>
      </trkpt>
      <trkpt lat="41.80217" lon="9.08385">
        <ele>883.744</ele>
        <time>2011-06-10T15:31:36Z</time>
      </trkpt>
      <trkpt lat="41.80205" lon="9.08365">
        <ele>885.137</ele>
        <time>2011-06-10T15:31:41Z</time>
      </trkpt>
      <trkpt lat="41.80188" lon="9.08341">
        <ele>887.286</ele>
        <time>2011-06-10T15:31:48Z</time>
      </trkpt>
      <trkpt lat="41.80171" lon="9.08313">
        <ele>887.031</ele>
        <time>2011-06-10T15:31:56Z</time>
      </trkpt>
      <trkpt lat="41.80166" lon="9.08292">
        <ele>884.914</ele>
        <time>2011-06-10T15:31:59Z</time>
      </trkpt>
      <trkpt lat="41.8016" lon="9.08263">
        <ele>885.714</ele>
        <time>2011-06-10T15:32:03Z</time>
      </trkpt>
      <trkpt lat="41.80153" lon="9.08237">
        <ele>885.445</ele>
        <time>2011-06-10T15:32:12Z</time>
      </trkpt>
      <trkpt lat="41.80145" lon="9.08213">
        <ele>882.002</ele>
        <time>2011-06-10T15:33:26Z</time>
      </trkpt>
      <trkpt lat="41.80136" lon="9.08188">
        <ele>878.364</ele>
        <time>2011-06-10T15:33:32Z</time>
      </trkpt>
      <trkpt lat="41.8013" lon="9.0818">
        <ele>876.233</ele>
        <time>2011-06-10T15:33:34Z</time>
      </trkpt>
      <trkpt lat="41.80115" lon="9.08162">
        <ele>871.488</ele>
        <time>2011-06-10T15:33:37Z</time>
      </trkpt>
      <trkpt lat="41.80106" lon="9.08161">
        <ele>870.993</ele>
        <time>2011-06-10T15:33:38Z</time>
      </trkpt>
      <trkpt lat="41.80062" lon="9.08147">
        <ele>872.42</ele>
        <time>2011-06-10T15:33:46Z</time>
      </trkpt>
      <trkpt lat="41.8004" lon="9.08132">
        <ele>872.118</ele>
        <time>2011-06-10T15:33:52Z</time>
      </trkpt>
      <trkpt lat="41.80035" lon="9.08132">
        <ele>871.685</ele>
        <time>2011-06-10T15:33:53Z</time>
      </trkpt>
      <trkpt lat="41.80023" lon="9.08133">
        <ele>871.542</ele>
        <time>2011-06-10T15:33:55Z</time>
      </trkpt>
      <trkpt lat="41.79983" lon="9.08137">
        <ele>871.681</ele>
        <time>2011-06-10T15:34:06Z</time>
      </trkpt>
      <trkpt lat="41.79983" lon="9.08137">
        <ele>871.744</ele>
        <time>2011-06-10T15:34:22Z</time>
      </trkpt>
      <trkpt lat="41.79974" lon="9.08134">
        <ele>870.287</ele>
        <time>2011-06-10T15:35:15Z</time>
      </trkpt>
      <trkpt lat="41.79972" lon="9.08146">
        <ele>868.257</ele>
        <time>2011-06-10T15:35:22Z</time>
      </trkpt>
      <trkpt lat="41.79998" lon="9.08166">
        <ele>863.951</ele>
        <time>2011-06-10T15:35:28Z</time>
      </trkpt>
      <trkpt lat="41.8002" lon="9.0818">
        <ele>860.737</ele>
        <time>2011-06-10T15:35:31Z</time>
      </trkpt>
      <trkpt lat="41.80027" lon="9.08184">
        <ele>860.536</ele>
        <time>2011-06-10T15:35:32Z</time>
      </trkpt>
      <trkpt lat="41.80063" lon="9.08205">
        <ele>856.866</ele>
        <time>2011-06-10T15:35:37Z</time>
      </trkpt>
      <trkpt lat="41.80076" lon="9.08217">
        <ele>856.403</ele>
        <time>2011-06-10T15:35:39Z</time>
      </trkpt>
      <trkpt lat="41.80079" lon="9.08245">
        <ele>855.536</ele>
        <time>2011-06-10T15:35:44Z</time>
      </trkpt>
      <trkpt lat="41.80074" lon="9.08276">
        <ele>852.394</ele>
        <time>2011-06-10T15:35:48Z</time>
      </trkpt>
      <trkpt lat="41.80068" lon="9.08301">
        <ele>851.122</ele>
        <time>2011-06-10T15:35:51Z</time>
      </trkpt>
      <trkpt lat="41.80061" lon="9.08333">
        <ele>849.39</ele>
        <time>2011-06-10T15:35:55Z</time>
      </trkpt>
      <trkpt lat="41.80071" lon="9.08389">
        <ele>843.472</ele>
        <time>2011-06-10T15:36:01Z</time>
      </trkpt>
      <trkpt lat="41.80083" lon="9.08403">
        <ele>843.748</ele>
        <time>2011-06-10T15:36:03Z</time>
      </trkpt>
      <trkpt lat="41.80097" lon="9.08426">
        <ele>844.004</ele>
        <time>2011-06-10T15:36:06Z</time>
      </trkpt>
      <trkpt lat="41.8012" lon="9.08441">
        <ele>841.829</ele>
        <time>2011-06-10T15:36:11Z</time>
      </trkpt>
      <trkpt lat="41.80131" lon="9.08452">
        <ele>839.626</ele>
        <time>2011-06-10T15:36:18Z</time>
      </trkpt>
      <trkpt lat="41.80129" lon="9.08452">
        <ele>839.415</ele>
        <time>2011-06-10T15:36:19Z</time>
      </trkpt>
      <trkpt lat="41.80116" lon="9.08454">
        <ele>837.05</ele>
        <time>2011-06-10T15:36:23Z</time>
      </trkpt>
      <trkpt lat="41.80099" lon="9.08456">
        <ele>834.471</ele>
        <time>2011-06-10T15:36:26Z</time>
      </trkpt>
      <trkpt lat="41.80082" lon="9.08448">
        <ele>829.073</ele>
        <time>2011-06-10T15:36:30Z</time>
      </trkpt>
      <trkpt lat="41.80078" lon="9.08443">
        <ele>828.877</ele>
        <time>2011-06-10T15:36:31Z</time>
      </trkpt>
      <trkpt lat="41.80069" lon="9.08433">
        <ele>826.965</ele>
        <time>2011-06-10T15:36:33Z</time>
      </trkpt>
      <trkpt lat="41.80059" lon="9.08423">
        <ele>825.554</ele>
        <time>2011-06-10T15:36:35Z</time>
      </trkpt>
      <trkpt lat="41.80054" lon="9.08442">
        <ele>822.242</ele>
        <time>2011-06-10T15:36:40Z</time>
      </trkpt>
      <trkpt lat="41.80055" lon="9.08458">
        <ele>820.216</ele>
        <time>2011-06-10T15:36:43Z</time>
      </trkpt>
      <trkpt lat="41.80055" lon="9.08461">
        <ele>819.916</ele>
        <time>2011-06-10T15:36:50Z</time>
      </trkpt>
      <trkpt lat="41.80053" lon="9.08474">
        <ele>816.773</ele>
        <time>2011-06-10T15:37:07Z</time>
      </trkpt>
      <trkpt lat="41.80061" lon="9.08508">
        <ele>813.271</ele>
        <time>2011-06-10T15:37:11Z</time>
      </trkpt>
      <trkpt lat="41.80056" lon="9.08522">
        <ele>809.918</ele>
        <time>2011-06-10T15:37:17Z</time>
      </trkpt>
      <trkpt lat="41.80046" lon="9.08521">
        <ele>808.013</ele>
        <time>2011-06-10T15:37:24Z</time>
      </trkpt>
      <trkpt lat="41.80055" lon="9.08545">
        <ele>804.903</ele>
        <time>2011-06-10T15:37:33Z</time>
      </trkpt>
      <trkpt lat="41.80055" lon="9.0855">
        <ele>804.423</ele>
        <time>2011-06-10T15:37:35Z</time>
      </trkpt>
      <trkpt lat="41.80053" lon="9.08557">
        <ele>804.11</ele>
        <time>2011-06-10T15:37:38Z</time>
      </trkpt>
      <trkpt lat="41.80052" lon="9.08562">
        <ele>804.215</ele>
        <time>2011-06-10T15:37:57Z</time>
      </trkpt>
      <trkpt lat="41.80042" lon="9.08581">
        <ele>804.425</ele>
        <time>2011-06-10T15:38:09Z</time>
      </trkpt>
      <trkpt lat="41.80034" lon="9.08591">
        <ele>806.464</ele>
        <time>2011-06-10T15:38:20Z</time>
      </trkpt>
      <trkpt lat="41.80029" lon="9.08601">
        <ele>809.5</ele>
        <time>2011-06-10T15:38:37Z</time>
      </trkpt>
      <trkpt lat="41.80017" lon="9.08615">
        <ele>811.74</ele>
        <time>2011-06-10T15:38:52Z</time>
      </trkpt>
      <trkpt lat="41.80007" lon="9.08617">
        <ele>813.288</ele>
        <time>2011-06-10T15:39:02Z</time>
      </trkpt>
      <trkpt lat="41.8" lon="9.08603">
        <ele>815.405</ele>
        <time>2011-06-10T15:39:20Z</time>
      </trkpt>
      <trkpt lat="41.8" lon="9.086">
        <ele>814.674</ele>
        <time>2011-06-10T15:39:45Z</time>
      </trkpt>
      <trkpt lat="41.80003" lon="9.08594">
        <ele>817.724</ele>
        <time>2011-06-10T15:43:25Z</time>
      </trkpt>
      <trkpt lat="41.8" lon="9.08576">
        <ele>820.271</ele>
        <time>2011-06-10T15:43:42Z</time>
      </trkpt>
      <trkpt lat="41.79999" lon="9.08575">
        <ele>820.42</ele>
        <time>2011-06-10T15:43:44Z</time>
      </trkpt>
      <trkpt lat="41.7999" lon="9.08559">
        <ele>822.421</ele>
        <time>2011-06-10T15:44:00Z</time>
      </trkpt>
      <trkpt lat="41.7998" lon="9.08559">
        <ele>824.712</ele>
        <time>2011-06-10T15:44:17Z</time>
      </trkpt>
      <trkpt lat="41.79972" lon="9.0856">
        <ele>825.964</ele>
        <time>2011-06-10T15:44:26Z</time>
      </trkpt>
      <trkpt lat="41.79964" lon="9.08563">
        <ele>826.804</ele>
        <time>2011-06-10T15:44:43Z</time>
      </trkpt>
      <trkpt lat="41.79947" lon="9.08568">
        <ele>828.039</ele>
        <time>2011-06-10T15:45:10Z</time>
      </trkpt>
      <trkpt lat="41.79931" lon="9.0857">
        <ele>830.468</ele>
        <time>2011-06-10T15:45:22Z</time>
      </trkpt>
      <trkpt lat="41.7992" lon="9.08573">
        <ele>831.903</ele>
        <time>2011-06-10T15:45:30Z</time>
      </trkpt>
      <trkpt lat="41.79904" lon="9.08575">
        <ele>833.28</ele>
        <time>2011-06-10T15:45:44Z</time>
      </trkpt>
      <trkpt lat="41.79884" lon="9.08586">
        <ele>833.449</ele>
        <time>2011-06-10T15:45:55Z</time>
      </trkpt>
      <trkpt lat="41.79853" lon="9.08589">
        <ele>834.016</ele>
        <time>2011-06-10T15:46:09Z</time>
      </trkpt>
      <trkpt lat="41.79823" lon="9.08585">
        <ele>835.403</ele>
        <time>2011-06-10T15:46:22Z</time>
      </trkpt>
      <trkpt lat="41.79804" lon="9.08575">
        <ele>836.745</ele>
        <time>2011-06-10T15:46:31Z</time>
      </trkpt>
      <trkpt lat="41.79799" lon="9.0857">
        <ele>836.835</ele>
        <time>2011-06-10T15:46:39Z</time>
      </trkpt>
      <trkpt lat="41.79784" lon="9.08558">
        <ele>837.638</ele>
        <time>2011-06-10T15:46:49Z</time>
      </trkpt>
      <trkpt lat="41.79756" lon="9.08548">
        <ele>838.271</ele>
        <time>2011-06-10T15:47:03Z</time>
      </trkpt>
      <trkpt lat="41.79746" lon="9.08547">
        <ele>836.792</ele>
        <time>2011-06-10T15:47:07Z</time>
      </trkpt>
      <trkpt lat="41.79743" lon="9.08547">
        <ele>836.632</ele>
        <time>2011-06-10T15:47:08Z</time>
      </trkpt>
      <trkpt lat="41.79727" lon="9.08545">
        <ele>835.525</ele>
        <time>2011-06-10T15:47:11Z</time>
      </trkpt>
      <trkpt lat="41.79709" lon="9.08547">
        <ele>834.882</ele>
        <time>2011-06-10T15:47:15Z</time>
      </trkpt>
      <trkpt lat="41.79694" lon="9.08546">
        <ele>835.003</ele>
        <time>2011-06-10T15:47:19Z</time>
      </trkpt>
      <trkpt lat="41.79676" lon="9.08541">
        <ele>835.852</ele>
        <time>2011-06-10T15:47:23Z</time>
      </trkpt>
      <trkpt lat="41.79639" lon="9.08528">
        <ele>838.357</ele>
        <time>2011-06-10T15:47:34Z</time>
      </trkpt>
      <trkpt lat="41.7959" lon="9.08516">
        <ele>840.676</ele>
        <time>2011-06-10T15:47:48Z</time>
      </trkpt>
      <trkpt lat="41.79538" lon="9.08507">
        <ele>843.768</ele>
        <time>2011-06-10T15:48:02Z</time>
      </trkpt>
      <trkpt lat="41.7949" lon="9.08507">
        <ele>845.663</ele>
        <time>2011-06-10T15:48:17Z</time>
      </trkpt>
      <trkpt lat="41.79438" lon="9.08498">
        <ele>848.261</ele>
        <time>2011-06-10T15:48:33Z</time>
      </trkpt>
      <trkpt lat="41.79436" lon="9.08497">
        <ele>848.546</ele>
        <time>2011-06-10T15:48:35Z</time>
      </trkpt>
      <trkpt lat="41.7948" lon="9.08507">
        <ele>848.867</ele>
        <time>2011-06-10T15:48:51Z</time>
      </trkpt>
      <trkpt lat="41.7948" lon="9.08507">
        <ele>848.774</ele>
        <time>2011-06-10T15:49:27Z</time>
      </trkpt>
      <trkpt lat="41.7944" lon="9.08519">
        <ele>848.859</ele>
        <time>2011-06-10T15:49:33Z</time>
      </trkpt>
      <trkpt lat="41.79455" lon="9.08557">
        <ele>851.742</ele>
        <time>2011-06-10T15:49:45Z</time>
      </trkpt>
      <trkpt lat="41.79466" lon="9.086">
        <ele>853.362</ele>
        <time>2011-06-10T15:49:58Z</time>
      </trkpt>
      <trkpt lat="41.79468" lon="9.08614">
        <ele>854.988</ele>
        <time>2011-06-10T15:50:03Z</time>
      </trkpt>
      <trkpt lat="41.79476" lon="9.08643">
        <ele>853.704</ele>
        <time>2011-06-10T15:50:13Z</time>
      </trkpt>
      <trkpt lat="41.79529" lon="9.08695">
        <ele>854.237</ele>
        <time>2011-06-10T15:50:26Z</time>
      </trkpt>
      <trkpt lat="41.79541" lon="9.08709">
        <ele>855.317</ele>
        <time>2011-06-10T15:50:30Z</time>
      </trkpt>
      <trkpt lat="41.79562" lon="9.08722">
        <ele>854.37</ele>
        <time>2011-06-10T15:50:35Z</time>
      </trkpt>
      <trkpt lat="41.79586" lon="9.08728">
        <ele>854.203</ele>
        <time>2011-06-10T15:50:40Z</time>
      </trkpt>
      <trkpt lat="41.79606" lon="9.08737">
        <ele>854.627</ele>
        <time>2011-06-10T15:50:44Z</time>
      </trkpt>
      <trkpt lat="41.79623" lon="9.08746">
        <ele>855.103</ele>
        <time>2011-06-10T15:50:48Z</time>
      </trkpt>
      <trkpt lat="41.79656" lon="9.08779">
        <ele>858.227</ele>
        <time>2011-06-10T15:51:02Z</time>
      </trkpt>
      <trkpt lat="41.79661" lon="9.088">
        <ele>861.337</ele>
        <time>2011-06-10T15:51:11Z</time>
      </trkpt>
      <trkpt lat="41.79644" lon="9.0883">
        <ele>864.14</ele>
        <time>2011-06-10T15:51:23Z</time>
      </trkpt>
      <trkpt lat="41.79641" lon="9.08853">
        <ele>866.295</ele>
        <time>2011-06-10T15:51:31Z</time>
      </trkpt>
      <trkpt lat="41.79651" lon="9.08873">
        <ele>868.709</ele>
        <time>2011-06-10T15:51:42Z</time>
      </trkpt>
      <trkpt lat="41.79657" lon="9.08885">
        <ele>869.649</ele>
        <time>2011-06-10T15:51:47Z</time>
      </trkpt>
      <trkpt lat="41.79674" lon="9.08915">
        <ele>872.899</ele>
        <time>2011-06-10T15:52:02Z</time>
      </trkpt>
      <trkpt lat="41.79688" lon="9.08939">
        <ele>875.868</ele>
        <time>2011-06-10T15:52:16Z</time>
      </trkpt>
      <trkpt lat="41.79705" lon="9.08963">
        <ele>878.025</ele>
        <time>2011-06-10T15:52:30Z</time>
      </trkpt>
      <trkpt lat="41.79712" lon="9.08969">
        <ele>878.731</ele>
        <time>2011-06-10T15:52:35Z</time>
      </trkpt>
      <trkpt lat="41.7972" lon="9.08972">
        <ele>878.561</ele>
        <time>2011-06-10T15:52:44Z</time>
      </trkpt>
      <trkpt lat="41.7972" lon="9.08972">
        <ele>880.365</ele>
        <time>2011-06-10T15:52:46Z</time>
      </trkpt>
      <trkpt lat="41.79737" lon="9.08989">
        <ele>882.961</ele>
        <time>2011-06-10T15:55:07Z</time>
      </trkpt>
      <trkpt lat="41.79738" lon="9.09027">
        <ele>885.923</ele>
        <time>2011-06-10T15:55:18Z</time>
      </trkpt>
      <trkpt lat="41.79738" lon="9.09067">
        <ele>888.901</ele>
        <time>2011-06-10T15:55:31Z</time>
      </trkpt>
      <trkpt lat="41.79734" lon="9.09093">
        <ele>891.996</ele>
        <time>2011-06-10T15:55:42Z</time>
      </trkpt>
      <trkpt lat="41.79732" lon="9.09095">
        <ele>892.517</ele>
        <time>2011-06-10T15:55:44Z</time>
      </trkpt>
      <trkpt lat="41.79728" lon="9.09095">
        <ele>893.297</ele>
        <time>2011-06-10T15:55:48Z</time>
      </trkpt>
      <trkpt lat="41.79703" lon="9.09091">
        <ele>895.784</ele>
        <time>2011-06-10T15:56:01Z</time>
      </trkpt>
      <trkpt lat="41.79682" lon="9.09091">
        <ele>898.012</ele>
        <time>2011-06-10T15:56:11Z</time>
      </trkpt>
      <trkpt lat="41.79661" lon="9.09092">
        <ele>900.62</ele>
        <time>2011-06-10T15:56:22Z</time>
      </trkpt>
      <trkpt lat="41.79637" lon="9.09101">
        <ele>903.37</ele>
        <time>2011-06-10T15:56:37Z</time>
      </trkpt>
      <trkpt lat="41.79614" lon="9.09111">
        <ele>906.045</ele>
        <time>2011-06-10T15:56:49Z</time>
      </trkpt>
      <trkpt lat="41.79598" lon="9.09119">
        <ele>909.112</ele>
        <time>2011-06-10T15:56:58Z</time>
      </trkpt>
      <trkpt lat="41.79575" lon="9.09131">
        <ele>911.65</ele>
        <time>2011-06-10T15:57:11Z</time>
      </trkpt>
      <trkpt lat="41.79569" lon="9.09132">
        <ele>911.937</ele>
        <time>2011-06-10T15:57:14Z</time>
      </trkpt>
      <trkpt lat="41.79568" lon="9.09133">
        <ele>912.165</ele>
        <time>2011-06-10T15:57:32Z</time>
      </trkpt>
      <trkpt lat="41.79548" lon="9.0914">
        <ele>913.354</ele>
        <time>2011-06-10T15:57:44Z</time>
      </trkpt>
      <trkpt lat="41.79529" lon="9.09127">
        <ele>916.173</ele>
        <time>2011-06-10T15:57:56Z</time>
      </trkpt>
      <trkpt lat="41.7952" lon="9.0912">
        <ele>919.07</ele>
        <time>2011-06-10T15:58:05Z</time>
      </trkpt>
      <trkpt lat="41.79507" lon="9.09133">
        <ele>921.85</ele>
        <time>2011-06-10T15:58:17Z</time>
      </trkpt>
      <trkpt lat="41.79506" lon="9.09136">
        <ele>922.511</ele>
        <time>2011-06-10T15:58:19Z</time>
      </trkpt>
      <trkpt lat="41.79497" lon="9.09151">
        <ele>924.648</ele>
        <time>2011-06-10T15:58:30Z</time>
      </trkpt>
      <trkpt lat="41.79486" lon="9.0917">
        <ele>927.416</ele>
        <time>2011-06-10T15:58:42Z</time>
      </trkpt>
      <trkpt lat="41.79479" lon="9.09168">
        <ele>927.665</ele>
        <time>2011-06-10T15:58:50Z</time>
      </trkpt>
      <trkpt lat="41.79477" lon="9.09167">
        <ele>927.27</ele>
        <time>2011-06-10T15:59:03Z</time>
      </trkpt>
      <trkpt lat="41.79477" lon="9.09167">
        <ele>927.08</ele>
        <time>2011-06-10T16:01:56Z</time>
      </trkpt>
      <trkpt lat="41.79443" lon="9.09164">
        <ele>925.14</ele>
        <time>2011-06-10T16:02:06Z</time>
      </trkpt>
      <trkpt lat="41.79428" lon="9.09165">
        <ele>924.133</ele>
        <time>2011-06-10T16:02:09Z</time>
      </trkpt>
      <trkpt lat="41.79407" lon="9.09165">
        <ele>923.946</ele>
        <time>2011-06-10T16:02:13Z</time>
      </trkpt>
      <trkpt lat="41.79385" lon="9.09164">
        <ele>922.898</ele>
        <time>2011-06-10T16:02:17Z</time>
      </trkpt>
      <trkpt lat="41.79362" lon="9.09154">
        <ele>922.027</ele>
        <time>2011-06-10T16:02:21Z</time>
      </trkpt>
      <trkpt lat="41.79333" lon="9.09126">
        <ele>921.694</ele>
        <time>2011-06-10T16:02:27Z</time>
      </trkpt>
      <trkpt lat="41.7931" lon="9.09114">
        <ele>920.727</ele>
        <time>2011-06-10T16:02:31Z</time>
      </trkpt>
      <trkpt lat="41.79285" lon="9.09091">
        <ele>919.438</ele>
        <time>2011-06-10T16:02:36Z</time>
      </trkpt>
      <trkpt lat="41.7927" lon="9.09061">
        <ele>918.4</ele>
        <time>2011-06-10T16:02:40Z</time>
      </trkpt>
      <trkpt lat="41.79242" lon="9.09052">
        <ele>918.947</ele>
        <time>2011-06-10T16:02:45Z</time>
      </trkpt>
      <trkpt lat="41.79219" lon="9.09068">
        <ele>916.525</ele>
        <time>2011-06-10T16:02:49Z</time>
      </trkpt>
      <trkpt lat="41.79176" lon="9.09096">
        <ele>914.919</ele>
        <time>2011-06-10T16:02:56Z</time>
      </trkpt>
      <trkpt lat="41.79149" lon="9.09088">
        <ele>916.533</ele>
        <time>2011-06-10T16:03:03Z</time>
      </trkpt>
      <trkpt lat="41.79149" lon="9.09088">
        <ele>909.693</ele>
        <time>2011-06-10T16:03:12Z</time>
      </trkpt>
      <trkpt lat="41.79149" lon="9.09088">
        <ele>913.621</ele>
        <time>2011-06-10T16:03:13Z</time>
      </trkpt>
      <trkpt lat="41.79149" lon="9.09088">
        <ele>907.868</ele>
        <time>2011-06-10T16:03:14Z</time>
      </trkpt>
      <trkpt lat="41.79149" lon="9.09088">
        <ele>916.971</ele>
        <time>2011-06-10T16:03:15Z</time>
      </trkpt>
      <trkpt lat="41.79149" lon="9.09088">
        <ele>914.892</ele>
        <time>2011-06-10T16:03:16Z</time>
      </trkpt>
      <trkpt lat="41.79149" lon="9.09088">
        <ele>915.88</ele>
        <time>2011-06-10T16:03:23Z</time>
      </trkpt>
      <trkpt lat="41.79149" lon="9.09088">
        <ele>912.133</ele>
        <time>2011-06-10T16:03:42Z</time>
      </trkpt>
      <trkpt lat="41.79149" lon="9.09088">
        <ele>917.349</ele>
        <time>2011-06-10T16:03:43Z</time>
      </trkpt>
      <trkpt lat="41.79149" lon="9.09088">
        <ele>917.518</ele>
        <time>2011-06-10T16:03:44Z</time>
      </trkpt>
      <trkpt lat="41.79149" lon="9.09088">
        <ele>908.289</ele>
        <time>2011-06-10T16:03:45Z</time>
      </trkpt>
      <trkpt lat="41.79149" lon="9.09088">
        <ele>914.498</ele>
        <time>2011-06-10T16:03:46Z</time>
      </trkpt>
      <trkpt lat="41.79149" lon="9.09088">
        <ele>915.51</ele>
        <time>2011-06-10T16:03:48Z</time>
      </trkpt>
      <trkpt lat="41.79149" lon="9.09088">
        <ele>919.376</ele>
        <time>2011-06-10T16:03:51Z</time>
      </trkpt>
      <trkpt lat="41.79149" lon="9.09088">
        <ele>916.131</ele>
        <time>2011-06-10T16:03:52Z</time>
      </trkpt>
      <trkpt lat="41.79149" lon="9.09088">
        <ele>915.373</ele>
        <time>2011-06-10T16:03:54Z</time>
      </trkpt>
      <trkpt lat="41.79149" lon="9.09088">
        <ele>918.559</ele>
        <time>2011-06-10T16:03:59Z</time>
      </trkpt>
      <trkpt lat="41.79149" lon="9.09088">
        <ele>915.336</ele>
        <time>2011-06-10T16:04:01Z</time>
      </trkpt>
      <trkpt lat="41.79149" lon="9.09088">
        <ele>921.201</ele>
        <time>2011-06-10T16:04:55Z</time>
      </trkpt>
      <trkpt lat="41.79149" lon="9.09088">
        <ele>916.817</ele>
        <time>2011-06-10T16:04:56Z</time>
      </trkpt>
      <trkpt lat="41.79135" lon="9.09071">
        <ele>915.766</ele>
        <time>2011-06-10T16:05:13Z</time>
      </trkpt>
      <trkpt lat="41.79125" lon="9.09057">
        <ele>915.316</ele>
        <time>2011-06-10T16:05:16Z</time>
      </trkpt>
      <trkpt lat="41.79096" lon="9.09057">
        <ele>914.13</ele>
        <time>2011-06-10T16:05:23Z</time>
      </trkpt>
      <trkpt lat="41.79077" lon="9.09082">
        <ele>912.858</ele>
        <time>2011-06-10T16:05:28Z</time>
      </trkpt>
      <trkpt lat="41.79034" lon="9.09104">
        <ele>910.799</ele>
        <time>2011-06-10T16:05:37Z</time>
      </trkpt>
      <trkpt lat="41.79028" lon="9.09101">
        <ele>910.524</ele>
        <time>2011-06-10T16:05:38Z</time>
      </trkpt>
      <trkpt lat="41.79004" lon="9.09076">
        <ele>910.95</ele>
        <time>2011-06-10T16:05:43Z</time>
      </trkpt>
      <trkpt lat="41.78967" lon="9.09025">
        <ele>908.366</ele>
        <time>2011-06-10T16:05:52Z</time>
      </trkpt>
      <trkpt lat="41.78958" lon="9.09013">
        <ele>907.586</ele>
        <time>2011-06-10T16:05:54Z</time>
      </trkpt>
      <trkpt lat="41.7895" lon="9.08958">
        <ele>906.759</ele>
        <time>2011-06-10T16:06:01Z</time>
      </trkpt>
      <trkpt lat="41.78945" lon="9.0894">
        <ele>906.682</ele>
        <time>2011-06-10T16:06:04Z</time>
      </trkpt>
      <trkpt lat="41.78908" lon="9.089">
        <ele>905.723</ele>
        <time>2011-06-10T16:06:12Z</time>
      </trkpt>
      <trkpt lat="41.78873" lon="9.08891">
        <ele>905.305</ele>
        <time>2011-06-10T16:06:18Z</time>
      </trkpt>
      <trkpt lat="41.78819" lon="9.08906">
        <ele>903.635</ele>
        <time>2011-06-10T16:06:27Z</time>
      </trkpt>
      <trkpt lat="41.78796" lon="9.08899">
        <ele>903.481</ele>
        <time>2011-06-10T16:06:31Z</time>
      </trkpt>
      <trkpt lat="41.7875" lon="9.08912">
        <ele>902.293</ele>
        <time>2011-06-10T16:06:39Z</time>
      </trkpt>
      <trkpt lat="41.78746" lon="9.08918">
        <ele>901.923</ele>
        <time>2011-06-10T16:06:40Z</time>
      </trkpt>
      <trkpt lat="41.78737" lon="9.08931">
        <ele>901.577</ele>
        <time>2011-06-10T16:06:42Z</time>
      </trkpt>
      <trkpt lat="41.78706" lon="9.08942">
        <ele>900.47</ele>
        <time>2011-06-10T16:06:47Z</time>
      </trkpt>
      <trkpt lat="41.78652" lon="9.08935">
        <ele>899.77</ele>
        <time>2011-06-10T16:06:55Z</time>
      </trkpt>
      <trkpt lat="41.78603" lon="9.08901">
        <ele>898.726</ele>
        <time>2011-06-10T16:07:03Z</time>
      </trkpt>
      <trkpt lat="41.78574" lon="9.08915">
        <ele>897.984</ele>
        <time>2011-06-10T16:07:08Z</time>
      </trkpt>
      <trkpt lat="41.78501" lon="9.08972">
        <ele>894.128</ele>
        <time>2011-06-10T16:07:19Z</time>
      </trkpt>
      <trkpt lat="41.78456" lon="9.09008">
        <ele>893.03</ele>
        <time>2011-06-10T16:07:26Z</time>
      </trkpt>
      <trkpt lat="41.78427" lon="9.09018">
        <ele>892.042</ele>
        <time>2011-06-10T16:07:30Z</time>
      </trkpt>
      <trkpt lat="41.78358" lon="9.09014">
        <ele>891.239</ele>
        <time>2011-06-10T16:07:40Z</time>
      </trkpt>
      <trkpt lat="41.78346" lon="9.09015">
        <ele>891.088</ele>
        <time>2011-06-10T16:07:42Z</time>
      </trkpt>
      <trkpt lat="41.78317" lon="9.09046">
        <ele>890.103</ele>
        <time>2011-06-10T16:07:47Z</time>
      </trkpt>
      <trkpt lat="41.78304" lon="9.09103">
        <ele>887.324</ele>
        <time>2011-06-10T16:07:53Z</time>
      </trkpt>
      <trkpt lat="41.7826" lon="9.09175">
        <ele>885.598</ele>
        <time>2011-06-10T16:08:03Z</time>
      </trkpt>
      <trkpt lat="41.78237" lon="9.09187">
        <ele>884.593</ele>
        <time>2011-06-10T16:08:07Z</time>
      </trkpt>
      <trkpt lat="41.78202" lon="9.09185">
        <ele>884.636</ele>
        <time>2011-06-10T16:08:12Z</time>
      </trkpt>
      <trkpt lat="41.78176" lon="9.092">
        <ele>884.612</ele>
        <time>2011-06-10T16:08:17Z</time>
      </trkpt>
      <trkpt lat="41.78162" lon="9.09232">
        <ele>883.761</ele>
        <time>2011-06-10T16:08:21Z</time>
      </trkpt>
      <trkpt lat="41.78125" lon="9.09245">
        <ele>883.116</ele>
        <time>2011-06-10T16:08:27Z</time>
      </trkpt>
      <trkpt lat="41.78074" lon="9.09261">
        <ele>880.667</ele>
        <time>2011-06-10T16:08:35Z</time>
      </trkpt>
      <trkpt lat="41.78067" lon="9.09262">
        <ele>880.36</ele>
        <time>2011-06-10T16:08:36Z</time>
      </trkpt>
      <trkpt lat="41.7803" lon="9.09231">
        <ele>879.845</ele>
        <time>2011-06-10T16:08:43Z</time>
      </trkpt>
      <trkpt lat="41.78009" lon="9.09177">
        <ele>879.946</ele>
        <time>2011-06-10T16:08:50Z</time>
      </trkpt>
      <trkpt lat="41.77984" lon="9.0914">
        <ele>877.702</ele>
        <time>2011-06-10T16:08:55Z</time>
      </trkpt>
      <trkpt lat="41.77929" lon="9.09098">
        <ele>875.853</ele>
        <time>2011-06-10T16:09:04Z</time>
      </trkpt>
      <trkpt lat="41.77899" lon="9.09073">
        <ele>875.189</ele>
        <time>2011-06-10T16:09:09Z</time>
      </trkpt>
      <trkpt lat="41.7789" lon="9.09051">
        <ele>874.458</ele>
        <time>2011-06-10T16:09:12Z</time>
      </trkpt>
      <trkpt lat="41.77863" lon="9.0904">
        <ele>874.928</ele>
        <time>2011-06-10T16:09:17Z</time>
      </trkpt>
      <trkpt lat="41.77585" lon="9.089">
        <ele>872.998</ele>
        <time>2011-06-10T16:09:59Z</time>
      </trkpt>
      <trkpt lat="41.77419" lon="9.08999">
        <ele>862.033</ele>
        <time>2011-06-10T16:10:22Z</time>
      </trkpt>
      <trkpt lat="41.77404" lon="9.09009">
        <ele>853.445</ele>
        <time>2011-06-10T16:10:24Z</time>
      </trkpt>
      <trkpt lat="41.77398" lon="9.09013">
        <ele>853.419</ele>
        <time>2011-06-10T16:10:25Z</time>
      </trkpt>
      <trkpt lat="41.77383" lon="9.09023">
        <ele>853.029</ele>
        <time>2011-06-10T16:10:27Z</time>
      </trkpt>
      <trkpt lat="41.77327" lon="9.0903">
        <ele>850.813</ele>
        <time>2011-06-10T16:10:35Z</time>
      </trkpt>
      <trkpt lat="41.77326" lon="9.08985">
        <ele>851.827</ele>
        <time>2011-06-10T16:10:40Z</time>
      </trkpt>
      <trkpt lat="41.77345" lon="9.08945">
        <ele>850.897</ele>
        <time>2011-06-10T16:10:46Z</time>
      </trkpt>
      <trkpt lat="41.7735" lon="9.08926">
        <ele>850.729</ele>
        <time>2011-06-10T16:10:49Z</time>
      </trkpt>
      <trkpt lat="41.77352" lon="9.08863">
        <ele>850.112</ele>
        <time>2011-06-10T16:10:58Z</time>
      </trkpt>
      <trkpt lat="41.77352" lon="9.0885">
        <ele>850.193</ele>
        <time>2011-06-10T16:11:00Z</time>
      </trkpt>
      <trkpt lat="41.77352" lon="9.08828">
        <ele>849.811</ele>
        <time>2011-06-10T16:11:03Z</time>
      </trkpt>
      <trkpt lat="41.7737" lon="9.08782">
        <ele>849.415</ele>
        <time>2011-06-10T16:11:10Z</time>
      </trkpt>
      <trkpt lat="41.77408" lon="9.08728">
        <ele>848.897</ele>
        <time>2011-06-10T16:11:21Z</time>
      </trkpt>
      <trkpt lat="41.77414" lon="9.08689">
        <ele>847.924</ele>
        <time>2011-06-10T16:11:27Z</time>
      </trkpt>
      <trkpt lat="41.77416" lon="9.08666">
        <ele>847.425</ele>
        <time>2011-06-10T16:11:30Z</time>
      </trkpt>
      <trkpt lat="41.77424" lon="9.08639">
        <ele>847.475</ele>
        <time>2011-06-10T16:11:34Z</time>
      </trkpt>
      <trkpt lat="41.77435" lon="9.086">
        <ele>846.912</ele>
        <time>2011-06-10T16:11:41Z</time>
      </trkpt>
      <trkpt lat="41.77431" lon="9.08581">
        <ele>846.311</ele>
        <time>2011-06-10T16:11:44Z</time>
      </trkpt>
      <trkpt lat="41.77455" lon="9.08485">
        <ele>845.603</ele>
        <time>2011-06-10T16:12:04Z</time>
      </trkpt>
      <trkpt lat="41.77457" lon="9.08452">
        <ele>844.174</ele>
        <time>2011-06-10T16:12:11Z</time>
      </trkpt>
      <trkpt lat="41.77449" lon="9.08429">
        <ele>844.753</ele>
        <time>2011-06-10T16:12:15Z</time>
      </trkpt>
      <trkpt lat="41.77436" lon="9.08358">
        <ele>843.758</ele>
        <time>2011-06-10T16:12:28Z</time>
      </trkpt>
      <trkpt lat="41.77419" lon="9.08305">
        <ele>843.338</ele>
        <time>2011-06-10T16:12:40Z</time>
      </trkpt>
      <trkpt lat="41.77419" lon="9.08248">
        <ele>841.904</ele>
        <time>2011-06-10T16:12:52Z</time>
      </trkpt>
      <trkpt lat="41.77394" lon="9.08188">
        <ele>841.658</ele>
        <time>2011-06-10T16:13:05Z</time>
      </trkpt>
      <trkpt lat="41.77361" lon="9.08126">
        <ele>840.569</ele>
        <time>2011-06-10T16:13:19Z</time>
      </trkpt>
      <trkpt lat="41.77343" lon="9.08097">
        <ele>840.344</ele>
        <time>2011-06-10T16:13:26Z</time>
      </trkpt>
      <trkpt lat="41.77292" lon="9.08083">
        <ele>841.452</ele>
        <time>2011-06-10T16:13:40Z</time>
      </trkpt>
      <trkpt lat="41.77256" lon="9.08067">
        <ele>839.192</ele>
        <time>2011-06-10T16:13:50Z</time>
      </trkpt>
      <trkpt lat="41.77234" lon="9.08009">
        <ele>838.38</ele>
        <time>2011-06-10T16:14:03Z</time>
      </trkpt>
      <trkpt lat="41.77203" lon="9.08">
        <ele>837.962</ele>
        <time>2011-06-10T16:14:15Z</time>
      </trkpt>
      <trkpt lat="41.77203" lon="9.08">
        <ele>837.621</ele>
        <time>2011-06-10T16:14:41Z</time>
      </trkpt>
      <trkpt lat="41.77205" lon="9.08001">
        <ele>838.362</ele>
        <time>2011-06-10T16:14:57Z</time>
      </trkpt>
      <trkpt lat="41.77205" lon="9.08001">
        <ele>838.388</ele>
        <time>2011-06-10T16:15:00Z</time>
      </trkpt>
      <trkpt lat="41.77214" lon="9.08003">
        <ele>838.915</ele>
        <time>2011-06-10T16:15:15Z</time>
      </trkpt>
      <trkpt lat="41.77214" lon="9.08003">
        <ele>839.389</ele>
        <time>2011-06-10T16:16:38Z</time>
      </trkpt>
      <trkpt lat="41.77214" lon="9.08003">
        <ele>838.691</ele>
        <time>2011-06-10T16:26:41Z</time>
      </trkpt>
      <trkpt lat="41.77193" lon="9.0797">
        <ele>834.859</ele>
        <time>2011-06-10T16:26:52Z</time>
      </trkpt>
      <trkpt lat="41.77191" lon="9.07925">
        <ele>833.075</ele>
        <time>2011-06-10T16:26:57Z</time>
      </trkpt>
      <trkpt lat="41.7716" lon="9.07845">
        <ele>829.349</ele>
        <time>2011-06-10T16:27:06Z</time>
      </trkpt>
      <trkpt lat="41.77145" lon="9.07727">
        <ele>826.82</ele>
        <time>2011-06-10T16:27:17Z</time>
      </trkpt>
      <trkpt lat="41.77158" lon="9.07667">
        <ele>824.936</ele>
        <time>2011-06-10T16:27:23Z</time>
      </trkpt>
      <trkpt lat="41.77169" lon="9.07651">
        <ele>823.873</ele>
        <time>2011-06-10T16:27:25Z</time>
      </trkpt>
      <trkpt lat="41.77176" lon="9.07632">
        <ele>823.212</ele>
        <time>2011-06-10T16:27:27Z</time>
      </trkpt>
      <trkpt lat="41.7718" lon="9.07612">
        <ele>822.273</ele>
        <time>2011-06-10T16:27:29Z</time>
      </trkpt>
      <trkpt lat="41.77184" lon="9.07576">
        <ele>820.01</ele>
        <time>2011-06-10T16:27:32Z</time>
      </trkpt>
      <trkpt lat="41.77191" lon="9.07553">
        <ele>819.705</ele>
        <time>2011-06-10T16:27:34Z</time>
      </trkpt>
      <trkpt lat="41.77226" lon="9.07514">
        <ele>819.726</ele>
        <time>2011-06-10T16:27:40Z</time>
      </trkpt>
      <trkpt lat="41.77233" lon="9.07508">
        <ele>820.133</ele>
        <time>2011-06-10T16:27:42Z</time>
      </trkpt>
      <trkpt lat="41.7724" lon="9.07502">
        <ele>819.697</ele>
        <time>2011-06-10T16:27:44Z</time>
      </trkpt>
      <trkpt lat="41.77256" lon="9.07492">
        <ele>818.072</ele>
        <time>2011-06-10T16:27:48Z</time>
      </trkpt>
      <trkpt lat="41.77266" lon="9.07488">
        <ele>817.969</ele>
        <time>2011-06-10T16:27:50Z</time>
      </trkpt>
      <trkpt lat="41.77294" lon="9.07481">
        <ele>816.976</ele>
        <time>2011-06-10T16:27:55Z</time>
      </trkpt>
      <trkpt lat="41.77323" lon="9.07471">
        <ele>813.192</ele>
        <time>2011-06-10T16:28:00Z</time>
      </trkpt>
      <trkpt lat="41.77329" lon="9.07469">
        <ele>813.295</ele>
        <time>2011-06-10T16:28:01Z</time>
      </trkpt>
      <trkpt lat="41.7735" lon="9.07466">
        <ele>813.147</ele>
        <time>2011-06-10T16:28:04Z</time>
      </trkpt>
      <trkpt lat="41.77386" lon="9.07497">
        <ele>810.217</ele>
        <time>2011-06-10T16:28:10Z</time>
      </trkpt>
      <trkpt lat="41.77423" lon="9.07554">
        <ele>808.43</ele>
        <time>2011-06-10T16:28:17Z</time>
      </trkpt>
      <trkpt lat="41.77437" lon="9.0758">
        <ele>806.316</ele>
        <time>2011-06-10T16:28:20Z</time>
      </trkpt>
      <trkpt lat="41.77458" lon="9.07637">
        <ele>803.124</ele>
        <time>2011-06-10T16:28:25Z</time>
      </trkpt>
      <trkpt lat="41.77469" lon="9.07684">
        <ele>800.623</ele>
        <time>2011-06-10T16:28:29Z</time>
      </trkpt>
      <trkpt lat="41.77474" lon="9.07778">
        <ele>797.201</ele>
        <time>2011-06-10T16:28:36Z</time>
      </trkpt>
      <trkpt lat="41.77476" lon="9.07816">
        <ele>796.167</ele>
        <time>2011-06-10T16:28:39Z</time>
      </trkpt>
      <trkpt lat="41.77461" lon="9.0786">
        <ele>794.311</ele>
        <time>2011-06-10T16:28:43Z</time>
      </trkpt>
      <trkpt lat="41.77449" lon="9.0788">
        <ele>792.723</ele>
        <time>2011-06-10T16:28:45Z</time>
      </trkpt>
      <trkpt lat="41.7741" lon="9.0793">
        <ele>789.583</ele>
        <time>2011-06-10T16:28:51Z</time>
      </trkpt>
      <trkpt lat="41.77415" lon="9.07982">
        <ele>786.049</ele>
        <time>2011-06-10T16:28:56Z</time>
      </trkpt>
      <trkpt lat="41.77422" lon="9.07989">
        <ele>785.296</ele>
        <time>2011-06-10T16:28:57Z</time>
      </trkpt>
      <trkpt lat="41.77446" lon="9.08013">
        <ele>782.058</ele>
        <time>2011-06-10T16:29:00Z</time>
      </trkpt>
      <trkpt lat="41.77502" lon="9.08099">
        <ele>781.026</ele>
        <time>2011-06-10T16:29:09Z</time>
      </trkpt>
      <trkpt lat="41.77504" lon="9.08139">
        <ele>780.043</ele>
        <time>2011-06-10T16:29:13Z</time>
      </trkpt>
      <trkpt lat="41.775" lon="9.08172">
        <ele>777.624</ele>
        <time>2011-06-10T16:29:16Z</time>
      </trkpt>
      <trkpt lat="41.77509" lon="9.08215">
        <ele>775.854</ele>
        <time>2011-06-10T16:29:20Z</time>
      </trkpt>
      <trkpt lat="41.77527" lon="9.08236">
        <ele>774.593</ele>
        <time>2011-06-10T16:29:23Z</time>
      </trkpt>
      <trkpt lat="41.77534" lon="9.08242">
        <ele>773.715</ele>
        <time>2011-06-10T16:29:24Z</time>
      </trkpt>
      <trkpt lat="41.77558" lon="9.08262">
        <ele>772.082</ele>
        <time>2011-06-10T16:29:27Z</time>
      </trkpt>
      <trkpt lat="41.77592" lon="9.08303">
        <ele>772.257</ele>
        <time>2011-06-10T16:29:33Z</time>
      </trkpt>
      <trkpt lat="41.77607" lon="9.08303">
        <ele>772.049</ele>
        <time>2011-06-10T16:29:37Z</time>
      </trkpt>
      <trkpt lat="41.77611" lon="9.083">
        <ele>771.962</ele>
        <time>2011-06-10T16:29:39Z</time>
      </trkpt>
      <trkpt lat="41.77624" lon="9.08288">
        <ele>771.148</ele>
        <time>2011-06-10T16:29:47Z</time>
      </trkpt>
      <trkpt lat="41.77613" lon="9.0826">
        <ele>770.857</ele>
        <time>2011-06-10T16:29:57Z</time>
      </trkpt>
      <trkpt lat="41.77613" lon="9.0826">
        <ele>770.879</ele>
        <time>2011-06-10T16:30:22Z</time>
      </trkpt>
      <trkpt lat="41.77613" lon="9.0826">
        <ele>770.356</ele>
        <time>2011-06-10T16:31:23Z</time>
      </trkpt>
      <trkpt lat="41.77609" lon="9.08253">
        <ele>770.278</ele>
        <time>2011-06-10T16:31:27Z</time>
      </trkpt>
      <trkpt lat="41.77609" lon="9.08234">
        <ele>768.588</ele>
        <time>2011-06-10T16:31:32Z</time>
      </trkpt>
      <trkpt lat="41.77615" lon="9.08208">
        <ele>765.981</ele>
        <time>2011-06-10T16:31:36Z</time>
      </trkpt>
      <trkpt lat="41.7763" lon="9.08169">
        <ele>763.963</ele>
        <time>2011-06-10T16:31:41Z</time>
      </trkpt>
      <trkpt lat="41.77642" lon="9.08121">
        <ele>759.961</ele>
        <time>2011-06-10T16:31:46Z</time>
      </trkpt>
      <trkpt lat="41.77645" lon="9.08075">
        <ele>757.087</ele>
        <time>2011-06-10T16:31:50Z</time>
      </trkpt>
      <trkpt lat="41.77652" lon="9.08041">
        <ele>755.441</ele>
        <time>2011-06-10T16:31:53Z</time>
      </trkpt>
      <trkpt lat="41.77662" lon="9.08022">
        <ele>754.474</ele>
        <time>2011-06-10T16:31:55Z</time>
      </trkpt>
      <trkpt lat="41.77692" lon="9.07974">
        <ele>750.686</ele>
        <time>2011-06-10T16:32:00Z</time>
      </trkpt>
      <trkpt lat="41.77698" lon="9.07964">
        <ele>750.585</ele>
        <time>2011-06-10T16:32:01Z</time>
      </trkpt>
      <trkpt lat="41.77729" lon="9.07896">
        <ele>749.334</ele>
        <time>2011-06-10T16:32:07Z</time>
      </trkpt>
      <trkpt lat="41.77734" lon="9.07831">
        <ele>745.873</ele>
        <time>2011-06-10T16:32:12Z</time>
      </trkpt>
      <trkpt lat="41.77724" lon="9.07808">
        <ele>744.947</ele>
        <time>2011-06-10T16:32:14Z</time>
      </trkpt>
      <trkpt lat="41.77712" lon="9.07762">
        <ele>744.759</ele>
        <time>2011-06-10T16:32:18Z</time>
      </trkpt>
      <trkpt lat="41.77709" lon="9.07714">
        <ele>741.911</ele>
        <time>2011-06-10T16:32:22Z</time>
      </trkpt>
      <trkpt lat="41.77711" lon="9.07702">
        <ele>741.847</ele>
        <time>2011-06-10T16:32:23Z</time>
      </trkpt>
      <trkpt lat="41.77715" lon="9.07664">
        <ele>740.579</ele>
        <time>2011-06-10T16:32:26Z</time>
      </trkpt>
      <trkpt lat="41.77724" lon="9.07629">
        <ele>737.414</ele>
        <time>2011-06-10T16:32:29Z</time>
      </trkpt>
      <trkpt lat="41.77766" lon="9.07597">
        <ele>733.825</ele>
        <time>2011-06-10T16:32:34Z</time>
      </trkpt>
      <trkpt lat="41.778" lon="9.07594">
        <ele>730.356</ele>
        <time>2011-06-10T16:32:37Z</time>
      </trkpt>
      <trkpt lat="41.7781" lon="9.07597">
        <ele>730.462</ele>
        <time>2011-06-10T16:32:38Z</time>
      </trkpt>
      <trkpt lat="41.77832" lon="9.07603">
        <ele>729.635</ele>
        <time>2011-06-10T16:32:40Z</time>
      </trkpt>
      <trkpt lat="41.77882" lon="9.07595">
        <ele>726.564</ele>
        <time>2011-06-10T16:32:45Z</time>
      </trkpt>
      <trkpt lat="41.77916" lon="9.07585">
        <ele>724.849</ele>
        <time>2011-06-10T16:32:49Z</time>
      </trkpt>
      <trkpt lat="41.77956" lon="9.07587">
        <ele>722.725</ele>
        <time>2011-06-10T16:32:53Z</time>
      </trkpt>
      <trkpt lat="41.77986" lon="9.07587">
        <ele>720.925</ele>
        <time>2011-06-10T16:32:56Z</time>
      </trkpt>
      <trkpt lat="41.77997" lon="9.07589">
        <ele>720.014</ele>
        <time>2011-06-10T16:32:57Z</time>
      </trkpt>
      <trkpt lat="41.78021" lon="9.07602">
        <ele>718.579</ele>
        <time>2011-06-10T16:33:00Z</time>
      </trkpt>
      <trkpt lat="41.78029" lon="9.07606">
        <ele>718.97</ele>
        <time>2011-06-10T16:33:01Z</time>
      </trkpt>
      <trkpt lat="41.78049" lon="9.07621">
        <ele>718.547</ele>
        <time>2011-06-10T16:33:04Z</time>
      </trkpt>
      <trkpt lat="41.78074" lon="9.07607">
        <ele>719.359</ele>
        <time>2011-06-10T16:33:10Z</time>
      </trkpt>
      <trkpt lat="41.78082" lon="9.0758">
        <ele>717.755</ele>
        <time>2011-06-10T16:33:17Z</time>
      </trkpt>
      <trkpt lat="41.78088" lon="9.07557">
        <ele>716.399</ele>
        <time>2011-06-10T16:33:22Z</time>
      </trkpt>
      <trkpt lat="41.78093" lon="9.07542">
        <ele>716.798</ele>
        <time>2011-06-10T16:33:31Z</time>
      </trkpt>
      <trkpt lat="41.78093" lon="9.07542">
        <ele>716.589</ele>
        <time>2011-06-10T16:33:34Z</time>
      </trkpt>
      <trkpt lat="41.78107" lon="9.07526">
        <ele>715.614</ele>
        <time>2011-06-10T16:33:40Z</time>
      </trkpt>
      <trkpt lat="41.78136" lon="9.0752">
        <ele>714.301</ele>
        <time>2011-06-10T16:33:47Z</time>
      </trkpt>
      <trkpt lat="41.78171" lon="9.07518">
        <ele>712.51</ele>
        <time>2011-06-10T16:33:54Z</time>
      </trkpt>
      <trkpt lat="41.78193" lon="9.0751">
        <ele>710.811</ele>
        <time>2011-06-10T16:33:58Z</time>
      </trkpt>
      <trkpt lat="41.78206" lon="9.07503">
        <ele>709.952</ele>
        <time>2011-06-10T16:34:00Z</time>
      </trkpt>
      <trkpt lat="41.78231" lon="9.0749">
        <ele>708.126</ele>
        <time>2011-06-10T16:34:04Z</time>
      </trkpt>
      <trkpt lat="41.78243" lon="9.07487">
        <ele>708.451</ele>
        <time>2011-06-10T16:34:06Z</time>
      </trkpt>
      <trkpt lat="41.78262" lon="9.07486">
        <ele>708.208</ele>
        <time>2011-06-10T16:34:09Z</time>
      </trkpt>
      <trkpt lat="41.78283" lon="9.07492">
        <ele>706.247</ele>
        <time>2011-06-10T16:34:12Z</time>
      </trkpt>
      <trkpt lat="41.78308" lon="9.07485">
        <ele>706.424</ele>
        <time>2011-06-10T16:34:16Z</time>
      </trkpt>
      <trkpt lat="41.78335" lon="9.07458">
        <ele>707.368</ele>
        <time>2011-06-10T16:34:21Z</time>
      </trkpt>
      <trkpt lat="41.78343" lon="9.07448">
        <ele>707.328</ele>
        <time>2011-06-10T16:34:23Z</time>
      </trkpt>
      <trkpt lat="41.78349" lon="9.07405">
        <ele>708.672</ele>
        <time>2011-06-10T16:34:30Z</time>
      </trkpt>
      <trkpt lat="41.78344" lon="9.07394">
        <ele>709.371</ele>
        <time>2011-06-10T16:34:32Z</time>
      </trkpt>
      <trkpt lat="41.78337" lon="9.07378">
        <ele>710.282</ele>
        <time>2011-06-10T16:34:35Z</time>
      </trkpt>
      <trkpt lat="41.78334" lon="9.07368">
        <ele>711.073</ele>
        <time>2011-06-10T16:34:37Z</time>
      </trkpt>
      <trkpt lat="41.78309" lon="9.07312">
        <ele>714.245</ele>
        <time>2011-06-10T16:34:50Z</time>
      </trkpt>
      <trkpt lat="41.78284" lon="9.07263">
        <ele>715.503</ele>
        <time>2011-06-10T16:35:04Z</time>
      </trkpt>
      <trkpt lat="41.78254" lon="9.07288">
        <ele>717.108</ele>
        <time>2011-06-10T16:35:14Z</time>
      </trkpt>
      <trkpt lat="41.78223" lon="9.07308">
        <ele>718.645</ele>
        <time>2011-06-10T16:35:24Z</time>
      </trkpt>
      <trkpt lat="41.78208" lon="9.07314">
        <ele>719.238</ele>
        <time>2011-06-10T16:35:27Z</time>
      </trkpt>
      <trkpt lat="41.78187" lon="9.07314">
        <ele>720.278</ele>
        <time>2011-06-10T16:35:31Z</time>
      </trkpt>
      <trkpt lat="41.78165" lon="9.07294">
        <ele>722.196</ele>
        <time>2011-06-10T16:35:36Z</time>
      </trkpt>
      <trkpt lat="41.7813" lon="9.07254">
        <ele>724.338</ele>
        <time>2011-06-10T16:35:45Z</time>
      </trkpt>
      <trkpt lat="41.78086" lon="9.07248">
        <ele>726.326</ele>
        <time>2011-06-10T16:35:54Z</time>
      </trkpt>
      <trkpt lat="41.78066" lon="9.07236">
        <ele>727.279</ele>
        <time>2011-06-10T16:35:59Z</time>
      </trkpt>
      <trkpt lat="41.78043" lon="9.07231">
        <ele>728.675</ele>
        <time>2011-06-10T16:36:04Z</time>
      </trkpt>
      <trkpt lat="41.78034" lon="9.07232">
        <ele>728.982</ele>
        <time>2011-06-10T16:36:06Z</time>
      </trkpt>
      <trkpt lat="41.78016" lon="9.0723">
        <ele>730.07</ele>
        <time>2011-06-10T16:36:10Z</time>
      </trkpt>
      <trkpt lat="41.77983" lon="9.07214">
        <ele>732.296</ele>
        <time>2011-06-10T16:36:19Z</time>
      </trkpt>
      <trkpt lat="41.7797" lon="9.0721">
        <ele>733.073</ele>
        <time>2011-06-10T16:36:22Z</time>
      </trkpt>
      <trkpt lat="41.7795" lon="9.072">
        <ele>734.758</ele>
        <time>2011-06-10T16:36:33Z</time>
      </trkpt>
      <trkpt lat="41.7795" lon="9.072">
        <ele>734.816</ele>
        <time>2011-06-10T16:37:18Z</time>
      </trkpt>
      <trkpt lat="41.77946" lon="9.07198">
        <ele>734.932</ele>
        <time>2011-06-10T16:37:21Z</time>
      </trkpt>
      <trkpt lat="41.77912" lon="9.07179">
        <ele>736.333</ele>
        <time>2011-06-10T16:37:35Z</time>
      </trkpt>
      <trkpt lat="41.77868" lon="9.07149">
        <ele>738.894</ele>
        <time>2011-06-10T16:37:52Z</time>
      </trkpt>
      <trkpt lat="41.7783" lon="9.07112">
        <ele>740.795</ele>
        <time>2011-06-10T16:38:07Z</time>
      </trkpt>
      <trkpt lat="41.77801" lon="9.07066">
        <ele>742.846</ele>
        <time>2011-06-10T16:38:21Z</time>
      </trkpt>
      <trkpt lat="41.77785" lon="9.0701">
        <ele>744.794</ele>
        <time>2011-06-10T16:38:35Z</time>
      </trkpt>
      <trkpt lat="41.7778" lon="9.06947">
        <ele>747.361</ele>
        <time>2011-06-10T16:38:51Z</time>
      </trkpt>
      <trkpt lat="41.77754" lon="9.06902">
        <ele>749.668</ele>
        <time>2011-06-10T16:39:07Z</time>
      </trkpt>
      <trkpt lat="41.77729" lon="9.06867">
        <ele>751.888</ele>
        <time>2011-06-10T16:39:20Z</time>
      </trkpt>
      <trkpt lat="41.77708" lon="9.0683">
        <ele>753.514</ele>
        <time>2011-06-10T16:39:32Z</time>
      </trkpt>
      <trkpt lat="41.77678" lon="9.06824">
        <ele>754.875</ele>
        <time>2011-06-10T16:39:43Z</time>
      </trkpt>
      <trkpt lat="41.7765" lon="9.06836">
        <ele>757.684</ele>
        <time>2011-06-10T16:39:55Z</time>
      </trkpt>
      <trkpt lat="41.7762" lon="9.06797">
        <ele>760.311</ele>
        <time>2011-06-10T16:40:09Z</time>
      </trkpt>
      <trkpt lat="41.7759" lon="9.06776">
        <ele>762.575</ele>
        <time>2011-06-10T16:40:21Z</time>
      </trkpt>
      <trkpt lat="41.77559" lon="9.0674">
        <ele>764.564</ele>
        <time>2011-06-10T16:40:35Z</time>
      </trkpt>
      <trkpt lat="41.77539" lon="9.06705">
        <ele>765.682</ele>
        <time>2011-06-10T16:40:47Z</time>
      </trkpt>
      <trkpt lat="41.77505" lon="9.0672">
        <ele>767.822</ele>
        <time>2011-06-10T16:41:00Z</time>
      </trkpt>
      <trkpt lat="41.77477" lon="9.06691">
        <ele>769.256</ele>
        <time>2011-06-10T16:41:12Z</time>
      </trkpt>
      <trkpt lat="41.77439" lon="9.06688">
        <ele>770.241</ele>
        <time>2011-06-10T16:41:24Z</time>
      </trkpt>
      <trkpt lat="41.77398" lon="9.06675">
        <ele>772.648</ele>
        <time>2011-06-10T16:41:38Z</time>
      </trkpt>
      <trkpt lat="41.7736" lon="9.06681">
        <ele>775.314</ele>
        <time>2011-06-10T16:41:51Z</time>
      </trkpt>
      <trkpt lat="41.77339" lon="9.06659">
        <ele>776.031</ele>
        <time>2011-06-10T16:41:59Z</time>
      </trkpt>
      <trkpt lat="41.77328" lon="9.06648">
        <ele>775.905</ele>
        <time>2011-06-10T16:42:02Z</time>
      </trkpt>
      <trkpt lat="41.77321" lon="9.06641">
        <ele>776.001</ele>
        <time>2011-06-10T16:42:04Z</time>
      </trkpt>
      <trkpt lat="41.77298" lon="9.06625">
        <ele>776.277</ele>
        <time>2011-06-10T16:42:09Z</time>
      </trkpt>
      <trkpt lat="41.77246" lon="9.06588">
        <ele>778.639</ele>
        <time>2011-06-10T16:42:20Z</time>
      </trkpt>
      <trkpt lat="41.77243" lon="9.06575">
        <ele>778.662</ele>
        <time>2011-06-10T16:42:22Z</time>
      </trkpt>
      <trkpt lat="41.77239" lon="9.06555">
        <ele>779.224</ele>
        <time>2011-06-10T16:42:25Z</time>
      </trkpt>
      <trkpt lat="41.77198" lon="9.06448">
        <ele>782.128</ele>
        <time>2011-06-10T16:42:42Z</time>
      </trkpt>
      <trkpt lat="41.77185" lon="9.06416">
        <ele>783.461</ele>
        <time>2011-06-10T16:42:48Z</time>
      </trkpt>
      <trkpt lat="41.77169" lon="9.06394">
        <ele>785.854</ele>
        <time>2011-06-10T16:42:57Z</time>
      </trkpt>
      <trkpt lat="41.77153" lon="9.06376">
        <ele>786.215</ele>
        <time>2011-06-10T16:43:07Z</time>
      </trkpt>
      <trkpt lat="41.77161" lon="9.06329">
        <ele>787.833</ele>
        <time>2011-06-10T16:43:20Z</time>
      </trkpt>
      <trkpt lat="41.77178" lon="9.06289">
        <ele>789.585</ele>
        <time>2011-06-10T16:43:32Z</time>
      </trkpt>
      <trkpt lat="41.77168" lon="9.06229">
        <ele>791.728</ele>
        <time>2011-06-10T16:43:47Z</time>
      </trkpt>
      <trkpt lat="41.77147" lon="9.06163">
        <ele>793.435</ele>
        <time>2011-06-10T16:44:04Z</time>
      </trkpt>
      <trkpt lat="41.77129" lon="9.06112">
        <ele>795.276</ele>
        <time>2011-06-10T16:44:18Z</time>
      </trkpt>
      <trkpt lat="41.77107" lon="9.06069">
        <ele>797.234</ele>
        <time>2011-06-10T16:44:30Z</time>
      </trkpt>
      <trkpt lat="41.77082" lon="9.06023">
        <ele>799.538</ele>
        <time>2011-06-10T16:44:44Z</time>
      </trkpt>
      <trkpt lat="41.77047" lon="9.05969">
        <ele>801.784</ele>
        <time>2011-06-10T16:44:59Z</time>
      </trkpt>
      <trkpt lat="41.77039" lon="9.05923">
        <ele>802.717</ele>
        <time>2011-06-10T16:45:10Z</time>
      </trkpt>
      <trkpt lat="41.77005" lon="9.05912">
        <ele>805.438</ele>
        <time>2011-06-10T16:45:21Z</time>
      </trkpt>
      <trkpt lat="41.76968" lon="9.05911">
        <ele>805.826</ele>
        <time>2011-06-10T16:45:32Z</time>
      </trkpt>
      <trkpt lat="41.76957" lon="9.05865">
        <ele>807.458</ele>
        <time>2011-06-10T16:45:43Z</time>
      </trkpt>
      <trkpt lat="41.76974" lon="9.05814">
        <ele>808.802</ele>
        <time>2011-06-10T16:45:54Z</time>
      </trkpt>
      <trkpt lat="41.76956" lon="9.05752">
        <ele>812.619</ele>
        <time>2011-06-10T16:46:09Z</time>
      </trkpt>
      <trkpt lat="41.76919" lon="9.05728">
        <ele>814.237</ele>
        <time>2011-06-10T16:46:23Z</time>
      </trkpt>
      <trkpt lat="41.76913" lon="9.05689">
        <ele>815.376</ele>
        <time>2011-06-10T16:46:32Z</time>
      </trkpt>
      <trkpt lat="41.76911" lon="9.05629">
        <ele>817.833</ele>
        <time>2011-06-10T16:46:46Z</time>
      </trkpt>
      <trkpt lat="41.76887" lon="9.05581">
        <ele>819.931</ele>
        <time>2011-06-10T16:47:00Z</time>
      </trkpt>
      <trkpt lat="41.76859" lon="9.05537">
        <ele>821.688</ele>
        <time>2011-06-10T16:47:14Z</time>
      </trkpt>
      <trkpt lat="41.76839" lon="9.05497">
        <ele>824.204</ele>
        <time>2011-06-10T16:47:26Z</time>
      </trkpt>
      <trkpt lat="41.76839" lon="9.05485">
        <ele>825.363</ele>
        <time>2011-06-10T16:47:38Z</time>
      </trkpt>
      <trkpt lat="41.76839" lon="9.05485">
        <ele>825.333</ele>
        <time>2011-06-10T16:49:53Z</time>
      </trkpt>
      <trkpt lat="41.76835" lon="9.05465">
        <ele>825.594</ele>
        <time>2011-06-10T16:49:59Z</time>
      </trkpt>
      <trkpt lat="41.76818" lon="9.05424">
        <ele>826.741</ele>
        <time>2011-06-10T16:50:14Z</time>
      </trkpt>
      <trkpt lat="41.76827" lon="9.05406">
        <ele>826.821</ele>
        <time>2011-06-10T16:50:19Z</time>
      </trkpt>
      <trkpt lat="41.76862" lon="9.0538">
        <ele>829.027</ele>
        <time>2011-06-10T16:50:31Z</time>
      </trkpt>
      <trkpt lat="41.76886" lon="9.05336">
        <ele>831.199</ele>
        <time>2011-06-10T16:50:42Z</time>
      </trkpt>
      <trkpt lat="41.76912" lon="9.05325">
        <ele>833.422</ele>
        <time>2011-06-10T16:50:52Z</time>
      </trkpt>
      <trkpt lat="41.76946" lon="9.05327">
        <ele>835.525</ele>
        <time>2011-06-10T16:51:07Z</time>
      </trkpt>
      <trkpt lat="41.76979" lon="9.05325">
        <ele>837.773</ele>
        <time>2011-06-10T16:51:21Z</time>
      </trkpt>
      <trkpt lat="41.77011" lon="9.05338">
        <ele>838.383</ele>
        <time>2011-06-10T16:51:35Z</time>
      </trkpt>
      <trkpt lat="41.77026" lon="9.0534">
        <ele>839.875</ele>
        <time>2011-06-10T16:51:44Z</time>
      </trkpt>
      <trkpt lat="41.7703" lon="9.05305">
        <ele>840.863</ele>
        <time>2011-06-10T16:51:53Z</time>
      </trkpt>
      <trkpt lat="41.77018" lon="9.05291">
        <ele>841.713</ele>
        <time>2011-06-10T16:52:04Z</time>
      </trkpt>
      <trkpt lat="41.76988" lon="9.05275">
        <ele>843.27</ele>
        <time>2011-06-10T16:52:17Z</time>
      </trkpt>
      <trkpt lat="41.76948" lon="9.05248">
        <ele>845.55</ele>
        <time>2011-06-10T16:52:32Z</time>
      </trkpt>
      <trkpt lat="41.76909" lon="9.05229">
        <ele>847.878</ele>
        <time>2011-06-10T16:52:47Z</time>
      </trkpt>
      <trkpt lat="41.76863" lon="9.05222">
        <ele>849.569</ele>
        <time>2011-06-10T16:53:03Z</time>
      </trkpt>
      <trkpt lat="41.7682" lon="9.05235">
        <ele>852.214</ele>
        <time>2011-06-10T16:53:17Z</time>
      </trkpt>
      <trkpt lat="41.76789" lon="9.05228">
        <ele>854.694</ele>
        <time>2011-06-10T16:53:28Z</time>
      </trkpt>
      <trkpt lat="41.76765" lon="9.05188">
        <ele>856.858</ele>
        <time>2011-06-10T16:53:42Z</time>
      </trkpt>
      <trkpt lat="41.76728" lon="9.05161">
        <ele>859.82</ele>
        <time>2011-06-10T16:53:56Z</time>
      </trkpt>
      <trkpt lat="41.76692" lon="9.05122">
        <ele>862.503</ele>
        <time>2011-06-10T16:54:12Z</time>
      </trkpt>
      <trkpt lat="41.76661" lon="9.051">
        <ele>864.607</ele>
        <time>2011-06-10T16:54:27Z</time>
      </trkpt>
      <trkpt lat="41.76637" lon="9.05083">
        <ele>866.259</ele>
        <time>2011-06-10T16:54:39Z</time>
      </trkpt>
      <trkpt lat="41.76619" lon="9.05053">
        <ele>868.883</ele>
        <time>2011-06-10T16:54:51Z</time>
      </trkpt>
      <trkpt lat="41.76619" lon="9.0501">
        <ele>871.02</ele>
        <time>2011-06-10T16:55:04Z</time>
      </trkpt>
      <trkpt lat="41.76629" lon="9.0498">
        <ele>872.866</ele>
        <time>2011-06-10T16:55:14Z</time>
      </trkpt>
      <trkpt lat="41.76635" lon="9.04972">
        <ele>873.7</ele>
        <time>2011-06-10T16:55:18Z</time>
      </trkpt>
      <trkpt lat="41.76641" lon="9.04967">
        <ele>874.708</ele>
        <time>2011-06-10T16:55:23Z</time>
      </trkpt>
      <trkpt lat="41.76643" lon="9.04964">
        <ele>875.032</ele>
        <time>2011-06-10T16:55:38Z</time>
      </trkpt>
      <trkpt lat="41.76643" lon="9.04964">
        <ele>874.073</ele>
        <time>2011-06-10T17:02:32Z</time>
      </trkpt>
      <trkpt lat="41.76668" lon="9.04958">
        <ele>875.784</ele>
        <time>2011-06-10T17:02:45Z</time>
      </trkpt>
      <trkpt lat="41.76706" lon="9.04955">
        <ele>878.888</ele>
        <time>2011-06-10T17:03:03Z</time>
      </trkpt>
      <trkpt lat="41.76729" lon="9.04951">
        <ele>880.251</ele>
        <time>2011-06-10T17:03:16Z</time>
      </trkpt>
      <trkpt lat="41.76751" lon="9.04933">
        <ele>881.661</ele>
        <time>2011-06-10T17:03:31Z</time>
      </trkpt>
      <trkpt lat="41.76755" lon="9.04898">
        <ele>883.887</ele>
        <time>2011-06-10T17:03:46Z</time>
      </trkpt>
      <trkpt lat="41.76757" lon="9.04839">
        <ele>886.245</ele>
        <time>2011-06-10T17:04:06Z</time>
      </trkpt>
      <trkpt lat="41.7674" lon="9.0481">
        <ele>887.562</ele>
        <time>2011-06-10T17:04:19Z</time>
      </trkpt>
      <trkpt lat="41.76718" lon="9.04766">
        <ele>890.219</ele>
        <time>2011-06-10T17:04:37Z</time>
      </trkpt>
      <trkpt lat="41.76731" lon="9.0473">
        <ele>893.032</ele>
        <time>2011-06-10T17:04:51Z</time>
      </trkpt>
      <trkpt lat="41.76734" lon="9.0469">
        <ele>894.677</ele>
        <time>2011-06-10T17:05:04Z</time>
      </trkpt>
      <trkpt lat="41.76745" lon="9.04651">
        <ele>896.684</ele>
        <time>2011-06-10T17:05:18Z</time>
      </trkpt>
      <trkpt lat="41.76781" lon="9.04657">
        <ele>898.496</ele>
        <time>2011-06-10T17:05:33Z</time>
      </trkpt>
      <trkpt lat="41.76811" lon="9.04649">
        <ele>900.18</ele>
        <time>2011-06-10T17:05:46Z</time>
      </trkpt>
      <trkpt lat="41.76845" lon="9.04648">
        <ele>903.078</ele>
        <time>2011-06-10T17:06:01Z</time>
      </trkpt>
      <trkpt lat="41.76871" lon="9.04631">
        <ele>904.338</ele>
        <time>2011-06-10T17:06:14Z</time>
      </trkpt>
      <trkpt lat="41.76898" lon="9.04605">
        <ele>906.854</ele>
        <time>2011-06-10T17:06:28Z</time>
      </trkpt>
      <trkpt lat="41.76921" lon="9.04576">
        <ele>908.795</ele>
        <time>2011-06-10T17:06:42Z</time>
      </trkpt>
      <trkpt lat="41.76942" lon="9.04561">
        <ele>910.554</ele>
        <time>2011-06-10T17:06:55Z</time>
      </trkpt>
      <trkpt lat="41.76954" lon="9.04561">
        <ele>911.033</ele>
        <time>2011-06-10T17:07:00Z</time>
      </trkpt>
      <trkpt lat="41.76961" lon="9.04562">
        <ele>912.155</ele>
        <time>2011-06-10T17:07:14Z</time>
      </trkpt>
      <trkpt lat="41.76961" lon="9.04562">
        <ele>912.266</ele>
        <time>2011-06-10T17:10:00Z</time>
      </trkpt>
      <trkpt lat="41.76971" lon="9.04564">
        <ele>912.588</ele>
        <time>2011-06-10T17:10:04Z</time>
      </trkpt>
      <trkpt lat="41.77011" lon="9.04569">
        <ele>914.309</ele>
        <time>2011-06-10T17:10:20Z</time>
      </trkpt>
      <trkpt lat="41.77049" lon="9.0458">
        <ele>916.596</ele>
        <time>2011-06-10T17:10:35Z</time>
      </trkpt>
      <trkpt lat="41.77082" lon="9.04579">
        <ele>919.174</ele>
        <time>2011-06-10T17:10:50Z</time>
      </trkpt>
      <trkpt lat="41.77124" lon="9.04557">
        <ele>921.133</ele>
        <time>2011-06-10T17:11:07Z</time>
      </trkpt>
      <trkpt lat="41.77151" lon="9.04537">
        <ele>923.803</ele>
        <time>2011-06-10T17:11:18Z</time>
      </trkpt>
      <trkpt lat="41.77154" lon="9.04525">
        <ele>924.343</ele>
        <time>2011-06-10T17:11:21Z</time>
      </trkpt>
      <trkpt lat="41.77137" lon="9.0449">
        <ele>926.862</ele>
        <time>2011-06-10T17:11:36Z</time>
      </trkpt>
      <trkpt lat="41.77098" lon="9.04485">
        <ele>928.33</ele>
        <time>2011-06-10T17:11:51Z</time>
      </trkpt>
      <trkpt lat="41.77057" lon="9.04465">
        <ele>930.697</ele>
        <time>2011-06-10T17:12:07Z</time>
      </trkpt>
      <trkpt lat="41.77019" lon="9.04437">
        <ele>933.963</ele>
        <time>2011-06-10T17:12:24Z</time>
      </trkpt>
      <trkpt lat="41.76987" lon="9.04402">
        <ele>937.047</ele>
        <time>2011-06-10T17:12:41Z</time>
      </trkpt>
      <trkpt lat="41.76956" lon="9.04378">
        <ele>939.296</ele>
        <time>2011-06-10T17:12:56Z</time>
      </trkpt>
      <trkpt lat="41.76932" lon="9.04352">
        <ele>941.367</ele>
        <time>2011-06-10T17:13:10Z</time>
      </trkpt>
      <trkpt lat="41.76903" lon="9.04329">
        <ele>942.649</ele>
        <time>2011-06-10T17:13:24Z</time>
      </trkpt>
      <trkpt lat="41.76867" lon="9.04343">
        <ele>944.979</ele>
        <time>2011-06-10T17:13:39Z</time>
      </trkpt>
      <trkpt lat="41.76838" lon="9.04341">
        <ele>947.481</ele>
        <time>2011-06-10T17:13:54Z</time>
      </trkpt>
      <trkpt lat="41.76807" lon="9.04314">
        <ele>949.455</ele>
        <time>2011-06-10T17:14:10Z</time>
      </trkpt>
      <trkpt lat="41.76773" lon="9.04291">
        <ele>951.432</ele>
        <time>2011-06-10T17:14:25Z</time>
      </trkpt>
      <trkpt lat="41.76738" lon="9.04275">
        <ele>954.305</ele>
        <time>2011-06-10T17:14:40Z</time>
      </trkpt>
      <trkpt lat="41.76719" lon="9.04229">
        <ele>957.009</ele>
        <time>2011-06-10T17:14:57Z</time>
      </trkpt>
      <trkpt lat="41.76703" lon="9.04203">
        <ele>958.259</ele>
        <time>2011-06-10T17:15:09Z</time>
      </trkpt>
      <trkpt lat="41.76671" lon="9.04198">
        <ele>960.536</ele>
        <time>2011-06-10T17:15:23Z</time>
      </trkpt>
      <trkpt lat="41.76649" lon="9.04181">
        <ele>963.026</ele>
        <time>2011-06-10T17:15:35Z</time>
      </trkpt>
      <trkpt lat="41.76625" lon="9.0416">
        <ele>964.34</ele>
        <time>2011-06-10T17:15:49Z</time>
      </trkpt>
      <trkpt lat="41.76623" lon="9.0416">
        <ele>964.302</ele>
        <time>2011-06-10T17:15:50Z</time>
      </trkpt>
      <trkpt lat="41.7659" lon="9.04158">
        <ele>965.456</ele>
        <time>2011-06-10T17:16:05Z</time>
      </trkpt>
      <trkpt lat="41.76557" lon="9.04168">
        <ele>966.869</ele>
        <time>2011-06-10T17:16:20Z</time>
      </trkpt>
      <trkpt lat="41.76522" lon="9.04156">
        <ele>969.019</ele>
        <time>2011-06-10T17:16:36Z</time>
      </trkpt>
      <trkpt lat="41.76483" lon="9.04127">
        <ele>971.779</ele>
        <time>2011-06-10T17:16:53Z</time>
      </trkpt>
      <trkpt lat="41.76469" lon="9.04115">
        <ele>973.262</ele>
        <time>2011-06-10T17:17:00Z</time>
      </trkpt>
      <trkpt lat="41.76458" lon="9.04095">
        <ele>974.264</ele>
        <time>2011-06-10T17:17:12Z</time>
      </trkpt>
      <trkpt lat="41.76458" lon="9.04095">
        <ele>974.86</ele>
        <time>2011-06-10T17:17:34Z</time>
      </trkpt>
      <trkpt lat="41.7645" lon="9.0406">
        <ele>975.278</ele>
        <time>2011-06-10T17:18:15Z</time>
      </trkpt>
      <trkpt lat="41.76449" lon="9.04015">
        <ele>978.014</ele>
        <time>2011-06-10T17:18:31Z</time>
      </trkpt>
      <trkpt lat="41.76463" lon="9.03981">
        <ele>979.894</ele>
        <time>2011-06-10T17:18:46Z</time>
      </trkpt>
      <trkpt lat="41.76481" lon="9.03939">
        <ele>981.131</ele>
        <time>2011-06-10T17:18:56Z</time>
      </trkpt>
      <trkpt lat="41.76478" lon="9.03899">
        <ele>983.529</ele>
        <time>2011-06-10T17:19:03Z</time>
      </trkpt>
      <trkpt lat="41.76473" lon="9.0389">
        <ele>983.83</ele>
        <time>2011-06-10T17:19:05Z</time>
      </trkpt>
      <trkpt lat="41.76462" lon="9.03878">
        <ele>984.889</ele>
        <time>2011-06-10T17:19:08Z</time>
      </trkpt>
      <trkpt lat="41.76449" lon="9.03863">
        <ele>985.807</ele>
        <time>2011-06-10T17:19:12Z</time>
      </trkpt>
      <trkpt lat="41.76423" lon="9.03832">
        <ele>988.244</ele>
        <time>2011-06-10T17:19:20Z</time>
      </trkpt>
      <trkpt lat="41.76412" lon="9.03825">
        <ele>990.034</ele>
        <time>2011-06-10T17:19:24Z</time>
      </trkpt>
      <trkpt lat="41.76402" lon="9.03822">
        <ele>991.612</ele>
        <time>2011-06-10T17:19:33Z</time>
      </trkpt>
      <trkpt lat="41.76394" lon="9.03821">
        <ele>992.119</ele>
        <time>2011-06-10T17:19:48Z</time>
      </trkpt>
      <trkpt lat="41.76394" lon="9.03821">
        <ele>992.475</ele>
        <time>2011-06-10T17:20:55Z</time>
      </trkpt>
      <trkpt lat="41.76383" lon="9.03821">
        <ele>993.279</ele>
        <time>2011-06-10T17:21:04Z</time>
      </trkpt>
      <trkpt lat="41.7636" lon="9.03823">
        <ele>995.144</ele>
        <time>2011-06-10T17:21:17Z</time>
      </trkpt>
      <trkpt lat="41.76335" lon="9.03825">
        <ele>996.952</ele>
        <time>2011-06-10T17:21:32Z</time>
      </trkpt>
      <trkpt lat="41.76324" lon="9.03821">
        <ele>997.776</ele>
        <time>2011-06-10T17:21:39Z</time>
      </trkpt>
      <trkpt lat="41.76304" lon="9.03789">
        <ele>999.151</ele>
        <time>2011-06-10T17:21:54Z</time>
      </trkpt>
      <trkpt lat="41.76292" lon="9.03744">
        <ele>1000.722</ele>
        <time>2011-06-10T17:22:08Z</time>
      </trkpt>
      <trkpt lat="41.76278" lon="9.03713">
        <ele>1002.276</ele>
        <time>2011-06-10T17:22:19Z</time>
      </trkpt>
      <trkpt lat="41.76289" lon="9.03668">
        <ele>1004.765</ele>
        <time>2011-06-10T17:22:33Z</time>
      </trkpt>
      <trkpt lat="41.76283" lon="9.0362">
        <ele>1006.486</ele>
        <time>2011-06-10T17:22:48Z</time>
      </trkpt>
      <trkpt lat="41.76249" lon="9.03568">
        <ele>1007.878</ele>
        <time>2011-06-10T17:23:04Z</time>
      </trkpt>
      <trkpt lat="41.76219" lon="9.03515">
        <ele>1010.719</ele>
        <time>2011-06-10T17:23:18Z</time>
      </trkpt>
      <trkpt lat="41.76195" lon="9.03456">
        <ele>1013.721</ele>
        <time>2011-06-10T17:23:33Z</time>
      </trkpt>
      <trkpt lat="41.76187" lon="9.03396">
        <ele>1017.067</ele>
        <time>2011-06-10T17:23:47Z</time>
      </trkpt>
      <trkpt lat="41.76183" lon="9.0334">
        <ele>1020.236</ele>
        <time>2011-06-10T17:24:00Z</time>
      </trkpt>
      <trkpt lat="41.76152" lon="9.03301">
        <ele>1023.463</ele>
        <time>2011-06-10T17:24:14Z</time>
      </trkpt>
      <trkpt lat="41.76131" lon="9.03268">
        <ele>1025.711</ele>
        <time>2011-06-10T17:24:27Z</time>
      </trkpt>
      <trkpt lat="41.76114" lon="9.03232">
        <ele>1028.15</ele>
        <time>2011-06-10T17:24:41Z</time>
      </trkpt>
      <trkpt lat="41.76093" lon="9.03188">
        <ele>1030.294</ele>
        <time>2011-06-10T17:24:57Z</time>
      </trkpt>
      <trkpt lat="41.76107" lon="9.03148">
        <ele>1030.825</ele>
        <time>2011-06-10T17:25:10Z</time>
      </trkpt>
      <trkpt lat="41.76147" lon="9.03139">
        <ele>1030.355</ele>
        <time>2011-06-10T17:25:22Z</time>
      </trkpt>
      <trkpt lat="41.76156" lon="9.03139">
        <ele>1030.418</ele>
        <time>2011-06-10T17:25:24Z</time>
      </trkpt>
      <trkpt lat="41.76179" lon="9.03143">
        <ele>1029.141</ele>
        <time>2011-06-10T17:25:29Z</time>
      </trkpt>
      <trkpt lat="41.76262" lon="9.03181">
        <ele>1027.898</ele>
        <time>2011-06-10T17:25:43Z</time>
      </trkpt>
      <trkpt lat="41.76268" lon="9.03187">
        <ele>1028.5</ele>
        <time>2011-06-10T17:25:44Z</time>
      </trkpt>
      <trkpt lat="41.7628" lon="9.03213">
        <ele>1027.647</ele>
        <time>2011-06-10T17:25:47Z</time>
      </trkpt>
      <trkpt lat="41.76307" lon="9.03238">
        <ele>1025.496</ele>
        <time>2011-06-10T17:25:52Z</time>
      </trkpt>
      <trkpt lat="41.76357" lon="9.03211">
        <ele>1026.232</ele>
        <time>2011-06-10T17:26:00Z</time>
      </trkpt>
      <trkpt lat="41.76393" lon="9.03209">
        <ele>1024.513</ele>
        <time>2011-06-10T17:26:05Z</time>
      </trkpt>
      <trkpt lat="41.7648" lon="9.03268">
        <ele>1023.178</ele>
        <time>2011-06-10T17:26:18Z</time>
      </trkpt>
      <trkpt lat="41.76563" lon="9.0334">
        <ele>1024.232</ele>
        <time>2011-06-10T17:26:31Z</time>
      </trkpt>
      <trkpt lat="41.766" lon="9.03332">
        <ele>1024.35</ele>
        <time>2011-06-10T17:26:37Z</time>
      </trkpt>
      <trkpt lat="41.76603" lon="9.03325">
        <ele>1024.567</ele>
        <time>2011-06-10T17:26:38Z</time>
      </trkpt>
      <trkpt lat="41.76612" lon="9.03293">
        <ele>1025.886</ele>
        <time>2011-06-10T17:26:42Z</time>
      </trkpt>
      <trkpt lat="41.76614" lon="9.03277">
        <ele>1026.367</ele>
        <time>2011-06-10T17:26:44Z</time>
      </trkpt>
      <trkpt lat="41.76614" lon="9.03185">
        <ele>1029.397</ele>
        <time>2011-06-10T17:26:55Z</time>
      </trkpt>
      <trkpt lat="41.76592" lon="9.03094">
        <ele>1032.083</ele>
        <time>2011-06-10T17:27:07Z</time>
      </trkpt>
      <trkpt lat="41.76598" lon="9.03055">
        <ele>1034.317</ele>
        <time>2011-06-10T17:27:13Z</time>
      </trkpt>
      <trkpt lat="41.76611" lon="9.0301">
        <ele>1037.109</ele>
        <time>2011-06-10T17:27:26Z</time>
      </trkpt>
      <trkpt lat="41.7659" lon="9.02973">
        <ele>1039.562</ele>
        <time>2011-06-10T17:27:39Z</time>
      </trkpt>
      <trkpt lat="41.76579" lon="9.02921">
        <ele>1040.367</ele>
        <time>2011-06-10T17:27:51Z</time>
      </trkpt>
      <trkpt lat="41.76575" lon="9.02906">
        <ele>1039.666</ele>
        <time>2011-06-10T17:27:54Z</time>
      </trkpt>
      <trkpt lat="41.76559" lon="9.02866">
        <ele>1037.157</ele>
        <time>2011-06-10T17:28:00Z</time>
      </trkpt>
      <trkpt lat="41.76556" lon="9.02824">
        <ele>1034.099</ele>
        <time>2011-06-10T17:28:05Z</time>
      </trkpt>
      <trkpt lat="41.76589" lon="9.02779">
        <ele>1031.328</ele>
        <time>2011-06-10T17:28:11Z</time>
      </trkpt>
      <trkpt lat="41.76616" lon="9.02777">
        <ele>1029.987</ele>
        <time>2011-06-10T17:28:14Z</time>
      </trkpt>
      <trkpt lat="41.76632" lon="9.0278">
        <ele>1029.909</ele>
        <time>2011-06-10T17:28:16Z</time>
      </trkpt>
      <trkpt lat="41.76648" lon="9.02782">
        <ele>1029.096</ele>
        <time>2011-06-10T17:28:18Z</time>
      </trkpt>
      <trkpt lat="41.76664" lon="9.02779">
        <ele>1027.482</ele>
        <time>2011-06-10T17:28:20Z</time>
      </trkpt>
      <trkpt lat="41.76689" lon="9.02771">
        <ele>1025.785</ele>
        <time>2011-06-10T17:28:23Z</time>
      </trkpt>
      <trkpt lat="41.76705" lon="9.02764">
        <ele>1025.412</ele>
        <time>2011-06-10T17:28:25Z</time>
      </trkpt>
      <trkpt lat="41.76743" lon="9.0274">
        <ele>1023.112</ele>
        <time>2011-06-10T17:28:30Z</time>
      </trkpt>
      <trkpt lat="41.76785" lon="9.02721">
        <ele>1019.734</ele>
        <time>2011-06-10T17:28:35Z</time>
      </trkpt>
      <trkpt lat="41.76794" lon="9.0272">
        <ele>1019.81</ele>
        <time>2011-06-10T17:28:36Z</time>
      </trkpt>
      <trkpt lat="41.76837" lon="9.0271">
        <ele>1017.722</ele>
        <time>2011-06-10T17:28:41Z</time>
      </trkpt>
      <trkpt lat="41.76846" lon="9.02708">
        <ele>1017.474</ele>
        <time>2011-06-10T17:28:42Z</time>
      </trkpt>
      <trkpt lat="41.76881" lon="9.02713">
        <ele>1016.21</ele>
        <time>2011-06-10T17:28:46Z</time>
      </trkpt>
      <trkpt lat="41.76916" lon="9.02714">
        <ele>1015.301</ele>
        <time>2011-06-10T17:28:50Z</time>
      </trkpt>
      <trkpt lat="41.76956" lon="9.02673">
        <ele>1012.835</ele>
        <time>2011-06-10T17:28:56Z</time>
      </trkpt>
      <trkpt lat="41.76963" lon="9.02638">
        <ele>1009.155</ele>
        <time>2011-06-10T17:28:59Z</time>
      </trkpt>
      <trkpt lat="41.76968" lon="9.02622">
        <ele>1009.166</ele>
        <time>2011-06-10T17:29:00Z</time>
      </trkpt>
      <trkpt lat="41.76991" lon="9.02596">
        <ele>1007.505</ele>
        <time>2011-06-10T17:29:03Z</time>
      </trkpt>
      <trkpt lat="41.77053" lon="9.02535">
        <ele>1004.734</ele>
        <time>2011-06-10T17:29:11Z</time>
      </trkpt>
      <trkpt lat="41.7708" lon="9.02481">
        <ele>1001.197</ele>
        <time>2011-06-10T17:29:16Z</time>
      </trkpt>
      <trkpt lat="41.77085" lon="9.0247">
        <ele>1001.208</ele>
        <time>2011-06-10T17:29:17Z</time>
      </trkpt>
      <trkpt lat="41.77096" lon="9.02446">
        <ele>999.533</ele>
        <time>2011-06-10T17:29:19Z</time>
      </trkpt>
      <trkpt lat="41.77117" lon="9.02416">
        <ele>997.368</ele>
        <time>2011-06-10T17:29:22Z</time>
      </trkpt>
      <trkpt lat="41.77126" lon="9.02408">
        <ele>995.874</ele>
        <time>2011-06-10T17:29:23Z</time>
      </trkpt>
      <trkpt lat="41.77191" lon="9.02349">
        <ele>992.888</ele>
        <time>2011-06-10T17:29:31Z</time>
      </trkpt>
      <trkpt lat="41.77286" lon="9.0229">
        <ele>989.653</ele>
        <time>2011-06-10T17:29:43Z</time>
      </trkpt>
      <trkpt lat="41.7737" lon="9.02228">
        <ele>988.919</ele>
        <time>2011-06-10T17:29:56Z</time>
      </trkpt>
      <trkpt lat="41.77378" lon="9.02216">
        <ele>990.281</ele>
        <time>2011-06-10T17:29:58Z</time>
      </trkpt>
      <trkpt lat="41.77382" lon="9.0221">
        <ele>990.518</ele>
        <time>2011-06-10T17:30:05Z</time>
      </trkpt>
    </trkseg>
  </trk>
</gpx>